[[{"header":{"parameterUnit":"m.s-1","parameterCategory":1,"la1":30.6,"la2":29.2853,"lo1":-89.7004,"lo2":-87.6739,"dy":0.0162,"dx":0.0183,"nx":112,"ny":82,"refTime":"2023-03-12T06:00:00:Z","depth":0,"parameterNumber":2,"parameterNumberName":"U-component_of_WINDS"},"data":[0.0,0.0,0.0,0.0,0.0,0.0,0.0,0.0,0.0,0.0,0.0,0.0,0.0,0.0,0.0,0.0,0.0,0.0,0.0,0.0,0.0,0.0,0.0,0.0,0.0,0.0,0.0,0.0,0.0,0.0,0.0,0.0,0.0,0.0,0.0,0.0,0.0,0.0,0.0,0.0,0.0,0.0,0.0,0.0,0.0,0.0,0.0,0.0,0.0,0.0,0.0,0.0,0.0,0.0,0.0,0.0,0.0,0.0,0.0,0.0,0.0,0.0,0.0,0.0,0.0,0.0,0.0,0.0,0.0,0.0,0.0,0.0,0.0,0.0,0.0,0.0,0.0,0.0,0.0,0.0,0.0,0.0,0.0,0.0,0.0,0.0,0.0,0.0,0.0,0.0,-6.0165,-6.0316,-6.0831,-6.1193,-6.1193,-6.1193,-6.1193,-6.1193,0.0,0.0,0.0,0.0,0.0,0.0,0.0,0.0,0.0,0.0,0.0,0.0,0.0,0.0,0.0,0.0,0.0,0.0,0.0,0.0,0.0,0.0,0.0,0.0,0.0,0.0,0.0,0.0,0.0,0.0,0.0,0.0,0.0,0.0,0.0,0.0,0.0,0.0,0.0,0.0,0.0,0.0,0.0,0.0,0.0,0.0,0.0,0.0,0.0,0.0,0.0,0.0,0.0,0.0,0.0,0.0,0.0,0.0,0.0,0.0,0.0,0.0,0.0,0.0,0.0,0.0,0.0,0.0,0.0,0.0,0.0,0.0,0.0,0.0,0.0,0.0,0.0,0.0,0.0,0.0,0.0,0.0,0.0,0.0,0.0,0.0,0.0,0.0,0.0,0.0,0.0,0.0,0.0,0.0,0.0,0.0,0.0,0.0,0.0,0.0,0.0,0.0,0.0,0.0,-5.9797,-6.0952,-6.1193,-6.1193,-6.1193,-6.1193,-6.1193,-6.1193,0.0,0.0,0.0,0.0,0.0,0.0,0.0,0.0,0.0,0.0,0.0,0.0,0.0,0.0,0.0,0.0,0.0,0.0,0.0,0.0,0.0,0.0,0.0,0.0,0.0,0.0,0.0,0.0,0.0,0.0,0.0,0.0,0.0,0.0,0.0,0.0,0.0,0.0,0.0,0.0,0.0,0.0,0.0,0.0,0.0,0.0,0.0,0.0,0.0,0.0,0.0,0.0,0.0,0.0,0.0,0.0,0.0,0.0,0.0,0.0,0.0,0.0,0.0,0.0,0.0,0.0,0.0,0.0,0.0,0.0,0.0,0.0,0.0,0.0,0.0,0.0,0.0,0.0,0.0,0.0,0.0,0.0,0.0,0.0,0.0,0.0,0.0,0.0,0.0,0.0,0.0,0.0,0.0,0.0,0.0,0.0,0.0,0.0,0.0,0.0,0.0,0.0,0.0,-5.9397,-5.9645,-6.1073,-6.1193,-6.1193,-6.1193,-6.1193,-6.1193,-6.1193,-6.1193,0.0,0.0,0.0,0.0,0.0,0.0,0.0,0.0,0.0,0.0,0.0,0.0,0.0,0.0,0.0,0.0,0.0,0.0,0.0,0.0,0.0,0.0,0.0,0.0,0.0,0.0,0.0,0.0,0.0,0.0,0.0,0.0,0.0,0.0,0.0,0.0,0.0,0.0,0.0,0.0,0.0,0.0,0.0,0.0,0.0,0.0,0.0,0.0,0.0,0.0,0.0,0.0,0.0,0.0,0.0,0.0,0.0,0.0,0.0,0.0,0.0,0.0,0.0,0.0,0.0,0.0,0.0,0.0,0.0,0.0,0.0,0.0,0.0,0.0,0.0,0.0,0.0,0.0,0.0,0.0,0.0,0.0,0.0,0.0,0.0,0.0,0.0,0.0,0.0,0.0,0.0,0.0,0.0,0.0,0.0,0.0,0.0,0.0,0.0,0.0,0.0,0.0,-5.9768,-6.0014,-6.1073,-6.1193,-6.1193,-6.1193,-6.1193,-6.1193,-6.1193,-6.1193,0.0,0.0,0.0,0.0,0.0,0.0,0.0,0.0,0.0,0.0,0.0,0.0,0.0,0.0,0.0,0.0,0.0,0.0,0.0,0.0,0.0,0.0,0.0,0.0,0.0,0.0,0.0,0.0,0.0,0.0,0.0,0.0,0.0,0.0,0.0,0.0,0.0,0.0,0.0,0.0,0.0,0.0,0.0,0.0,0.0,0.0,0.0,0.0,0.0,0.0,0.0,0.0,0.0,0.0,0.0,0.0,0.0,0.0,0.0,0.0,0.0,0.0,0.0,0.0,0.0,0.0,0.0,0.0,0.0,0.0,0.0,0.0,0.0,0.0,0.0,0.0,0.0,0.0,0.0,0.0,0.0,0.0,0.0,0.0,0.0,0.0,0.0,0.0,0.0,0.0,0.0,0.0,0.0,0.0,0.0,0.0,0.0,0.0,0.0,0.0,0.0,0.0,-6.0316,-6.1073,-6.1193,-6.1193,-6.1193,-6.1193,-6.1193,-6.1193,-6.1193,-6.1193,0.0,0.0,0.0,0.0,0.0,0.0,0.0,0.0,0.0,0.0,0.0,0.0,0.0,0.0,0.0,0.0,0.0,0.0,0.0,0.0,0.0,0.0,0.0,0.0,0.0,0.0,0.0,0.0,0.0,0.0,0.0,0.0,0.0,0.0,0.0,0.0,0.0,0.0,0.0,0.0,0.0,0.0,0.0,0.0,0.0,0.0,0.0,0.0,0.0,0.0,0.0,0.0,0.0,0.0,0.0,0.0,0.0,0.0,0.0,0.0,0.0,0.0,0.0,0.0,0.0,0.0,0.0,0.0,0.0,0.0,0.0,0.0,0.0,0.0,0.0,0.0,0.0,0.0,0.0,0.0,0.0,0.0,0.0,0.0,0.0,0.0,0.0,0.0,0.0,0.0,0.0,0.0,0.0,0.0,0.0,0.0,0.0,0.0,0.0,0.0,0.0,0.0,-5.9121,-6.0287,-6.1073,-6.1193,-6.1193,-6.1193,-6.1193,-6.1193,-6.1193,0.0,0.0,0.0,0.0,0.0,0.0,0.0,0.0,0.0,0.0,0.0,0.0,0.0,0.0,0.0,0.0,0.0,0.0,0.0,0.0,0.0,0.0,0.0,0.0,0.0,0.0,0.0,0.0,0.0,0.0,0.0,0.0,0.0,0.0,0.0,0.0,0.0,0.0,0.0,0.0,0.0,0.0,0.0,0.0,0.0,0.0,0.0,0.0,0.0,0.0,0.0,0.0,0.0,0.0,0.0,0.0,0.0,0.0,0.0,0.0,0.0,0.0,0.0,0.0,0.0,0.0,0.0,0.0,0.0,0.0,0.0,0.0,0.0,0.0,0.0,0.0,0.0,0.0,0.0,0.0,0.0,0.0,0.0,0.0,0.0,0.0,0.0,0.0,0.0,0.0,0.0,0.0,0.0,0.0,0.0,0.0,0.0,0.0,0.0,0.0,0.0,0.0,-5.7295,-5.8467,-5.9645,-6.1073,-6.1193,-6.1193,-6.1193,-6.1193,-6.1193,-6.1193,0.0,0.0,0.0,0.0,0.0,0.0,0.0,0.0,0.0,0.0,0.0,0.0,0.0,0.0,0.0,0.0,0.0,0.0,0.0,0.0,0.0,0.0,0.0,0.0,0.0,0.0,0.0,0.0,0.0,0.0,0.0,0.0,0.0,0.0,0.0,0.0,0.0,0.0,0.0,0.0,0.0,0.0,0.0,0.0,0.0,0.0,0.0,0.0,0.0,0.0,0.0,0.0,0.0,0.0,0.0,0.0,0.0,0.0,0.0,0.0,0.0,0.0,0.0,0.0,0.0,0.0,0.0,0.0,0.0,0.0,0.0,0.0,0.0,0.0,0.0,0.0,0.0,0.0,0.0,0.0,0.0,0.0,0.0,0.0,0.0,0.0,0.0,0.0,0.0,0.0,0.0,0.0,0.0,0.0,0.0,0.0,0.0,0.0,0.0,0.0,0.0,0.0,-5.7295,-5.8467,-5.9645,-6.1073,-6.1193,-6.1193,-6.1193,-6.1193,-6.1193,0.0,0.0,0.0,0.0,0.0,0.0,0.0,0.0,0.0,0.0,0.0,0.0,0.0,0.0,0.0,0.0,0.0,0.0,0.0,0.0,0.0,0.0,0.0,0.0,0.0,0.0,0.0,0.0,0.0,0.0,0.0,0.0,0.0,0.0,0.0,0.0,0.0,0.0,0.0,0.0,0.0,0.0,0.0,0.0,0.0,0.0,0.0,0.0,0.0,0.0,0.0,0.0,0.0,0.0,0.0,0.0,0.0,0.0,0.0,0.0,0.0,0.0,0.0,0.0,0.0,0.0,0.0,0.0,0.0,0.0,0.0,0.0,0.0,0.0,0.0,0.0,0.0,0.0,0.0,0.0,0.0,0.0,0.0,0.0,0.0,0.0,0.0,0.0,0.0,0.0,0.0,0.0,0.0,0.0,0.0,0.0,0.0,0.0,0.0,0.0,0.0,0.0,0.0,-5.6337,-5.8843,-6.0681,-6.1193,-6.1193,-6.1193,-6.1193,-6.1193,-6.1193,-6.1193,0.0,0.0,0.0,0.0,0.0,0.0,0.0,0.0,0.0,0.0,0.0,0.0,0.0,0.0,0.0,0.0,0.0,0.0,0.0,0.0,0.0,0.0,0.0,0.0,0.0,0.0,0.0,0.0,0.0,0.0,0.0,0.0,0.0,0.0,0.0,0.0,0.0,0.0,0.0,0.0,0.0,0.0,0.0,0.0,0.0,0.0,0.0,0.0,0.0,0.0,0.0,0.0,0.0,0.0,0.0,0.0,0.0,0.0,0.0,0.0,0.0,0.0,0.0,0.0,0.0,0.0,0.0,0.0,0.0,0.0,0.0,0.0,0.0,0.0,0.0,0.0,0.0,0.0,0.0,0.0,0.0,0.0,0.0,0.0,0.0,0.0,0.0,0.0,0.0,0.0,0.0,0.0,0.0,0.0,0.0,0.0,0.0,0.0,0.0,0.0,0.0,0.0,-5.5814,-5.7524,-5.9397,-6.1073,-6.0681,-6.056,-6.1193,-6.1193,-6.1193,-6.1193,0.0,0.0,0.0,0.0,0.0,0.0,0.0,0.0,0.0,0.0,0.0,0.0,0.0,0.0,0.0,0.0,0.0,0.0,0.0,0.0,0.0,0.0,0.0,0.0,0.0,0.0,0.0,0.0,0.0,0.0,0.0,0.0,0.0,0.0,0.0,0.0,0.0,0.0,0.0,0.0,0.0,0.0,0.0,0.0,0.0,0.0,0.0,0.0,0.0,0.0,0.0,0.0,0.0,0.0,0.0,0.0,0.0,0.0,0.0,0.0,0.0,0.0,0.0,0.0,0.0,0.0,0.0,0.0,0.0,0.0,0.0,0.0,0.0,0.0,0.0,0.0,0.0,0.0,0.0,0.0,0.0,0.0,0.0,0.0,0.0,0.0,0.0,0.0,0.0,0.0,0.0,0.0,0.0,0.0,0.0,0.0,0.0,0.0,0.0,0.0,0.0,0.0,-5.5419,-5.5472,-5.6807,-6.056,-6.0014,-5.9768,-6.1073,-6.1193,-6.1193,-6.1193,0.0,0.0,0.0,0.0,0.0,0.0,0.0,0.0,0.0,0.0,0.0,0.0,0.0,0.0,0.0,0.0,0.0,0.0,0.0,0.0,0.0,0.0,0.0,0.0,0.0,0.0,0.0,0.0,0.0,0.0,0.0,0.0,0.0,0.0,0.0,0.0,0.0,0.0,0.0,0.0,0.0,0.0,0.0,0.0,0.0,0.0,0.0,0.0,0.0,0.0,0.0,0.0,0.0,0.0,0.0,0.0,0.0,0.0,0.0,0.0,-3.745,-3.6289,0.0,0.0,0.0,0.0,0.0,0.0,0.0,0.0,0.0,0.0,0.0,0.0,0.0,0.0,0.0,0.0,0.0,0.0,0.0,0.0,0.0,0.0,0.0,0.0,0.0,0.0,0.0,0.0,0.0,0.0,0.0,0.0,0.0,0.0,0.0,0.0,0.0,0.0,0.0,0.0,-5.4273,-5.665,-5.8592,-5.9493,-6.0287,-6.0923,-6.1193,-6.1193,-6.1193,-6.1193,-6.1193,0.0,0.0,0.0,0.0,0.0,0.0,0.0,0.0,0.0,0.0,0.0,0.0,0.0,0.0,0.0,0.0,0.0,0.0,0.0,0.0,0.0,0.0,0.0,0.0,0.0,0.0,0.0,0.0,0.0,0.0,0.0,0.0,0.0,0.0,0.0,0.0,0.0,0.0,0.0,0.0,0.0,0.0,0.0,0.0,0.0,0.0,0.0,0.0,0.0,0.0,0.0,0.0,0.0,0.0,0.0,0.0,0.0,0.0,0.0,-3.796,-3.7226,0.0,0.0,0.0,0.0,0.0,0.0,0.0,0.0,0.0,0.0,0.0,0.0,0.0,0.0,0.0,0.0,0.0,0.0,0.0,0.0,0.0,0.0,0.0,0.0,0.0,0.0,0.0,0.0,0.0,0.0,0.0,0.0,0.0,0.0,0.0,0.0,0.0,0.0,0.0,0.0,-5.3759,-5.5736,-5.7578,-5.8996,-5.9768,-6.0409,-6.1193,-6.1193,-6.1193,-6.1193,-6.1193,0.0,0.0,0.0,0.0,0.0,0.0,0.0,0.0,0.0,0.0,0.0,0.0,0.0,0.0,0.0,0.0,0.0,0.0,0.0,0.0,0.0,0.0,0.0,0.0,0.0,0.0,0.0,0.0,0.0,0.0,0.0,0.0,0.0,0.0,0.0,0.0,0.0,0.0,0.0,0.0,0.0,0.0,0.0,0.0,0.0,0.0,0.0,0.0,0.0,0.0,0.0,0.0,0.0,-3.8613,-3.8691,-3.8691,-3.8926,-3.8681,-3.8059,-3.872,-3.8457,-3.7436,-3.701,0.0,0.0,0.0,0.0,0.0,0.0,0.0,0.0,0.0,0.0,0.0,0.0,0.0,0.0,0.0,0.0,0.0,0.0,0.0,0.0,0.0,0.0,-4.9229,-5.0431,-5.0696,-5.072,-5.0816,0.0,0.0,0.0,0.0,0.0,0.0,0.0,0.0,0.0,0.0,0.0,-5.3376,-5.4325,-5.5894,-5.8467,-5.8968,-5.9645,-6.1073,-6.1193,-6.1193,-6.1193,-6.1193,-6.1193,0.0,0.0,0.0,0.0,0.0,0.0,0.0,0.0,0.0,0.0,0.0,0.0,0.0,0.0,0.0,0.0,0.0,0.0,0.0,0.0,0.0,0.0,0.0,0.0,0.0,0.0,0.0,0.0,0.0,0.0,0.0,0.0,-3.1063,-3.0754,0.0,0.0,0.0,0.0,0.0,0.0,0.0,0.0,0.0,0.0,0.0,0.0,0.0,-3.8098,-3.8242,-3.8027,-3.7949,-3.8027,-3.8769,-3.9121,-3.916,-4.0312,-3.9989,-3.865,-4.0163,0.0,-3.8437,-3.8779,0.0,0.0,0.0,0.0,0.0,0.0,0.0,0.0,0.0,0.0,0.0,0.0,0.0,0.0,0.0,0.0,0.0,0.0,0.0,0.0,0.0,0.0,-4.8772,-5.0335,-5.0696,-5.084,-5.1297,-5.1032,-5.0696,-5.0696,-5.0696,-5.0696,0.0,0.0,0.0,0.0,0.0,0.0,-5.2074,-5.3513,-5.5207,-5.7038,-5.834,-5.9645,-6.1073,-6.1193,-6.1193,-6.1193,-6.1193,-6.1193,-6.1193,-6.1969,0.0,0.0,0.0,0.0,0.0,0.0,0.0,0.0,0.0,0.0,0.0,0.0,0.0,0.0,0.0,0.0,0.0,0.0,0.0,0.0,0.0,0.0,0.0,0.0,0.0,0.0,0.0,0.0,0.0,-2.8866,-2.9838,-2.955,-2.9142,-2.8443,0.0,0.0,0.0,0.0,0.0,0.0,0.0,0.0,0.0,-3.5189,-3.7107,-3.8269,-3.8926,-3.9473,-3.9746,-3.9766,-4.0137,-4.0312,-4.0332,-4.0898,-4.0197,-3.8724,-3.9374,-3.8806,-3.7195,-3.714,-3.7148,-3.6929,0.0,0.0,0.0,0.0,-3.8413,-3.9004,-3.8828,-3.875,-3.8896,-3.946,0.0,0.0,0.0,0.0,0.0,0.0,0.0,-4.7834,-4.8892,-4.9638,-5.0335,-5.1345,-5.1586,-5.1658,-5.1874,-5.1754,-5.1489,-5.1201,-5.1153,-5.1056,-5.0744,-5.0696,0.0,0.0,0.0,-5.1656,-5.182,-5.3538,-5.5366,-5.678,-5.8214,-5.9645,-6.1073,-6.1193,-6.1193,-6.1193,-6.1193,-6.1193,-6.1193,-6.2087,-6.2959,0.0,0.0,0.0,0.0,0.0,0.0,0.0,0.0,0.0,0.0,0.0,0.0,0.0,0.0,0.0,0.0,0.0,0.0,0.0,0.0,0.0,0.0,0.0,0.0,0.0,0.0,0.0,0.0,-2.9355,-3.0037,-2.9174,-2.9872,-2.9704,0.0,0.0,0.0,0.0,0.0,0.0,-3.3629,-3.4531,-3.5581,-3.6791,-3.7877,-3.8956,-3.9707,-4.0684,-4.1016,-4.0509,-4.0509,-4.0353,-3.9883,-3.9883,-3.8901,-3.7277,-3.7755,-3.6957,-3.5315,-3.5424,-3.5748,-3.6093,-3.4759,-3.5037,-3.6261,-3.7893,-3.8633,-3.9086,-3.944,-3.9551,-3.9551,-3.9551,-3.9707,-4.0464,-4.3606,0.0,0.0,0.0,0.0,-4.8892,-4.983,-5.0696,-5.1465,-5.2115,-5.2283,-5.2331,-5.2451,-5.2475,-5.2331,-5.1802,-5.1682,-5.1562,-5.1177,-5.1105,0.0,-5.0936,-5.1313,-5.1687,-5.1681,-5.3128,-5.4727,-5.6129,-5.7679,-5.9121,-6.056,-6.0952,-6.1193,-6.1193,-6.1193,-6.1193,-6.1193,-6.2321,-6.3189,-6.3872,0.0,0.0,0.0,0.0,0.0,0.0,0.0,0.0,0.0,0.0,0.0,0.0,0.0,0.0,0.0,0.0,0.0,0.0,0.0,0.0,0.0,0.0,0.0,0.0,0.0,0.0,0.0,0.0,0.0,-3.2199,-3.3589,0.0,0.0,0.0,0.0,-3.3696,-3.3932,-3.4566,-3.6091,-3.703,-3.8101,-3.9635,-4.0491,-4.1094,-4.1074,-4.1133,-4.0353,-3.8724,-3.8724,-3.7914,-3.6316,-3.6316,-3.5349,-3.3756,-3.5349,-3.5187,-3.356,-3.4962,-3.4475,-3.3002,-3.2682,-3.2555,-3.2665,-3.4007,-3.5404,-3.6883,-3.8182,-3.8652,-3.8652,-3.8652,-3.9219,-4.0464,-4.3606,-4.5209,0.0,0.0,-4.9758,-4.9926,-5.0503,-5.0696,-5.1008,-5.2043,-5.2283,-5.2427,-5.2908,-5.3029,-5.286,-5.2331,-5.2235,-5.2235,-5.2211,0.0,-5.2018,-5.1537,-5.1441,-5.1392,-5.1284,-5.1656,-5.2604,-5.4407,-5.6129,-5.7679,-5.9121,-6.0409,-6.1193,-6.1193,-6.1193,-6.1193,-6.1193,-6.2874,-6.3872,-6.3872,-6.5592,0.0,0.0,0.0,0.0,0.0,0.0,0.0,0.0,0.0,0.0,0.0,0.0,0.0,0.0,0.0,0.0,0.0,0.0,0.0,0.0,0.0,0.0,0.0,0.0,0.0,0.0,0.0,0.0,-3.3033,-3.4953,0.0,-3.3804,-3.4528,-3.5244,-3.5515,-3.696,-3.8028,-3.8648,-3.9453,-3.9584,-3.9099,-3.9381,-3.9059,-3.7932,-3.7773,-3.7614,-3.6957,-3.6957,-3.6637,-3.5994,-3.5994,-3.5042,-3.3429,-3.4066,-3.3265,-3.1798,-3.232,-3.2749,-3.3238,-3.3111,-3.3063,-3.3209,-3.4811,-3.6499,-3.7888,-3.8378,-3.9452,-4.0703,-4.0957,-4.2027,-4.3074,-4.3523,-4.5335,-4.7445,-4.814,-4.9511,-5.1032,-5.1586,-5.2211,-5.2812,-5.3173,-5.3269,-5.3317,-5.351,-5.3558,-5.3485,-5.3293,-5.3004,-5.2692,-5.2331,-5.2283,-5.2211,-5.2018,-5.226,-5.2332,-5.2257,-5.225,-5.3381,-5.6,-5.6447,-5.7679,-6.0287,-6.0923,-6.1193,-6.1193,-6.1193,-6.1193,-6.1193,-6.2989,-6.3872,-6.3872,-6.57,-6.6617,0.0,0.0,0.0,0.0,0.0,0.0,0.0,0.0,0.0,0.0,0.0,0.0,0.0,0.0,0.0,0.0,0.0,0.0,0.0,0.0,0.0,0.0,0.0,0.0,0.0,-3.1521,-3.3102,-3.1959,-3.4377,-3.5334,-3.3686,-3.4889,-3.5905,-3.6174,-3.7638,-3.8588,-3.8588,-3.9093,-3.8901,-3.7755,-3.7755,-3.7117,-3.5994,-3.5994,-3.5672,-3.5187,-3.5187,-3.4863,-3.4213,-3.4213,-3.3576,-3.2443,-3.2443,-3.1798,-3.0817,-3.0817,-3.1482,-3.2443,-3.2443,-3.2443,-3.2772,-3.4555,-3.5833,-3.6975,-3.8395,-4.0179,-4.2051,-4.2344,-4.33,-4.4234,-4.4111,-4.5702,-4.7587,-4.7872,-4.9614,-5.145,-5.1929,-5.2845,-5.3822,-5.3822,-5.3822,-5.3822,-5.3822,-5.3822,-5.3822,-5.3822,-5.3558,-5.3221,-5.286,-5.2788,-5.274,-5.2572,-5.2816,-5.289,-5.2696,-5.2668,-5.3537,-5.552,-5.6505,-5.7867,-5.999,-6.0962,-6.1483,-6.1483,-6.1309,-6.1313,-6.1642,-6.3104,-6.3984,-6.432,-6.6027,-6.6933,-6.6933,0.0,0.0,0.0,0.0,0.0,0.0,0.0,0.0,0.0,0.0,0.0,0.0,0.0,0.0,0.0,0.0,0.0,0.0,0.0,0.0,0.0,0.0,0.0,-2.7629,-2.9822,-3.0747,-2.9242,-3.2146,-3.3748,-3.2697,-3.3818,-3.5049,-3.5943,-3.5994,-3.5994,-3.5994,-3.5994,-3.5994,-3.5994,-3.5994,-3.5833,-3.5833,-3.5833,-3.5025,-3.3265,-3.3265,-3.2458,-3.0817,-3.0817,-3.0817,-3.0817,-3.0817,-3.0817,-3.0817,-3.0817,-3.0817,-3.0817,-3.0817,-3.0817,-3.0984,-3.2788,-3.346,-3.4,-3.7935,-4.0631,-4.2281,-4.2461,-4.2754,-4.3411,-4.5123,-4.5892,-4.6566,-4.8302,-5.0031,-5.1293,-5.1293,-5.2541,-5.3822,-5.3822,-5.3822,-5.3822,-5.3822,-5.3822,-5.3822,-5.3822,-5.3822,-5.3822,-5.3822,-5.3822,-5.3654,-5.3173,-5.3101,0.0,-5.2403,-5.2574,-5.2841,-5.2841,-5.609,-5.8241,-5.8241,-6.0611,-6.2122,-6.2122,-6.1571,-6.1701,-6.2585,-6.3478,-6.4382,-6.5297,-6.6852,-6.7629,-6.7736,0.0,0.0,0.0,0.0,0.0,0.0,0.0,0.0,0.0,0.0,0.0,0.0,0.0,0.0,0.0,0.0,0.0,0.0,0.0,0.0,0.0,-2.7143,-2.8725,-3.0361,-3.2155,-3.3442,-3.3661,-3.4676,-3.5424,-3.5046,-3.5366,-3.5772,-3.5977,-3.5994,-3.5994,-3.5994,-3.5994,-3.5349,-3.4066,-3.4066,-3.3576,-3.2278,-3.2278,-3.1963,-3.1467,-3.1467,-3.1316,-3.0817,-3.0817,-3.0817,-3.0817,-3.0817,-3.0817,-3.0817,-3.0817,-3.0817,-3.0817,-3.0817,-3.0817,-3.0846,-3.1583,-3.28,-3.4709,-3.8571,-4.0454,-4.1114,-4.2751,-4.3437,-4.3699,-4.4008,-4.521,-4.6405,-4.6888,-4.9091,-5.1293,-5.1293,-5.2541,-5.3822,-5.3822,-5.3822,-5.3822,-5.3822,-5.3822,-5.3822,-5.3822,-5.3822,-5.3822,-5.3822,-5.3822,-5.3774,-5.363,-5.3606,-5.3558,-5.3413,-5.3225,-5.3546,-5.4777,-5.6184,-5.7838,-5.9566,-6.119,-6.2294,-6.2819,-6.3348,-6.3712,-6.3921,-6.5559,-6.6834,-6.7777,-6.8184,-6.8786,0.0,0.0,0.0,0.0,0.0,0.0,0.0,0.0,0.0,0.0,0.0,0.0,0.0,0.0,0.0,0.0,0.0,0.0,0.0,0.0,0.0,0.0,-2.7093,-2.8556,-3.0876,-3.1919,-3.2825,-3.3371,-3.3611,-3.3903,-3.3903,-3.3903,-3.3903,-3.3903,-3.3903,-3.3903,-3.3903,-3.3903,-3.3413,-3.2293,-3.2293,-3.1798,-3.0832,-3.0817,-3.0817,-3.0817,-3.0817,-3.0817,-3.0817,-3.0817,-3.0817,-3.0817,-3.0817,-3.0817,-3.0817,-3.0817,-3.0817,-3.0817,0.0,0.0,0.0,0.0,-3.2889,-3.5039,-3.8108,-3.9826,-4.1027,-4.2952,-4.3711,-4.3711,-4.3711,-4.4469,-4.5431,-4.5431,-4.749,-4.9866,-5.0658,-5.2092,-5.3507,-5.4319,-5.4471,-5.4471,-5.4471,-5.4471,-5.4471,-5.4471,-5.4303,0.0,-5.4159,-5.3966,-5.3822,-5.3822,-5.3822,-5.3822,-5.3822,-5.3558,-5.3935,-5.5496,-5.674,-5.8312,-6.0469,-6.1768,0.0,0.0,0.0,-6.4815,-6.5642,-6.7054,0.0,0.0,0.0,-6.9594,-7.0695,-7.1472,0.0,0.0,-7.3178,-7.3544,0.0,0.0,0.0,0.0,0.0,0.0,0.0,0.0,0.0,0.0,0.0,0.0,0.0,0.0,0.0,0.0,-2.7374,-2.8246,-2.9884,-3.0252,-3.051,-3.0788,-3.0817,-3.0817,-3.0817,-3.0817,-3.0817,-3.0817,-3.0817,-3.0817,-3.0817,-3.0817,0.0,0.0,0.0,-3.0817,-3.0817,-3.0817,-3.0817,-3.0817,-3.0817,-3.0817,-3.0817,-3.0817,-3.0817,-3.0817,-3.0817,-3.0817,-3.0817,-3.0817,-3.0846,-3.0876,-3.0876,-3.1095,-3.1461,-3.1739,-3.3067,-3.5049,-3.7081,0.0,0.0,-4.3087,-4.3789,-4.3789,-4.3828,-4.4141,-4.4473,-4.4473,-4.5864,-4.7942,-4.9751,-5.151,-5.3102,-5.4741,-5.5076,-5.5076,-5.492,-5.4765,-5.4896,-5.5076,-5.4693,-5.4382,-5.4688,-5.4207,-5.3822,-5.3822,-5.3822,-5.3822,-5.3822,-5.3822,-5.4248,-5.5435,-5.7251,0.0,-6.0975,-6.2324,-6.3393,-6.4028,-6.4656,-6.5736,-6.7641,-6.8453,-6.8924,-6.8924,-6.9603,-7.0512,-7.1617,-7.3371,-7.4768,-7.5764,-7.4441,-7.417,0.0,0.0,0.0,0.0,0.0,0.0,0.0,0.0,0.0,0.0,0.0,0.0,0.0,0.0,0.0,-2.6201,-2.8042,-2.9285,-2.9635,-3.0274,-3.0759,-3.0817,-3.0817,-3.0817,-3.0817,-3.0817,-3.0817,-3.0817,-3.0817,-3.0817,-3.0817,-3.0817,-3.0817,-3.0817,-3.0817,-3.0817,-3.0817,-3.0817,-3.0817,-3.0817,-3.0817,0.0,-3.0817,-3.0817,-3.0817,-3.0817,-3.0817,-3.0817,-3.0817,-3.0817,-3.0978,-3.1212,-3.1212,-3.1578,-3.2105,-3.2163,-3.2572,-3.3701,-3.6936,-3.834,-3.9313,-4.3098,-4.4258,-4.4336,-4.4668,-4.4824,0.0,-4.4902,-4.6105,-4.7942,-4.9751,-5.151,-5.2786,-5.3102,-5.326,-5.2786,-5.1371,-5.1049,-5.1532,-5.2944,-5.3191,-5.3459,-5.4908,-5.4447,-5.3822,-5.3822,-5.3822,-5.3822,-5.3822,-5.3822,-5.4248,-5.5435,-5.7251,-5.9183,-6.0975,-6.2689,-6.3995,-6.4793,-6.6365,-6.8107,-7.001,-7.0266,-7.0378,-7.0378,-7.14,-7.2364,-7.347,-7.4701,-7.5892,-7.6918,-7.6609,-7.6575,0.0,0.0,0.0,0.0,0.0,0.0,0.0,0.0,0.0,0.0,0.0,-2.3174,-2.3174,0.0,-2.5834,-2.6666,-2.7892,-2.8978,-2.9481,-2.9816,-3.0317,-3.0817,-3.0817,-3.0817,-3.0817,-3.0817,-3.0817,-3.0817,-3.0817,-3.0817,-3.0817,-3.0817,-3.0817,-3.0817,-3.0817,-3.0817,-3.0817,-3.0817,-3.0817,-3.0817,-3.0817,-3.0817,-3.0817,-3.0817,-3.0817,-3.0817,-3.0817,-3.0817,-3.0832,-3.0993,-3.1359,-3.1798,-3.1798,-3.2002,-3.231,-3.2471,-3.2632,-3.3308,-3.7251,-3.8512,-3.9269,-4.3348,-4.4707,-4.4746,-4.4961,-4.5176,-4.5351,-4.5351,-4.6174,-4.7318,-4.9133,-5.0278,-5.1082,-5.1923,-5.2249,-5.1923,-5.1125,-5.0961,-5.1125,-5.2086,-5.2694,-5.3359,-5.4334,-5.4503,-5.4616,-5.4616,-5.4375,-5.4207,-5.4207,-5.3991,-5.4546,-5.6289,-5.7277,-5.8929,-6.1706,-6.3488,-6.5065,-6.6322,-6.7427,-6.8741,-7.0676,-7.0789,-7.0789,-7.0789,-7.1874,-7.2874,-7.3972,-7.5094,-7.6207,-7.7223,-7.7223,-7.7223,0.0,0.0,0.0,0.0,0.0,0.0,0.0,0.0,-2.0105,-2.1939,-2.4602,-2.607,-2.4773,-2.6047,-2.7268,-2.7268,-2.7929,-2.8642,-2.9314,-2.9649,-2.9998,-3.0665,-3.0817,-3.0817,-3.0817,-3.0817,-3.0817,-3.0817,-3.0817,-3.0817,-3.0817,-3.0817,-3.0817,-3.0817,-3.0817,-3.0817,-3.0817,-3.0817,-3.0817,-3.0817,-3.0817,-3.0817,-3.0817,-3.0817,-3.0817,-3.0832,-3.089,-3.092,-3.0949,-3.1344,-3.1812,-3.2295,-3.2354,-3.2383,-3.2412,-3.2676,-3.2807,-3.3412,-3.7484,-3.9028,-3.967,-4.3766,-4.5156,-4.5176,-4.5254,-4.5527,-4.5801,-4.5801,-4.6035,-4.6638,-4.8482,-4.8997,-4.9318,-5.0843,-5.1179,-5.1011,-5.0674,-5.0674,-5.0674,-5.1179,-5.2016,-5.2732,-5.3057,-5.4363,-5.5315,-5.5433,-5.5025,-5.476,-5.476,-5.4399,-5.4964,-5.7167,-5.7575,-5.9088,-6.2725,-6.4325,-6.5853,-6.7789,-6.7909,-6.8741,-7.0676,-7.0789,-7.0789,-7.0789,-7.209,-7.3187,-7.3972,-7.5287,-7.6392,-7.7223,-7.7223,-7.7223,-1.0285,-1.2153,-1.3325,-1.4731,-1.4297,-1.4661,0.0,0.0,-2.0814,-2.443,-2.5898,-2.6386,-2.6228,-2.6706,-2.7268,-2.7268,-2.8095,-2.8992,-2.9481,-2.983,-3.0332,-3.0832,-3.0817,-3.0817,-3.0817,-3.0817,-3.0817,-3.0817,-3.0817,-3.0817,-3.0817,-3.0817,-3.0817,-3.0817,-3.0817,-3.0817,-3.0817,-3.0817,-3.0817,-3.0817,-3.0817,-3.0817,-3.0817,-3.0817,-3.0817,-3.0846,-3.1124,-3.1256,-3.13,-3.1929,-3.2222,-3.231,-3.2602,-3.2719,-3.2719,-3.2763,-3.2954,-3.3725,-3.7567,-3.9025,-4.0071,-4.4204,-4.5605,-4.5664,-4.6055,-4.6191,-4.623,-4.623,-4.6269,-4.6638,-4.8482,-4.8997,-4.8997,-4.9338,-4.9338,-4.8826,-4.7314,-4.6987,-4.7314,-4.8997,-4.9446,-5.0082,-5.1594,-5.337,-5.467,-5.5374,-5.5337,-5.5313,-5.5313,-5.5265,-5.5942,-5.7805,-5.8549,-6.0301,-6.3545,-6.4583,-6.5853,-6.7789,-6.7909,-6.8741,-7.0676,-7.0789,-7.0789,-7.0789,-7.2802,-7.3871,-7.3972,-7.602,-7.7099,-7.7223,-7.7223,-7.7223,-1.1494,-1.251,-1.2893,-1.4223,-1.4133,-1.4681,-1.8792,-2.006,-2.1355,-2.4814,-2.6566,-2.7415,-2.7415,-2.7615,-2.7776,-2.7776,-2.8144,-2.8655,-2.9481,-2.9663,-2.9998,-3.0651,-3.0817,-3.0817,-3.0817,-3.0817,-3.0817,-3.0817,-3.0817,-3.0817,-3.0817,-3.0817,-3.0817,-3.0817,-3.0817,-3.0817,-3.0817,-3.0817,-3.0317,-2.9286,-2.9286,-2.9286,-2.9286,-2.9286,-2.9901,-3.1124,-3.1446,-3.1695,-3.19,-3.2163,-3.2398,-3.2573,-3.2719,-3.288,-3.3041,-3.3041,-3.3129,-3.3814,-3.8064,-3.9556,-4.0454,-4.4641,-4.6035,-4.6074,-4.625,-4.6308,-4.6308,-4.6308,-4.6308,-4.6464,-4.7314,-4.7488,-4.7488,-4.7488,-4.7488,-4.7141,-4.6464,-4.6308,-4.6464,-4.7314,-4.8331,-4.9168,-4.9998,-5.2492,-5.4349,-5.4737,-5.5407,-5.589,-5.589,-5.5602,-5.6211,-5.8366,-6.09,-6.2894,-6.4223,-6.5417,-6.6971,-6.894,-6.9063,-6.9909,-7.1844,-7.1958,-7.1958,-7.1958,-7.4146,-7.5264,-7.5264,-7.7407,-7.8568,-7.8568,-7.8568,-7.8568,-1.2215,-1.2589,-1.2621,-1.376,-1.3987,-1.4678,-1.7371,-1.9002,-2.1017,-2.3756,-2.5896,-2.7448,-2.7448,-2.7799,-2.8136,-2.8136,-2.8136,-2.8473,-2.9314,-2.9481,-2.9816,-3.0651,-3.0317,-3.0136,-3.0136,-3.0136,-3.0136,-3.0136,-3.0136,-3.0136,-3.0136,-3.0484,-3.0817,-3.0817,-3.0817,-3.0817,-3.0817,-3.0317,-2.9453,-2.8096,-2.7669,-2.7709,-2.823,-2.8819,-3.0015,-3.1461,-3.1783,-3.2061,-3.2295,-3.2383,-3.2559,-3.2778,-3.2866,-3.3041,-3.3261,-3.3451,-3.351,-3.4111,-3.8479,-3.9984,-4.0837,-4.4926,-4.6308,-4.6308,-4.6308,-4.6308,-4.6308,-4.6308,-4.6308,-4.6308,-4.6308,-4.6308,-4.6308,-4.6308,-4.6308,-4.6308,-4.6308,-4.6308,-4.6308,-4.6308,-4.7314,-4.8331,-4.8331,-5.0821,-5.2988,-5.3505,-5.4857,-5.5787,-5.6286,-5.6561,-5.7269,-5.9101,-6.2519,-6.4712,-6.4712,-6.606,-6.7765,-6.9759,-6.9913,-7.0738,-7.2696,-7.2811,-7.2811,-7.2811,-7.5027,-7.6192,-7.6192,-7.836,-7.95,-7.95,-7.95,-7.9638,0.0,0.0,-1.2977,-1.3606,-1.4068,-1.4808,-1.6729,-1.7947,-1.915,-2.0895,-2.3481,-2.5556,-2.5556,-2.6927,-2.8136,-2.8136,-2.8136,-2.8473,-2.9314,-2.9481,-2.9816,-3.0651,-2.9286,-2.8096,-2.8096,-2.8096,-2.8096,-2.8096,-2.8096,-2.8096,-2.8096,-2.9802,-3.0817,-3.0817,-3.0817,-3.0817,-3.0817,-2.9118,-2.8096,-2.8096,-2.6485,-2.6795,-2.8708,-3.0752,-3.1768,-3.1798,-3.212,-3.228,-3.231,-3.2632,-3.2763,-3.2807,-3.3115,-3.3232,-3.3319,-3.3949,-3.4183,-3.4721,-3.8661,-4.0155,-4.1203,-4.5021,-4.6308,-4.6308,-4.6308,-4.6308,-4.6308,-4.6308,-4.6308,-4.6308,-4.6308,-4.6308,-4.6308,-4.6308,-4.6308,-4.6308,-4.6308,-4.6308,-4.6308,-4.6308,-4.6308,-4.6308,-4.6308,-4.7986,-4.9828,-5.1514,-5.3318,-5.4975,-5.6837,-5.8494,-5.9664,-5.984,-6.2763,-6.4712,-6.4712,-6.606,-6.7765,-6.9759,-6.9913,-7.0738,-7.2696,-7.2811,-7.2811,-7.2811,-7.5027,-7.6192,-7.6192,-7.836,-7.95,-7.95,-7.95,-7.9879,0.0,0.0,-1.2911,-1.3894,-1.4224,-1.4476,-1.5521,-1.708,-1.8819,-1.97,-2.1692,-2.3168,-2.3168,-2.4687,-2.6045,-2.6045,-2.72,-2.8473,-2.9314,-2.846,-2.811,-2.895,-2.7422,-2.6223,-2.6223,-2.6223,-2.6223,-2.6223,-2.6223,-2.6223,-2.6223,-2.6901,-2.7253,-2.7253,-2.7253,-2.7253,-2.7253,-2.6752,-2.5971,-2.4776,-2.5556,-2.6374,-2.7084,-3.0559,-3.212,-3.2134,-3.2471,-3.2602,-3.2617,-3.2719,-3.2778,-3.2807,-3.3129,-3.3378,-3.3627,-3.4051,-3.4358,-3.4907,-3.76,-3.9291,-4.0843,-4.3567,-4.5216,-4.6308,-4.6308,-4.6308,-4.6308,-4.6308,-4.6308,-4.6308,-4.6308,-4.6308,-4.6308,-4.6308,-4.6308,-4.6308,-4.6308,-4.6308,-4.6308,-4.6308,-4.6308,-4.6308,-4.6308,-4.7814,-4.9998,-5.3011,-5.4998,-5.6358,-5.6861,-5.8998,-6.0403,-6.0403,-6.374,-6.5949,-6.5949,-6.7351,-6.906,-7.1092,-7.1218,-7.209,-7.4053,-7.4202,-7.4202,-7.4202,-7.643,-7.7616,-7.7616,-7.9858,-8.1052,-8.1052,-8.1052,-8.1155,0.0,-1.2338,-1.2706,-1.4048,-1.4299,-1.4299,-1.4646,-1.6217,-1.7613,-1.7964,-1.9714,-2.1087,-2.1087,-2.2951,-2.4311,-2.3821,-2.5437,-2.6734,-2.7096,-2.6104,-2.5674,-2.6707,-2.5191,-2.4178,-2.4349,-2.3846,-2.3675,-2.436,-2.4349,-2.4349,-2.4349,-2.5044,-2.5373,-2.5373,-2.547,-2.5518,-2.5518,-2.5078,-2.404,-2.2203,-2.4983,-2.6351,-2.6637,-3.0571,-3.2456,-3.2471,-3.2676,-3.2778,-3.2778,-3.2778,-3.2837,-3.2968,-3.329,-3.3612,-3.3949,-3.4271,-3.4877,-3.5957,-3.7943,-3.9391,-4.0843,-4.3567,-4.5216,-4.6308,-4.6308,-4.6308,-4.6308,-4.6308,-4.6308,-4.6308,-4.6308,-4.6308,-4.6308,-4.6308,-4.6308,-4.6308,-4.6308,-4.6308,-4.6308,-4.6308,-4.6308,-4.6308,-4.6308,-4.8311,-5.0674,-5.3011,-5.5506,-5.7021,-5.7021,-5.9173,-6.0837,-6.1089,-6.4374,-6.6735,-6.7014,-6.8119,-6.9707,-7.1759,-7.1886,-7.2766,-7.4778,-7.4897,-7.4897,-7.4897,-7.7148,-7.8312,-7.8312,-8.0607,-8.181,-8.181,-8.181,-8.181,-1.2162,-1.2478,-1.2897,-1.4048,-1.4299,-1.4299,-1.4299,-1.4999,-1.5704,-1.5682,-1.7467,-1.9044,0.0,0.0,-2.3324,-2.1867,-2.3038,-2.3734,-2.3064,-2.2799,-2.3134,-2.4461,-2.2966,-2.1943,-2.2471,-2.0945,-2.0598,-2.2309,-2.2481,-2.2481,-2.2481,-2.4201,-2.5056,-2.5056,-2.5306,-2.5437,-2.5437,-2.3953,-2.243,-2.0856,-2.4789,-2.6713,-2.7148,-3.0959,-3.2778,-3.2778,-3.2778,-3.2778,-3.2778,-3.2778,-3.2954,-3.3276,-3.3612,-3.3934,-3.4256,-3.4578,-3.5972,-3.7943,-3.9755,-4.0481,-4.1203,-4.5021,-4.6308,-4.6308,-4.6308,-4.6308,-4.6308,-4.6308,-4.6308,-4.6308,-4.6308,-4.6308,-4.6308,-4.6308,-4.6308,-4.6308,-4.6308,-4.6308,-4.6308,-4.6308,-4.6308,-4.6308,-4.6308,-4.9338,-5.1682,-5.1682,-5.4673,-5.7021,-5.7021,-5.9173,-6.0964,-6.179,-6.4635,-6.6875,-6.7679,-6.8392,-6.9707,-7.1759,-7.1886,-7.2766,-7.4778,-7.4897,-7.4897,-7.4897,-7.7115,-7.8279,-7.8279,-8.0706,-8.181,-8.181,-8.181,-8.181,-1.2264,-1.2619,-1.2966,-1.4102,-1.4299,-1.4299,-1.4299,-1.4999,-1.5637,-1.5391,-1.6092,-1.6749,0.0,0.0,0.0,-2.1706,-2.3468,0.0,-2.5156,-2.2972,0.0,-2.2439,0.0,-2.0066,-2.0598,-2.0085,-2.0095,-2.0607,-2.0607,-2.0607,-2.0607,-2.1269,-2.1524,-2.1524,-2.1747,-2.1868,-2.1868,-2.1551,-2.1231,-2.1083,-2.506,-2.6894,-2.7148,-3.0959,-3.2778,-3.2778,-3.2778,-3.2778,-3.2778,-3.2778,-3.2954,-3.3276,-3.3612,-3.3934,-3.4256,-3.4578,-3.5972,-3.7943,-3.9755,-4.1384,-4.2836,-4.3763,-4.5197,-4.6308,-4.6308,-4.6308,-4.6308,-4.6308,-4.6308,-4.6308,-4.6308,-4.6308,-4.6308,-4.6308,-4.6308,-4.6308,-4.6308,-4.6308,-4.6308,-4.6308,-4.6308,-4.6308,-4.6308,-4.9338,-5.1682,-5.1682,-5.4673,-5.7021,-5.7021,-5.9173,-6.0964,-6.179,-6.4635,-6.6875,-6.7679,-6.8392,-6.9707,-7.1759,-7.1886,-7.2766,-7.4778,-7.4897,-7.4897,-7.4897,-7.7148,-7.8312,-7.8312,-8.0607,-8.181,-8.181,-8.181,-8.181,-1.2445,-1.2759,-1.3053,-1.4122,-1.4299,-1.4265,-1.4129,-1.4799,-1.5399,-1.5063,-1.5396,-1.5756,-1.5553,-1.8688,0.0,0.0,0.0,0.0,-2.3134,-2.0798,-1.9512,0.0,-1.9718,0.0,-1.9921,-1.9921,-1.9959,-2.0044,-1.9968,-1.9959,-2.0044,-2.0157,-2.0261,-2.0355,-2.0563,-2.0724,-2.0818,-2.0932,-2.1404,-2.2432,-2.5525,-2.7509,-2.8411,-3.1493,-3.2778,-3.2778,-3.2778,-3.2778,-3.2778,-3.2924,-3.3173,-3.3495,-3.3817,-3.4139,-3.4632,-3.5539,-3.7223,-3.9209,-4.1023,-4.3033,-4.4668,-4.4668,-4.5392,-4.6308,-4.6308,-4.6308,-4.6308,-4.6308,-4.6308,-4.6308,-4.6308,-4.6308,-4.6308,-4.6308,-4.6308,-4.6308,-4.6308,-4.6308,-4.6308,-4.6308,-4.6308,-4.6308,-4.6308,-4.9338,-5.1682,-5.1682,-5.4673,-5.7021,-5.7021,-5.8706,-6.0482,-6.2062,-6.4319,-6.637,-6.809,-6.8528,-6.9707,-7.1759,-7.1886,-7.2766,-7.4778,-7.4897,-7.4897,-7.4897,-7.6621,-7.7773,-7.8312,-8.014,-8.1262,-8.181,-8.181,-8.181,-1.2638,-1.2875,-1.3053,-1.4122,-1.4299,-1.4217,-1.3912,-1.4529,-1.5108,-1.4728,0.0,-1.5504,-1.5455,-1.8141,-1.9918,-1.8562,0.0,-2.0662,-1.9615,-1.8157,-1.7622,-1.8305,-1.8864,-1.9214,-1.9746,-1.994,-2.0034,-2.0204,-2.0081,-2.0081,-2.0251,-2.0289,-2.0403,-2.062,-2.079,-2.0979,-2.1168,-2.1168,-2.2258,-2.4064,-2.606,-2.8051,-3.0039,-3.1863,-3.2778,-3.2778,-3.2778,-3.2778,-3.2793,-3.3115,-3.3436,-3.3758,-3.4095,-3.4603,-3.5241,-3.7038,-3.9026,-4.1203,-4.2836,-4.4668,-4.6308,-4.6308,-4.6308,-4.6308,-4.6308,-4.6308,-4.6308,-4.6308,-4.6308,-4.6308,-4.6308,-4.6308,-4.6308,-4.6308,-4.6308,-4.6308,-4.6308,-4.6308,-4.6308,-4.6308,-4.6308,-4.6308,-4.6308,-4.9168,-5.1347,-5.1682,-5.451,-5.6678,-5.7021,-5.8237,-6.0151,-6.263,-6.4265,-6.6061,-6.8528,-6.8828,-6.9707,-7.1759,-7.1886,-7.2766,-7.4778,-7.4897,-7.4897,-7.4897,-7.597,-7.7148,-7.8097,-7.9361,-8.0573,-8.1585,-8.1715,-8.181,-1.2686,-1.2875,-1.3053,-1.4122,-1.4299,-1.4393,-1.4428,-1.4871,0.0,0.0,-1.5233,-1.5423,-1.5114,-1.7006,-1.8759,-1.8636,0.0,-1.9625,-1.9703,-1.8218,-1.7389,0.0,-1.8339,-1.8864,-1.9204,-1.9887,-2.0185,-2.0214,-2.0355,-2.045,-2.0488,-2.0648,-2.0837,-2.1055,-2.1093,-2.113,-2.1168,-2.1168,-2.2258,-2.4064,-2.606,-2.8051,-3.0039,-3.1863,-3.2778,-3.2778,-3.2778,-3.2778,-3.2793,-3.3115,-3.3436,-3.3758,-3.4095,-3.5314,-3.7223,-3.7407,-3.9937,-4.3033,-4.3211,-4.4668,-4.6308,-4.6308,-4.6308,-4.6308,-4.6308,-4.6308,-4.6308,-4.6308,-4.6308,-4.6308,-4.6308,-4.6308,-4.6308,-4.6308,-4.6308,-4.6308,-4.6308,-4.6308,-4.6308,-4.6308,-4.6308,-4.6308,-4.6308,-4.7986,-4.9998,-5.1514,-5.3505,-5.5345,-5.6861,-5.9562,-6.164,-6.2777,-6.5439,-6.7679,-6.8692,-6.8828,-6.9707,-7.1759,-7.1886,-7.2766,-7.4778,-7.4897,-7.4897,-7.4897,-7.597,-7.6734,-7.6925,-7.8946,-8.0106,-8.034,-8.1359,-8.181,-1.2698,-1.2875,-1.3053,-1.4122,-1.4299,-1.4352,-1.4231,0.0,0.0,0.0,-1.4915,-1.5171,-1.5,-1.6814,0.0,-1.8446,-1.9008,0.0,-1.9524,-1.8374,0.0,-1.7822,-1.8514,-1.9075,-1.936,-1.9637,-1.9953,-2.0526,-2.0458,-2.0343,-2.0696,-2.0894,-2.1064,-2.1168,-2.1168,-2.1168,-2.1168,-2.2258,-2.3709,-2.5696,-2.7509,-2.9502,-3.1493,-3.2409,-3.2778,-3.2778,-3.2778,-3.2778,-3.2807,-3.329,-3.3583,-3.3773,-3.4285,-3.582,-3.7759,-3.8677,-4.0843,-4.3567,-4.4491,-4.5568,-4.6308,-4.6308,-4.6308,-4.6308,-4.6308,-4.6308,-4.6308,-4.6308,-4.6308,-4.6308,-4.6308,-4.6308,-4.6308,-4.6308,-4.6308,-4.6308,-4.6308,-4.6308,-4.6308,-4.6308,-4.6308,-4.6308,-4.6308,-4.8654,-5.0674,-5.1514,-5.402,-5.6013,-5.6861,-6.0125,-6.2508,-6.2925,-6.4409,-6.6342,-6.8663,-6.8828,-6.9707,-7.1759,-7.1886,-7.2766,-7.4778,-7.4897,-7.4897,-7.4897,-7.5423,-7.597,-7.6621,-7.8312,-7.9361,-8.0006,-8.1228,-8.181,-1.2686,-1.3053,-1.323,-1.4122,-1.4299,-1.4318,-1.4209,-1.4397,0.0,-1.4501,-1.4814,-1.4968,-1.4968,0.0,-1.7604,0.0,-1.8082,-1.8551,0.0,-1.8017,-1.7555,0.0,-1.855,0.0,-1.9142,-1.9418,-1.9959,-2.0636,-2.0336,-2.0364,-2.0913,-2.1074,-2.1168,-2.1168,-2.1168,-2.1168,-2.0983,-2.2974,-2.4967,-2.6773,-2.8771,-3.0767,-3.2778,-3.2778,-3.2778,-3.2778,-3.2778,-3.2778,-3.2822,-3.3466,-3.3729,-3.3802,-3.4989,-3.6514,-3.8494,-4.0481,-4.23,-4.4296,-4.5763,-4.6308,-4.6308,-4.6308,-4.6308,-4.6308,-4.6308,-4.6308,-4.6308,-4.6308,-4.6308,-4.6308,-4.6308,-4.6308,-4.6308,-4.6308,-4.6308,-4.6308,-4.6308,-4.6308,-4.6308,-4.6308,-4.6308,-4.6308,-4.6308,-4.8997,-5.1179,-5.1682,-5.4347,-5.6518,-5.7021,-6.0278,-6.263,-6.2925,-6.3975,-6.5751,-6.8528,-6.8828,-6.9707,-7.1759,-7.1886,-7.2766,-7.4778,-7.4897,-7.4897,-7.4897,-7.4897,-7.5306,-7.6281,-7.7588,-7.8736,-7.9702,-8.1131,-8.181,-1.2638,-1.3236,-1.3591,-1.4122,-1.4299,-1.4318,-1.4543,0.0,-1.4705,-1.4959,-1.4968,-1.4968,-1.4968,-1.5146,-1.5433,-1.5772,0.0,-1.6162,0.0,0.0,0.0,-1.7071,0.0,0.0,-1.8262,-1.9301,-2.008,-2.0116,-2.0281,-2.0575,-2.114,-2.1159,-2.1168,-2.1168,-2.1168,-2.0983,-2.0408,-2.2432,-2.4419,-2.6387,-2.8218,-3.041,-3.2778,-3.2778,-3.2778,-3.2778,-3.2778,-3.2778,-3.2822,-3.3466,-3.3729,-3.397,-3.642,-3.8494,-4.0481,-4.2479,-4.4296,-4.6114,-4.6308,-4.6308,-4.6308,-4.6308,-4.6308,-4.6308,-4.6308,-4.6308,-4.6308,-4.6308,-4.6308,-4.6308,-4.6308,-4.6308,-4.6308,-4.6308,-4.6308,-4.6308,-4.6308,-4.6308,-4.6308,-4.6308,-4.6308,-4.6308,-4.6308,-4.7986,-4.9828,-5.1514,-5.3341,-5.5322,-5.7314,-5.9408,-6.149,-6.3245,-6.6314,-6.8392,-6.8828,-6.8828,-6.9707,-7.1759,-7.1886,-7.2766,-7.4778,-7.4897,-7.4897,-7.4897,-7.4897,-7.5016,-7.5102,-7.7258,-7.8312,-7.8558,-8.0706,-8.181,-1.2626,-1.323,-1.3768,-1.4122,-1.4163,-1.4084,-1.4499,0.0,-1.4456,-1.4911,-1.4968,-1.4968,-1.4968,-1.4968,-1.5017,-1.5163,-1.5374,0.0,-1.5902,0.0,0.0,-1.6901,-1.7538,0.0,0.0,-1.8923,-1.9245,-1.9367,-1.9816,-2.0046,-2.0232,-2.0603,-2.0788,-2.0788,-2.0788,-2.0964,-2.1694,-2.3698,-2.5684,-2.8038,-2.986,-3.1507,-3.2778,-3.2778,-3.2778,-3.2778,-3.2778,-3.2778,-3.2822,-3.3466,-3.4441,-3.5558,-3.6955,-3.9573,-4.23,-4.3033,-4.4668,-4.6308,-4.6308,-4.6308,-4.6308,-4.6308,-4.6465,-4.668,-4.668,-4.668,-4.6738,-4.6992,-4.707,-4.707,-4.707,-4.6875,-4.668,-4.668,-4.6484,-4.6308,-4.6308,-4.6308,-4.6308,-4.6308,-4.6308,-4.6638,-4.7814,-4.9509,-5.1179,-5.3011,-5.4835,-5.6334,-5.7473,-6.0151,-6.236,-6.3392,-6.5892,-6.7788,-6.8692,-6.9337,-7.0337,-7.1759,-7.2517,-7.3385,-7.4897,-7.4897,-7.4897,-7.4897,-7.4897,-7.4897,-7.4897,-7.7148,-7.8345,-7.8345,-8.0706,-8.181,-1.2861,-1.3343,-1.3945,-1.4299,-1.4068,-1.3933,0.0,0.0,-1.429,-1.4887,-1.4968,-1.4968,-1.4968,-1.4968,-1.4968,-1.4968,0.0,-1.539,-1.5504,-1.5731,0.0,0.0,0.0,-1.7645,-1.8149,-1.86,-1.8601,-1.8727,-1.9116,-1.9488,-1.9488,-1.9851,-2.0037,-2.0223,-2.0223,-2.0955,-2.2422,-2.4237,-2.6411,-2.895,-3.0781,-3.2232,-3.2778,-3.2778,-3.2778,-3.2778,-3.2778,-3.2822,-3.2954,-3.3495,-3.4849,-3.6945,-3.8084,-4.0481,-4.3389,-4.4118,-4.5197,-4.6308,-4.6308,-4.6308,-4.6308,-4.6308,-4.6582,-4.6953,-4.709,-4.7129,-4.7187,-4.75,-4.7578,-4.7578,-4.7578,-4.7344,-4.709,-4.6953,-4.6699,-4.6445,-4.6328,-4.6308,-4.6308,-4.6308,-4.6308,-4.6813,-4.8654,-5.0505,-5.2348,-5.3997,-5.599,-5.7473,-5.8369,-6.1163,-6.3365,-6.4265,-6.6033,-6.765,-6.8692,-6.9707,-7.0729,-7.1886,-7.2891,-7.3874,-7.4897,-7.4897,-7.4897,-7.4897,-7.4897,-7.5102,-7.5423,-7.7369,-7.8418,-7.8841,-8.0804,-8.181,-1.3081,-1.372,-1.4299,-1.4299,-1.4068,-1.3933,0.0,0.0,-1.429,-1.4887,-1.4968,-1.4968,-1.4968,-1.4968,-1.4968,-1.4968,-1.4968,0.0,-1.5463,-1.552,0.0,0.0,0.0,-1.7044,-1.7063,-1.8126,-1.8744,-1.8176,-1.8557,-1.893,-1.893,-1.893,-1.9116,-1.9674,-1.9674,-2.0399,-2.1859,-2.3881,-2.606,-2.8411,-3.041,-3.1863,-3.2778,-3.2778,-3.2778,-3.2778,-3.2778,-3.2954,-3.3261,-3.3597,-3.497,-3.7264,-3.962,-4.1761,-4.3567,-4.5568,-4.6308,-4.6308,-4.6308,-4.6308,-4.6308,-4.6308,-4.6582,-4.7012,-4.7441,-4.7578,-4.7578,-4.7578,-4.7578,-4.7578,-4.7578,-4.7578,-4.7461,-4.7031,-4.6933,-4.6816,-4.6387,-4.6308,-4.6308,-4.6308,-4.6308,-4.6813,-4.8654,-5.0505,-5.2348,-5.3997,-5.615,-5.8369,-6.0304,-6.2211,-6.4265,-6.6202,-6.7816,-6.8828,-6.8828,-6.9707,-7.0729,-7.1886,-7.2891,-7.3874,-7.4897,-7.4897,-7.4897,-7.4897,-7.4897,-7.5423,-7.6621,-7.7697,-7.8841,-8.0006,-8.1228,-8.181,-1.2791,-1.327,-1.3682,-1.3682,-1.3624,-1.386,-1.4246,0.0,-1.4493,-1.4838,-1.4968,-1.4968,-1.4968,-1.4968,-1.4968,-1.4968,-1.4968,0.0,0.0,0.0,0.0,-1.6357,-1.7279,-1.7837,-1.7819,-1.8231,-1.8363,-1.8176,-1.8363,-1.8363,-1.8363,-1.8363,-1.8744,-1.9116,-2.0399,-2.1859,-2.3321,-2.5332,-2.769,-3.041,-3.0959,-3.1863,-3.2778,-3.2778,-3.2778,-3.2778,-3.2778,-3.2954,-3.3276,-3.3597,-3.5862,-3.9234,-4.0163,-4.2479,-4.5392,-4.6114,-4.6308,-4.6308,-4.6308,-4.6308,-4.6348,-4.6641,-4.7012,-4.7461,-4.7871,-4.8008,-4.8066,-4.8379,-4.8457,-4.8457,-4.8457,-4.8223,-4.7969,-4.7832,-4.7344,-4.6894,-4.6758,-4.6504,-4.6308,-4.6308,-4.6308,-4.7314,-5.0336,-5.1347,-5.2823,-5.599,-5.7156,-5.8393,-6.076,-6.2535,-6.4265,-6.6342,-6.7953,-6.8828,-6.8828,-7.0337,-7.1503,-7.1886,-7.3508,-7.4508,-7.4897,-7.4897,-7.4897,-7.4897,-7.4897,-7.5423,-7.6621,-7.7773,-7.9291,-8.1228,-8.1585,-8.181,0.0,-1.315,-1.3403,-1.3569,-1.3661,0.0,0.0,0.0,0.0,-1.4968,-1.4968,-1.4968,-1.4968,-1.4968,-1.4968,-1.4968,-1.4968,0.0,0.0,0.0,0.0,-1.6519,0.0,0.0,-1.7875,-1.8054,-1.8176,-1.8176,-1.8176,-1.8176,-1.8176,-1.8176,-1.8363,-1.8557,-2.0575,-2.2402,-2.4054,-2.606,-2.8424,-3.0973,-3.1151,-3.1685,-3.2586,-3.2763,-3.2778,-3.2778,-3.2778,-3.3027,0.0,-3.3641,-3.6302,-4.0155,-4.0395,-4.2836,-4.6308,-4.6308,-4.6308,-4.6308,-4.6308,-4.6308,-4.6367,-4.6797,-4.7324,-4.7891,-4.832,-4.8457,-4.8516,-4.8789,-4.8867,-4.8867,-4.8867,-4.8652,-4.8418,-4.8242,-4.7676,-4.7129,-4.6973,-4.6601,-4.6308,-4.6308,-4.6813,-4.8331,-5.1179,-5.2182,-5.3834,-5.7156,-5.7813,-5.8837,-6.164,-6.3125,-6.4724,-6.7069,-6.8256,-6.8963,-6.9308,-7.0859,-7.1886,-7.1886,-7.3752,-7.4897,-7.4897,-7.4897,-7.4897,-7.4897,-7.4897,-7.5655,-7.7258,-7.8841,-8.0374,-8.181,-8.181,-8.181,0.0,0.0,-1.3501,-1.383,-1.3774,-1.3873,0.0,0.0,0.0,0.0,0.0,-1.4968,-1.4968,-1.4968,-1.4968,-1.4968,-1.4968,0.0,0.0,-1.5837,0.0,0.0,-1.7136,-1.7445,-1.7445,-1.7884,-1.8176,-1.8176,-1.8176,-1.8176,-1.8176,-1.8176,-1.8176,-1.8354,-2.0381,-2.2218,-2.4054,-2.606,-2.8424,-3.0616,-3.1151,-3.1507,-3.2054,-3.2586,-3.2778,-3.2778,-3.2778,-3.3129,-3.3729,-3.3911,-3.6427,-4.0481,-4.0662,-4.3033,-4.6308,-4.6308,-4.6308,-4.6308,-4.6308,-4.6308,-4.6367,-4.6836,-4.7558,-4.832,-4.873,-4.8867,-4.8867,-4.8867,-4.8867,-4.8867,-4.8867,-4.8867,-4.875,-4.834,-4.791,-4.7461,-4.707,-4.6621,-4.6308,-4.6308,-4.7814,-4.9488,-5.1347,-5.3176,-5.4998,-5.7314,-5.8129,-5.9766,-6.3099,-6.4002,-6.5467,-6.8528,-6.8828,-6.9203,-7.0206,-7.1247,-7.1886,-7.2013,-7.3905,-7.4897,-7.4897,-7.4897,-7.4897,-7.4897,-7.5102,-7.6167,-7.8345,-8.0607,-8.181,-8.181,-8.181,-8.181,-1.2589,0.0,-1.2869,-1.3183,-1.3447,-1.3856,0.0,0.0,0.0,0.0,0.0,0.0,0.0,0.0,0.0,-1.4968,0.0,0.0,-1.5699,0.0,0.0,-1.7737,-1.7916,-1.7989,-1.7989,-1.8103,-1.8176,-1.8176,-1.8176,-1.8176,-1.8176,-1.8176,-1.8913,-2.0381,-2.2218,-2.3504,-2.4054,-2.7521,-2.9721,-3.0616,-3.1151,-3.1507,-3.2054,-3.2586,-3.2778,-3.2778,-3.2778,-3.3129,-3.3911,-3.5331,-3.7679,-4.0662,-4.212,-4.4118,-4.6308,-4.6308,-4.6308,-4.6308,-4.6308,-4.6308,-4.6426,-4.7187,-4.8008,-4.873,-4.8828,-4.8867,-4.8867,-4.8867,-4.8867,-4.8867,-4.8867,-4.8867,-4.8828,-4.873,-4.8125,-4.7558,-4.7441,-4.6836,-4.6308,-4.6308,-4.7814,-4.9488,-5.1347,-5.3176,-5.516,-5.7813,-5.9303,-6.1063,-6.3711,-6.5182,-6.6651,-6.8528,-6.8828,-6.9203,-7.0206,-7.1247,-7.2265,-7.3015,-7.4268,-7.4897,-7.4897,-7.4897,-7.4897,-7.4897,-7.6621,-7.7806,-7.8345,-8.0607,-8.181,-8.181,-8.181,-8.181,-1.2656,-1.2811,-1.2811,-1.3274,-1.3744,-1.4207,-1.4515,0.0,0.0,0.0,0.0,0.0,0.0,0.0,0.0,0.0,-1.5228,0.0,0.0,0.0,-1.7218,-1.7746,-1.7811,-1.7908,-1.8152,-1.8176,-1.8176,-1.8176,-1.8176,-1.8176,-1.8176,-1.8176,-1.9091,-2.1121,-2.2954,-2.4419,-2.5332,-2.8449,-3.0093,-3.0272,-3.0973,-3.1507,-3.1685,-3.2409,-3.2778,-3.2778,-3.2778,-3.3665,-3.515,-3.6216,-3.8758,-4.1941,-4.3033,-4.4668,-4.6308,-4.6308,-4.6308,-4.6308,-4.6308,-4.6562,-4.6973,-4.7422,-4.8164,-4.8867,-4.8867,-4.8867,-4.8867,-4.8867,-4.8867,-4.8867,-4.8867,-4.8867,-4.8867,-4.8867,-4.8359,-4.7812,-4.7617,-4.7051,-4.6523,-4.6348,-4.8482,-5.0505,-5.1514,-5.3834,-5.6174,-5.7971,-5.9587,-6.149,-6.3857,-6.5609,-6.7069,-6.8692,-6.8828,-6.947,-7.0859,-7.1631,-7.2391,-7.3385,-7.4388,-7.4897,-7.4897,-7.4897,-7.5102,-7.5655,-7.7369,-7.8558,-7.905,-8.0936,-8.181,-8.181,-8.181,-8.181,-1.2965,-1.3155,-1.3339,-1.3752,-1.4053,-1.4515,-1.4968,0.0,0.0,0.0,0.0,0.0,0.0,-1.4968,0.0,0.0,0.0,0.0,-1.6633,-1.6771,-1.6998,-1.7453,-1.751,-1.7681,-1.8135,-1.8176,-1.8176,-1.8176,-1.8176,-1.8176,-1.8176,-1.8176,-1.9276,-2.1481,-2.3137,-2.515,-2.7341,-2.9002,-2.9913,-2.9913,-3.0794,-3.1151,-3.1137,-3.2232,-3.2601,-3.2763,-3.2763,-3.4185,-3.6559,-3.6916,-3.9635,-4.3389,-4.3745,-4.4845,-4.6308,-4.6308,-4.6308,-4.6308,-4.6367,-4.6914,-4.7598,-4.7656,-4.8203,-4.8867,-4.8867,-4.8867,-4.8867,-4.8867,-4.8867,-4.8867,-4.8867,-4.8867,-4.8867,-4.8867,-4.8535,-4.8086,-4.7676,-4.7246,-4.6797,-4.6717,-4.9488,-5.1849,-5.2015,-5.4835,-5.7339,-5.8153,-5.9895,-6.179,-6.3857,-6.5751,-6.7374,-6.8692,-6.8963,-6.984,-7.1759,-7.2013,-7.2517,-7.3508,-7.4388,-7.4897,-7.4897,-7.4897,-7.5306,-7.6281,-7.7588,-7.8769,-7.9702,-8.1131,-8.181,-8.181,-8.181,-8.181,-1.2965,-1.3632,-1.4087,-1.4284,-1.4368,-1.4515,-1.4968,0.0,0.0,0.0,0.0,0.0,0.0,-1.4968,-1.5025,0.0,0.0,-1.682,0.0,-1.7648,-1.7957,-1.8046,-1.8054,-1.8087,-1.8168,-1.8176,-1.8176,-1.8176,-1.8176,-1.8176,-1.8176,-1.8176,-1.9834,-2.3504,-2.3871,-2.5696,-2.9362,-2.9734,-2.9913,-2.9913,-3.0437,-3.0794,-3.0794,-3.1699,-3.2054,-3.2232,-3.2586,-3.4185,-3.6738,-3.8308,-4.0683,-4.3567,-4.5216,-4.6114,-4.6308,-4.6308,-4.6308,-4.6348,-4.6699,-4.7168,-4.7637,-4.7988,-4.8457,-4.8867,-4.8867,-4.8867,-4.8867,-4.8867,-4.8867,-4.8867,-4.8867,-4.8867,-4.8867,-4.8867,-4.8535,-4.8086,-4.7676,-4.7246,-4.7307,-4.8413,-5.0336,-5.2182,-5.367,-5.599,-5.7655,-5.8153,-6.1063,-6.3392,-6.4147,-6.6651,-6.8528,-6.8828,-6.9574,-7.0599,-7.1759,-7.2642,-7.363,-7.4627,-7.4778,-7.4897,-7.4897,-7.4897,-7.5016,-7.5102,-7.7258,-7.8452,-7.8558,-8.0706,-8.181,-8.181,-8.181,-8.181,-1.3252,-1.3856,-1.4445,-1.4947,-1.5098,-1.5233,-1.5553,0.0,0.0,0.0,0.0,0.0,0.0,0.0,-1.548,-1.6146,0.0,-1.6982,-1.7339,-1.7348,-1.7421,-1.7713,-1.7746,-1.7859,-1.8144,-1.8176,-1.8176,-1.8176,-1.8176,-1.8176,-1.8176,-1.8176,-2.0019,-2.3871,-2.4054,-2.5878,-2.9913,-2.9913,-2.9913,-2.9913,-3.0451,-3.0616,-3.0616,-3.1521,-3.2054,-3.2054,-3.2586,-3.4864,-3.8308,-3.9174,-4.1584,-4.5021,-4.5939,-4.6308,-4.6308,-4.6308,-4.6308,-4.6367,-4.6777,-4.7207,-4.7656,-4.8066,-4.8496,-4.8867,-4.8867,-4.8867,-4.8867,-4.8867,-4.8867,-4.8867,-4.8867,-4.8867,-4.8867,-4.8867,-4.8711,-4.8379,-4.7715,-4.7422,-4.7603,-4.8798,-5.0505,-5.2348,-5.4324,-5.631,-5.8104,-5.9612,-6.1939,-6.3975,-6.5324,-6.7374,-6.8934,-6.9574,-7.0075,-7.0959,-7.2517,-7.3139,-7.3905,-7.4897,-7.4897,-7.4897,-7.4897,-7.4897,-7.5423,-7.6734,-7.7806,-7.8874,-8.0174,-8.1262,-8.181,-8.181,-8.181,-8.181,-1.3699,-1.4114,-1.4704,-1.5289,0.0,0.0,0.0,0.0,0.0,0.0,0.0,0.0,0.0,-1.5358,0.0,-1.6836,-1.6982,-1.712,-1.7518,-1.7218,-1.7104,-1.7518,-1.7575,-1.7729,-1.8135,-1.8176,-1.8176,-1.8176,-1.8176,-1.8176,-1.8176,-1.8541,-2.0381,-2.3871,-2.4419,-2.6435,-2.9913,-2.9913,-2.9913,-2.9913,-3.0272,-3.0437,-3.0437,-3.1343,-3.1699,-3.1877,-3.2409,-3.5041,-3.8822,-3.9351,-4.1936,-4.5763,-4.6114,-4.6308,-4.6308,-4.6308,-4.6308,-4.6367,-4.6894,-4.7305,-4.7656,-4.8183,-4.8594,-4.8867,-4.8867,-4.8867,-4.8867,-4.8867,-4.8867,-4.8867,-4.8867,-4.8867,-4.8867,-4.8867,-4.8867,-4.8633,-4.7773,-4.7578,-4.8018,-4.9334,-5.0674,-5.2514,-5.516,-5.6813,-5.855,-6.0912,-6.2683,-6.4292,-6.6202,-6.7816,-6.9203,-7.0206,-7.0599,-7.1473,-7.363,-7.3752,-7.4147,-7.4897,-7.4897,-7.4897,-7.4897,-7.4897,-7.5855,-7.7915,-7.8131,-7.9291,-8.1359,-8.1681,-8.181,-8.181,-8.181,-8.181,-1.416,-1.4594,-1.5003,-1.5353,-1.5277,0.0,-1.5894,-1.5788,-1.5642,-1.5943,-1.6008,-1.5902,0.0,-1.5626,-1.5943,-1.6527,-1.7031,-1.7526,-1.8046,-1.8087,-1.8079,-1.8111,-1.8119,-1.8135,-1.8168,-1.8176,-1.8176,-1.8176,-1.8176,-1.8176,-1.8176,-1.9834,-2.185,-2.3871,-2.5878,-2.7715,-2.9913,-2.9913,-2.9913,-2.9913,-2.9913,-2.9913,-2.9913,-3.0437,-3.0973,-3.1329,-3.1877,-3.3814,-3.6916,-3.8822,-4.1055,-4.3745,-4.5568,-4.6308,-4.6308,-4.6308,-4.6308,-4.6426,-4.7246,-4.7558,-4.7715,-4.8535,-4.8828,-4.8867,-4.8867,-4.8867,-4.8867,-4.8867,-4.8867,-4.8867,-4.8867,-4.8867,-4.8867,-4.8867,-4.8867,-4.8633,-4.7773,-4.7578,-4.8353,-5.1015,-5.1682,-5.3011,-5.6813,-5.7813,-5.8887,-6.0912,-6.2831,-6.4752,-6.6342,-6.7816,-6.9203,-7.0206,-7.1247,-7.2642,-7.4627,-7.4778,-7.4778,-7.4897,-7.4897,-7.4897,-7.4897,-7.4897,-7.5423,-7.6734,-7.7806,-7.8841,-8.0106,-8.1228,-8.181,-8.181,-8.181,-8.181,-1.3999,-1.4688,-1.5353,-1.5512,-1.5407,0.0,0.0,-1.6276,-1.6219,-1.6349,-1.6381,-1.6267,-1.591,0.0,-1.6544,-1.686,-1.7364,-1.7827,-1.8135,-1.8176,-1.8176,-1.8176,-1.8176,-1.8176,-1.8176,-1.8176,-1.8176,-1.8176,-1.9276,-2.001,-2.001,-2.185,-2.3871,-2.5878,-2.6604,-2.7895,-2.9913,-2.9913,-2.9913,-2.9913,-2.9913,-2.9913,-2.9913,-3.0437,-3.0794,-3.1315,-3.1877,-3.3814,-3.6738,-3.8645,-4.1055,-4.3567,-4.5568,-4.6308,-4.6308,-4.6308,-4.6308,-4.6387,-4.6973,-4.7363,-4.7676,-4.8262,-4.8633,-4.8867,-4.8867,-4.8867,-4.8867,-4.8867,-4.8867,-4.8867,-4.8867,-4.8867,-4.8867,-4.8867,-4.8652,-4.8301,-4.7715,-4.7363,-4.8033,-5.114,-5.1682,-5.3011,-5.7314,-5.8129,-5.9328,-6.2535,-6.3711,-6.5039,-6.765,-6.8392,-6.947,-7.1118,-7.2766,-7.4026,-7.4897,-7.4897,-7.4897,-7.4897,-7.4897,-7.4897,-7.4897,-7.4897,-7.5739,-7.7588,-7.8131,-7.9187,-8.1131,-8.1585,-8.181,-8.181,-8.181,-8.181,-1.4208,-1.4863,-1.5366,-1.5488,0.0,0.0,-1.6422,-1.6495,-1.6479,-1.6698,-1.6657,-1.6503,-1.6259,-1.6519,-1.6844,-1.7071,-1.7518,-1.7908,-1.8144,-1.8176,-1.8176,-1.8176,-1.8176,-1.8176,-1.8176,-1.8176,-1.8354,-1.9099,-2.0381,-2.1306,-2.2034,-2.3871,-2.5514,-2.6966,-2.7521,-2.8629,-2.9913,-2.9913,-2.9913,-2.9913,-2.9913,-2.9913,-2.9913,-3.0272,-3.0794,-3.1315,-3.1685,-3.3279,-3.5856,-3.8485,-4.1408,-4.4473,-4.5763,-4.6308,-4.6308,-4.6308,-4.6308,-4.6367,-4.6777,-4.7207,-4.7656,-4.8066,-4.8496,-4.8867,-4.8867,-4.8867,-4.8867,-4.8867,-4.8478,-4.8088,-4.8663,-4.8867,-4.8867,-4.8867,-4.8535,-4.8086,-4.7676,-4.7246,-4.7834,-5.1097,-5.1682,-5.3176,-5.7473,-5.8731,-6.0202,-6.3711,-6.4581,-6.5892,-6.8528,-6.8828,-6.9604,-7.1631,-7.363,-7.4897,-7.4897,-7.4897,-7.4897,-7.4897,-7.4897,-7.4897,-7.4897,-7.4897,-7.597,-7.8238,-7.8345,-7.9428,-8.181,-8.181,-8.181,-8.181,-8.181,-8.181,-1.4501,-1.4838,-1.5065,0.0,0.0,0.0,-1.6422,-1.6308,-1.6251,-1.6966,-1.6828,-1.6584,-1.6584,-1.6584,-1.6698,-1.7055,-1.7413,-1.777,-1.8127,-1.8176,-1.8176,-1.8176,-1.8176,-1.8176,-1.8176,-1.8176,-1.8913,-2.0936,-2.1121,-2.2034,-2.3871,-2.5878,-2.6966,-2.6966,-2.8809,-2.9913,-2.9913,-2.9913,-2.9913,-2.9913,-2.9913,-2.9913,-2.9913,-2.9913,-3.0437,-3.1315,-3.1315,-3.2219,-3.4078,-3.7953,-4.213,-4.6308,-4.6308,-4.6308,-4.6308,-4.6308,-4.6308,-4.6367,-4.6777,-4.7207,-4.7656,-4.8066,-4.8496,-4.8867,-4.8867,-4.8867,-4.8867,-4.8848,-4.7326,-4.6354,-4.8273,-4.8848,-4.8848,-4.8848,-4.8516,-4.8086,-4.7656,-4.7226,-4.7814,-5.1097,-5.1682,-5.3176,-5.7473,-5.9587,-6.149,-6.3857,-6.5467,-6.7069,-6.8663,-6.8828,-6.9574,-7.1631,-7.3752,-7.4897,-7.4897,-7.4897,-7.4897,-7.4897,-7.4897,-7.4897,-7.4897,-7.4897,-7.597,-7.8238,-7.8345,-7.9428,-8.181,-8.181,-8.181,-8.181,-8.181,-8.181,-1.4348,-1.5106,0.0,-1.5553,0.0,0.0,0.0,-1.6503,0.0,-1.7015,-1.7023,-1.6877,-1.6625,-1.6787,-1.699,-1.7096,-1.7413,-1.777,-1.8127,-1.8176,-1.8176,-1.8176,-1.8176,-1.8176,-1.8176,-1.8176,-1.8354,-1.9099,-2.1665,-2.3321,-2.4054,-2.716,-2.9002,-2.9002,-2.9554,-2.9913,-2.9913,-2.9913,-2.9913,-2.9913,-2.9913,-2.9913,-2.9913,-2.9913,-3.0272,-3.0794,-3.1151,-3.2728,-3.5676,-4.029,-4.3895,-4.6308,-4.6308,-4.6308,-4.6308,-4.6308,-4.6308,-4.6328,-4.6445,-4.6973,-4.7598,-4.7734,-4.8262,-4.8867,-4.8867,-4.8867,-4.8663,-4.712,-4.6354,-4.5979,-4.6542,-4.6541,-4.6687,-4.8013,-4.8066,-4.7637,-4.7207,-4.7814,-4.8991,-5.1201,-5.268,-5.4487,-5.7813,-5.9587,-6.149,-6.3857,-6.5467,-6.7317,-6.9545,-7.0468,-7.1503,-7.2766,-7.4147,-7.4897,-7.4897,-7.4897,-7.4897,-7.4897,-7.4897,-7.4897,-7.4897,-7.4897,-7.597,-7.8238,-7.8345,-7.9428,-8.181,-8.181,-8.181,-8.181,-8.181,-8.181,-1.4541,0.0,0.0,-1.5918,-1.6259,-1.6617,-1.6755,0.0,0.0,-1.7063,-1.7112,-1.7047,-1.6828,-1.6966,-1.7161,-1.7299,-1.7502,-1.777,-1.8127,-1.8176,-1.8176,-1.8176,-1.8176,-1.8176,-1.8176,-1.8176,-1.8913,-2.0381,-2.277,-2.4602,-2.6253,-2.8629,-2.9913,-2.9913,-2.9913,-2.9913,-2.9913,-2.9913,-2.9913,-2.9913,-2.9913,-2.9913,-2.9913,-2.9913,-3.0093,-3.0629,-3.1581,-3.4023,-3.763,-4.089,-4.3941,-4.6308,-4.6308,-4.6308,-4.6308,-4.6308,-4.6308,-4.6308,-4.6308,-4.6758,-4.7344,-4.7519,-4.8047,-4.8633,-4.8808,-4.8867,-4.8663,-4.7326,-4.5792,-4.4984,-4.6355,-4.537,-4.4629,-4.7453,-4.7754,-4.7246,-4.6992,-4.7943,-4.9658,-5.1492,-5.3318,-5.5483,-5.8104,-6.0329,-6.236,-6.4002,-6.6061,-6.8169,-7.0075,-7.1247,-7.2265,-7.3262,-7.4268,-7.4897,-7.4897,-7.4897,-7.4897,-7.4897,-7.4897,-7.4897,-7.4897,-7.4897,-7.597,-7.8238,-7.8345,-7.9428,-8.181,-8.181,-8.181,-8.181,-8.181,-8.181,-1.5082,0.0,0.0,-1.6422,-1.66,0.0,-1.7039,-1.7112,-1.7112,-1.7112,-1.7112,-1.7112,-1.7112,-1.7112,-1.7226,-1.7583,-1.764,-1.777,-1.8127,-1.8176,-1.8176,-1.8176,-1.8176,-1.8176,-1.8176,-1.8176,-1.9648,-2.3504,-2.3871,-2.5696,-2.9362,-2.9734,-2.9913,-2.9913,-2.9913,-2.9913,-2.9913,-2.9913,-2.9913,-2.9913,-2.9913,-2.9913,-2.9913,-2.9913,-3.0272,-3.0836,-3.2518,-3.563,-3.9578,-4.0352,-4.3033,-4.6308,-4.6308,-4.6308,-4.6308,-4.6308,-4.6308,-4.6308,-4.6308,-4.6582,-4.6992,-4.7204,-4.7612,-4.7858,-4.8284,-4.8216,-4.8216,-4.803,-4.5343,-4.3158,-4.6739,-4.4724,-4.3012,-4.7155,-4.75,-4.6914,-4.6875,-4.8096,-4.9828,-5.1971,-5.3811,-5.6126,-5.8681,-6.149,-6.3684,-6.4436,-6.693,-6.9203,-7.0337,-7.1247,-7.2265,-7.3385,-7.4388,-7.4897,-7.4897,-7.4897,-7.4897,-7.4897,-7.4897,-7.4897,-7.4897,-7.4897,-7.597,-7.8238,-7.8345,-7.9428,-8.181,-8.181,-8.181,-8.181,-8.181,-8.181,0.0,0.0,0.0,0.0,-1.6787,-1.7015,-1.7096,-1.7112,-1.7112,-1.7112,-1.7112,-1.7112,-1.7112,-1.7112,-1.7226,-1.7583,-1.764,-1.777,-1.8127,-1.8176,-1.8176,-1.8176,-1.8176,-1.8176,-1.8176,-1.8176,-1.9091,-2.1481,-2.3137,-2.515,-2.7521,-2.9002,-2.9913,-2.9913,-2.9913,-2.9913,-2.9913,-2.9913,-2.9913,-2.9913,-2.9913,-2.9913,-2.9913,-2.9913,-3.0437,-3.1357,-3.3738,-3.6511,-3.9578,-4.18,-4.4118,-4.6308,-4.6308,-4.6308,-4.6308,-4.6308,-4.6308,-4.6308,-4.6308,-4.6582,-4.6578,-4.5187,-4.5125,-4.5169,-4.407,-4.3803,-4.3427,-4.1727,-4.0585,-4.0503,-4.2563,-4.2064,-4.2224,-4.6274,-4.707,-4.6836,-4.6504,-4.8887,-5.1325,-5.2138,-5.4812,-5.7898,-6.0329,-6.2238,-6.4436,-6.7374,-6.8392,-6.947,-7.1375,-7.1759,-7.2642,-7.4388,-7.4778,-7.4897,-7.4897,-7.4897,-7.4897,-7.4897,-7.4897,-7.4897,-7.4897,-7.4897,-7.597,-7.8238,-7.8345,-7.9428,-8.181,-8.181,-8.181,-8.181,-8.181,-8.181,0.0,0.0,0.0,0.0,0.0,-1.7112,-1.7112,-1.7112,-1.7112,-1.7112,-1.7112,-1.7112,-1.7112,-1.7112,-1.7201,-1.7478,-1.7591,-1.7737,-1.8014,-1.8127,-1.8176,-1.8176,-1.8176,-1.8176,-1.8176,-1.8176,-1.9462,-2.2218,-2.3504,-2.5332,-2.8256,-2.9362,-2.9913,-2.9913,-2.9913,-2.9913,-2.9913,-2.9913,-2.9913,-2.9913,-2.9913,-2.9913,-2.9913,-2.9913,-3.0272,-3.1,-3.3032,-3.5794,-3.9402,-4.1247,-4.3745,-4.6308,-4.6308,-4.6308,-4.6308,-4.6308,-4.6308,-4.6114,-4.5197,-4.4977,-4.5008,-4.3181,-4.2833,-4.2881,-4.2173,-4.2107,-4.1919,-4.0791,-3.9655,-3.9558,-4.2162,-4.1936,-4.1926,-4.5757,-4.6621,-4.6738,-4.7528,-4.9828,-5.216,-5.3624,-5.6126,-5.8706,-6.1089,-6.3419,-6.5751,-6.8392,-6.9203,-7.0104,-7.1631,-7.2265,-7.3139,-7.4778,-7.4897,-7.4897,-7.4897,-7.4897,-7.4897,-7.4897,-7.4897,-7.4897,-7.4897,-7.4897,-7.597,-7.8238,-7.8345,-7.9428,-8.181,-8.181,-8.181,-8.181,-8.181,-8.181,0.0,0.0,0.0,0.0,0.0,0.0,-1.7112,-1.7112,-1.7112,-1.7112,-1.7112,-1.7112,-1.7112,-1.7112,-1.7169,-1.7356,-1.7502,-1.7672,-1.7892,-1.8038,-1.8144,-1.8168,-1.8176,-1.8176,-1.8176,-1.8541,-2.0196,-2.3687,-2.4237,-2.606,-2.9734,-2.9913,-2.9913,-2.9913,-2.9913,-2.9913,-2.9913,-2.9913,-2.9913,-2.9913,-2.9913,-2.9913,-2.9913,-2.9913,-3.0093,-3.0657,-3.1805,-3.4728,-3.8855,-3.9993,-4.2836,-4.6308,-4.6308,-4.6308,-4.6308,-4.6308,-4.6114,-4.5568,-4.3941,-4.3211,-4.2712,-4.1023,-4.0576,-4.046,-4.068,-4.0611,-4.0611,-4.0611,-3.947,-3.881,-4.2508,-4.2238,-4.1786,-4.5469,-4.6308,-4.6813,-4.8654,-5.0505,-5.2492,-5.5113,-5.7558,-6.0074,-6.2264,-6.5039,-6.7374,-6.8663,-6.9707,-7.0729,-7.1759,-7.2766,-7.3752,-7.4778,-7.4897,-7.4897,-7.4897,-7.4897,-7.4897,-7.4897,-7.4897,-7.4897,-7.4897,-7.5102,-7.6199,-7.8238,-7.8345,-7.9428,-8.181,-8.181,-8.181,-8.181,-8.181,-8.181,0.0,0.0,0.0,0.0,0.0,0.0,0.0,0.0,-1.7112,0.0,-1.7112,-1.7112,-1.7112,-1.7112,-1.7169,-1.7356,-1.7404,-1.7534,-1.7867,-1.794,-1.8005,-1.816,-1.8176,-1.8176,-1.8176,-1.9648,-2.1665,-2.3871,-2.5696,-2.7521,-2.9734,-2.9913,-2.9913,-2.9913,-2.9913,-2.9913,-2.9913,-2.9913,-2.9913,-2.9913,-2.9913,-2.9913,-2.9913,-2.9913,-3.0093,-3.0657,-3.1805,-3.4728,-3.8855,-3.9993,-4.2836,-4.6308,-4.6308,-4.6308,-4.6308,-4.6308,-4.5197,-4.3745,-4.3567,-4.23,-4.0498,-3.8726,-3.8007,-3.7903,-3.6412,-3.6156,-3.6156,-3.6156,-3.5966,-3.6443,-4.0106,-4.0748,-4.1454,-4.5412,-4.6308,-4.6813,-4.8654,-5.0653,-5.2966,-5.5113,-5.9896,-6.3857,-6.5609,-6.7374,-6.8528,-6.8828,-6.9707,-7.0729,-7.1759,-7.2766,-7.3752,-7.4778,-7.4897,-7.4897,-7.4897,-7.4897,-7.4897,-7.4897,-7.4897,-7.4897,-7.4897,-7.5855,-7.6925,-7.8238,-7.8345,-7.9428,-8.181,-8.181,-8.181,-8.181,-8.181,-8.181,0.0,0.0,0.0,0.0,0.0,0.0,0.0,0.0,-1.7112,-1.7112,-1.7112,-1.7112,-1.7112,-1.7112,-1.7136,-1.7218,-1.7323,-1.7478,-1.7729,-1.7851,-1.7981,-1.8152,-1.8176,-1.8541,-1.9648,-2.0566,-2.2402,-2.5514,-2.6423,-2.7895,-2.9734,-2.9913,-2.9913,-2.9913,-2.9913,-2.9913,-2.9913,-2.9913,-2.9913,-2.9913,-2.9913,-2.9913,-2.9913,-2.9913,-3.0093,-3.0299,-3.2503,-3.545,-3.8502,-4.089,-4.3586,-4.6308,-4.6308,-4.5568,-4.4668,-4.4668,-4.3389,-4.1581,-4.0481,-3.9573,-3.8494,-3.6684,-3.5972,-3.5801,-3.5044,-3.49,-3.49,-3.49,-3.5622,-3.7226,-3.9805,-4.1384,-4.2836,-4.5568,-4.7141,-4.8311,-5.0484,-5.1638,-5.3579,-5.7908,-6.1738,-6.4752,-6.6202,-6.7816,-6.8934,-6.9574,-7.0468,-7.1631,-7.2642,-7.363,-7.4388,-7.4897,-7.4897,-7.4897,-7.4897,-7.4897,-7.4897,-7.4897,-7.4897,-7.4897,-7.4897,-7.597,-7.7148,-7.8312,-7.8946,-8.004,-8.181,-8.181,-8.181,-8.181,-8.181,-8.181,0.0,0.0,0.0,0.0,0.0,0.0,0.0,0.0,-1.7112,0.0,-1.7112,-1.7112,-1.7112,-1.7112,-1.7112,-1.7112,-1.7226,-1.738,-1.7551,-1.7697,-1.7867,-1.8087,-1.8111,-1.8862,-2.0927,-2.1481,-2.331,-2.6785,-2.7521,-2.8436,-2.9734,-2.9913,-2.9913,-2.9913,-2.9913,-2.9913,-2.9913,-2.9913,-2.9913,-2.9913,-2.9913,-2.9913,-2.9913,-2.9913,-3.0093,-3.0822,-3.3393,-3.5809,-3.8324,-4.1443,-4.4137,-4.6289,-4.5763,-4.4668,-4.3389,-4.2854,-4.1384,-3.9573,-3.8127,-3.7223,-3.6684,-3.5256,-3.471,-3.471,-3.471,-3.471,-3.4882,-3.5241,-3.6498,-3.8127,-4.0662,-4.23,-4.3923,-4.6444,-4.7986,-4.9828,-5.247,-5.3624,-5.5503,-6.0835,-6.3125,-6.4752,-6.679,-6.809,-6.9203,-7.0206,-7.1247,-7.2265,-7.3262,-7.4268,-7.4897,-7.4897,-7.4897,-7.4897,-7.4897,-7.4897,-7.4897,-7.4897,-7.4897,-7.4984,-7.5337,-7.6395,-7.7555,-7.8702,-7.9905,-8.0902,-8.181,-8.181,-8.181,-8.181,-8.181,-8.181,0.0,0.0,0.0,0.0,0.0,0.0,0.0,0.0,-1.7112,-1.7112,-1.7112,-1.7112,-1.7112,-1.7112,-1.7112,-1.7112,-1.712,-1.7185,-1.7372,-1.7413,-1.7543,-1.7892,-1.7932,-1.8727,-2.0917,-2.277,-2.4785,-2.6785,-2.8629,-2.9734,-2.9913,-2.9913,-2.9913,-2.9913,-2.9913,-2.9913,-2.9913,-2.9913,-2.9913,-2.9913,-2.9913,-2.9913,-2.9913,-2.9913,-3.0781,-3.2543,-3.3933,-3.5809,-3.8324,-4.1443,-4.4137,-4.6114,-4.4296,-4.3567,-4.3211,-4.1384,-3.9391,-3.7759,-3.7575,-3.6313,-3.4882,-3.4695,-3.471,-3.471,-3.471,-3.471,-3.5069,-3.6869,-3.7575,-3.8494,-4.23,-4.3389,-4.4258,-4.7946,-4.8997,-5.0146,-5.4441,-5.7083,-5.9587,-6.3272,-6.4147,-6.5182,-6.809,-6.8692,-6.9203,-7.0206,-7.1247,-7.2265,-7.3262,-7.4268,-7.4897,-7.4897,-7.4897,-7.4897,-7.4897,-7.4897,-7.4897,-7.4897,-7.4897,-7.5423,-7.6508,-7.7588,-7.8736,-7.9905,-8.1131,-8.1681,-8.181,-8.181,-8.181,-8.181,-8.181,-8.181,0.0,0.0,0.0,0.0,0.0,0.0,0.0,-1.695,-1.7112,-1.7112,-1.7112,-1.7112,-1.7112,-1.7112,-1.7112,-1.7112,-1.7112,-1.7177,-1.7364,-1.7388,-1.7478,-1.7713,-1.8923,-2.0646,-2.2546,-2.4685,-2.6797,-2.8629,-2.9541,-2.9913,-2.9913,-2.9913,-2.9913,-2.9913,-2.9913,-2.9913,-2.9913,-2.9913,-2.9913,-2.9913,-2.9913,-3.0616,-3.1657,-3.1657,-3.269,-3.4638,-3.685,-3.8602,-4.0105,-4.2901,-4.5059,-4.6114,-4.4118,-4.2658,-4.1203,-3.9391,-3.7407,-3.5786,-3.5786,-3.5241,-3.471,-3.471,-3.471,-3.471,-3.471,-3.471,-3.5069,-3.7038,-3.8494,-4.0118,-4.2658,-4.4296,-4.623,-5.0125,-5.2138,-5.4418,-5.8377,-5.9998,-6.1391,-6.3711,-6.5039,-6.6342,-6.8392,-6.9337,-7.0075,-7.1118,-7.2265,-7.3262,-7.4268,-7.4627,-7.4897,-7.4897,-7.4897,-7.4897,-7.4897,-7.4897,-7.4897,-7.4897,-7.4897,-7.5423,-7.6508,-7.7665,-7.8841,-8.0006,-8.1228,-8.181,-8.181,-8.181,-8.181,-8.181,-8.181,-8.181,-1.522,0.0,0.0,0.0,0.0,0.0,0.0,0.0,-1.6966,-1.7088,-1.7112,-1.7112,-1.7112,-1.7112,-1.7112,-1.7112,-1.7112,-1.7153,-1.7274,-1.7291,-1.7356,-1.7534,-1.9266,-2.137,-2.3677,-2.5646,-2.7615,-2.9721,-2.9913,-2.9913,-2.9913,-2.9913,-2.9913,-2.9913,-2.9913,-2.9913,-2.9913,-3.0616,-3.0781,-3.0781,-3.1479,-3.2351,-3.3571,-3.3571,-3.4781,-3.6707,-3.8631,-4.0052,-4.1155,-4.3846,-4.5121,-4.5197,-4.3211,-4.1203,-3.9225,-3.7407,-3.5786,-3.471,-3.471,-3.471,-3.471,-3.471,-3.471,-3.471,-3.471,-3.5241,-3.6143,-3.7943,-3.9937,-4.1941,-4.3941,-4.6385,-4.9147,-5.2636,-5.5113,-5.751,-6.0608,-6.1516,-6.2413,-6.4608,-6.5751,-6.693,-6.8528,-6.9574,-7.0729,-7.1759,-7.2766,-7.3752,-7.4778,-7.4897,-7.4897,-7.4897,-7.4897,-7.4897,-7.4897,-7.4897,-7.4897,-7.4897,-7.522,-7.597,-7.7148,-7.8312,-7.9361,-8.0573,-8.1359,-8.181,-8.181,-8.181,-8.181,-8.181,-8.181,-8.181,0.0,0.0,0.0,0.0,0.0,0.0,-1.6389,0.0,-1.6665,-1.7023,-1.7096,-1.7096,-1.7112,-1.7112,-1.7112,-1.7112,-1.7112,-1.7112,-1.7112,-1.7112,-1.7177,-1.7534,-1.9133,-2.1225,-2.3623,-2.5472,-2.7583,-2.9694,-2.99,-2.99,-2.9913,-2.9913,-2.9913,-2.9913,-2.9913,-2.9913,-2.9913,-3.182,-3.269,-3.269,-3.4607,-3.5494,-3.5652,-3.5652,-3.6863,-3.8955,-3.9493,-4.0207,-4.1119,-4.3895,-4.431,-4.3211,-4.1203,-3.9391,-3.7407,-3.5428,-3.471,-3.471,-3.471,-3.471,-3.471,-3.471,-3.471,-3.471,-3.471,-3.6143,-3.7943,-3.9937,-4.1941,-4.3923,-4.5939,-4.9297,-5.2801,-5.5113,-5.74,-5.9458,-6.0912,-6.1666,-6.2857,-6.592,-6.6483,-6.7069,-6.8528,-6.9707,-7.0729,-7.1759,-7.2766,-7.3783,-7.4778,-7.4897,-7.4897,-7.4897,-7.4897,-7.4897,-7.4897,-7.4897,-7.4897,-7.4897,-7.597,-7.7148,-7.8205,-7.9361,-8.0573,-8.181,-8.181,-8.181,-8.181,-8.181,-8.181,-8.181,-8.181,-8.181,-1.4952,0.0,0.0,0.0,0.0,0.0,0.0,0.0,-1.6292,-1.6657,-1.673,-1.6803,-1.7063,-1.7112,-1.7112,-1.7112,-1.7112,-1.7112,-1.7112,-1.8322,-1.9204,-1.9259,-2.2183,-2.4429,-2.5091,-2.7072,-2.8745,-2.9579,-2.9606,-2.97,-2.99,-2.9913,-2.9913,-2.9913,-2.9913,-2.9913,-2.9913,-3.182,-3.269,-3.269,-3.4607,-3.6345,-3.7895,-3.7895,-3.9278,-4.1528,-4.1975,-4.2425,-4.3027,-4.4492,-4.431,-4.3211,-4.1203,-3.9391,-3.7407,-3.5428,-3.471,-3.471,-3.471,-3.471,-3.471,-3.471,-3.471,-3.471,-3.471,-3.6143,-3.7943,-3.9937,-4.1941,-4.4258,-4.7753,-5.0463,-5.2966,-5.5413,-5.827,-6.1063,-6.2978,-6.4292,-6.5467,-6.6342,-6.7374,-6.8499,-6.9678,-7.0729,-7.1759,-7.2891,-7.3874,-7.4627,-7.4897,-7.4897,-7.4897,-7.4897,-7.4897,-7.4897,-7.4897,-7.4897,-7.4897,-7.4897,-7.597,-7.7148,-7.8205,-7.9361,-8.0573,-8.181,-8.181,-8.181,-8.181,-8.181,-8.181,-8.181,-8.181,-8.181,-1.4968,-1.4968,-1.4968,-1.4968,0.0,0.0,-1.5666,-1.5894,-1.6186,-1.6698,-1.6803,-1.6868,-1.7071,-1.7112,-1.7279,-1.8147,-1.8322,-1.8322,-1.8322,-1.9186,-2.0221,-2.0905,-2.3787,-2.5651,-2.5759,-2.7689,-2.8978,-2.9272,-2.9299,-2.9771,-3.0928,-3.0191,-3.0616,-3.2189,-3.1479,-3.1479,-3.2189,-3.4097,-3.4956,-3.513,-3.688,-3.8597,-4.0144,-4.0144,-4.1005,-4.2735,-4.2902,-4.3465,-4.391,-4.3709,-4.2987,-4.171,-4.0067,-3.8127,-3.6328,-3.5069,-3.471,-3.471,-3.471,-3.471,-3.471,-3.471,-3.471,-3.4882,-3.56,-3.7223,-3.9209,-4.1203,-4.369,-4.6848,-5.042,-5.2591,-5.472,-5.7751,-5.9972,-6.2115,-6.4581,-6.592,-6.6651,-6.7374,-6.847,-6.9574,-7.0206,-7.1473,-7.2766,-7.3262,-7.4268,-7.4897,-7.4897,-7.4897,-7.4897,-7.4897,-7.4897,-7.4897,-7.4897,-7.4897,-7.5102,-7.5539,-7.6734,-7.7806,-7.8946,-8.014,-8.1131,-8.181,-8.181,-8.181,-8.181,-8.181,-8.181,-8.181,-8.181,-8.181,-1.4976,-1.4968,-1.4968,-1.4968,-1.4968,0.0,-1.578,-1.5926,-1.6113,-1.6795,-1.6933,-1.6942,-1.6982,-1.699,-1.7505,-1.9195,-1.9587,-1.999,-2.0211,-2.0385,-2.1078,-2.2794,-2.452,-2.5811,-2.6056,-2.7667,-2.8671,-2.9138,-2.9526,-3.0358,-3.2193,-3.1105,-3.1969,-3.5304,-3.3907,-3.3731,-3.5494,-3.7414,-3.8289,-3.8289,-4.0198,-4.1378,-4.1714,-4.1863,-4.2383,-4.3234,-4.2902,-4.3446,-4.4149,-4.1915,-4.0454,-3.9737,-3.8116,-3.6452,-3.4651,-3.4695,-3.471,-3.471,-3.471,-3.471,-3.471,-3.471,-3.4882,-3.5428,-3.7038,-3.9026,-4.1203,-4.3549,-4.6848,-5.0294,-5.3086,-5.5043,-5.7121,-6.0886,-6.1992,-6.2857,-6.5892,-6.6622,-6.7207,-6.8663,-6.9707,-7.0337,-7.0468,-7.2109,-7.3385,-7.3508,-7.4268,-7.4897,-7.4897,-7.4897,-7.4897,-7.4897,-7.4897,-7.4897,-7.4897,-7.5016,-7.5539,-7.6508,-7.7806,-7.8979,-8.0006,-8.1131,-8.181,-8.181,-8.181,-8.181,-8.181,-8.181,-8.181,-8.181,-8.181,-8.181,-1.4732,-1.4968,-1.4968,-1.4968,-1.4968,0.0,-1.5147,-1.5179,-1.5301,-1.574,-1.5829,-1.5918,-1.6202,-1.6251,-1.6369,-1.6542,-1.8217,-1.9997,-2.188,-2.3309,-2.452,-2.4861,-2.6588,-2.7643,-2.7695,-2.8061,-2.9015,-3.0666,-3.2259,-3.3056,-3.2366,-3.3324,-3.4343,-3.5478,-3.513,-3.513,-3.5494,-3.7414,-3.8289,-3.8289,-4.0518,-4.1882,-4.2235,-4.2735,-4.3048,-4.3546,-4.2011,-4.2402,-4.3516,-3.9011,-3.8008,-3.9345,-3.7743,-3.6097,-3.4344,-3.4607,-3.471,-3.471,-3.471,-3.471,-3.471,-3.471,-3.5786,-3.7038,-3.7407,-4.0118,-4.3549,-4.7368,-4.9276,-5.0968,-5.4743,-5.5895,-5.7169,-6.0886,-6.2857,-6.4292,-6.6061,-6.7512,-6.8635,-6.981,-7.0206,-7.0569,-7.1503,-7.2642,-7.363,-7.4508,-7.4778,-7.4897,-7.4897,-7.4897,-7.4897,-7.4897,-7.4897,-7.4897,-7.4897,-7.5739,-7.6395,-7.6621,-7.8558,-7.9837,-8.0006,-8.1131,-8.181,-8.181,-8.181,-8.181,-8.181,-8.181,-8.181,-8.181,-8.181,-8.181,-1.4593,-1.4968,-1.4968,-1.4968,-1.4968,0.0,0.0,-1.5244,-1.5342,-1.5707,-1.578,-1.5967,-1.6863,-1.7034,-1.745,-1.8996,-2.0638,-2.2201,-2.3889,-2.4878,-2.5726,-2.6758,-2.7617,-2.8136,-2.8136,-2.8978,-3.036,-3.2161,-3.3302,-3.4255,-3.443,-3.4604,-3.5727,-3.7981,-3.7129,-3.7213,-3.8272,-3.9353,-4.0143,-4.0314,-4.1505,-4.2368,-4.3041,-4.3164,-4.2882,-4.2345,-4.1341,-4.0987,-4.0632,-3.7235,-3.6386,-3.7315,-3.5903,-3.4953,-3.4241,-3.4402,-3.4563,-3.471,-3.471,-3.471,-3.471,-3.471,-3.5972,-3.7759,-3.8661,-4.2585,-4.7021,-4.9276,-5.1616,-5.3765,-5.5895,-5.78,-5.964,-6.2386,-6.4147,-6.5751,-6.7374,-6.8227,-6.9068,-7.0075,-7.0729,-7.1503,-7.2517,-7.3508,-7.4268,-7.4778,-7.4897,-7.4897,-7.4897,-7.4897,-7.4897,-7.4897,-7.4897,-7.4897,-7.4897,-7.597,-7.6813,-7.7446,-7.9083,-8.0274,-8.0902,-8.1455,-8.181,-8.181,-8.181,-8.181,-8.181,-8.181,-8.181,-8.181,-8.181,-8.181,-1.4144,-1.4806,-1.4968,-1.4968,-1.4968,-1.5041,0.0,0.0,0.0,-1.578,-1.5813,-1.6224,0.0,0.0,-1.873,-2.1532,-2.2948,-2.4037,-2.467,-2.5122,-2.5966,-2.7543,-2.8298,-2.8601,-2.8479,-3.0432,-3.2125,-3.3381,-3.4016,-3.5178,-3.6577,-3.5692,-3.686,-4.0327,-3.905,-3.9059,-4.095,-4.1523,-4.1952,-4.2366,-4.2518,-4.3008,-4.3664,-4.3151,-4.2105,-4.0987,-4.0313,-3.9278,-3.8066,-3.5842,-3.5162,-3.5415,-3.4113,-3.3802,-3.4036,-3.4095,-3.4329,-3.4607,-3.4607,-3.4651,-3.471,-3.5054,-3.6869,-3.9043,-4.1203,-4.5434,-4.9955,-5.0631,-5.3601,-5.6558,-5.7667,-5.9819,-6.2264,-6.4147,-6.5609,-6.693,-6.8528,-6.8963,-6.9337,-7.0468,-7.1503,-7.2391,-7.3262,-7.4268,-7.4897,-7.4897,-7.4897,-7.4897,-7.4897,-7.4897,-7.4897,-7.4897,-7.4897,-7.5016,-7.522,-7.6281,-7.7446,-7.8525,-7.9702,-8.077,-8.181,-8.181,-8.181,-8.181,-8.181,-8.181,-8.181,-8.181,-8.181,-8.181,-8.181,-8.181,-1.2324,-1.3876,-1.4968,-1.4968,-1.4968,-1.4976,-1.5017,0.0,-1.5041,-1.5082,0.0,-1.5303,-1.6766,0.0,0.0,-1.856,-2.0738,-2.2247,-2.197,-2.3945,-2.575,-2.6172,-2.8804,-3.0238,-2.9836,-3.2475,-3.4024,-3.3512,-3.5588,-3.6816,-3.6525,-3.7951,-3.8978,-3.9905,-4.0106,-4.0326,-4.0547,-4.1249,-4.1975,-4.2366,-4.3196,-4.3515,-4.3683,-4.2406,-4.1505,-4.0819,-3.7569,-3.688,-3.7895,-3.4478,-3.3968,-3.5399,-3.3858,-3.3319,-3.3393,-3.3685,-3.3993,-3.4271,-3.4271,-3.4461,-3.5069,-3.6684,-3.9755,-4.3211,-4.5549,-4.8138,-5.0631,-5.2591,-5.4905,-5.751,-6.0431,-6.1516,-6.2561,-6.5467,-6.6342,-6.693,-6.8528,-6.9441,-7.0468,-7.1503,-7.2517,-7.3262,-7.3385,-7.4268,-7.4897,-7.4897,-7.4897,-7.4897,-7.4897,-7.4897,-7.4897,-7.4897,-7.4897,-7.5337,-7.6281,-7.7479,-7.863,-7.9702,-8.0902,-8.1681,-8.181,-8.181,-8.181,-8.181,-8.181,-8.181,-8.181,-8.181,-8.181,-8.181,-8.181,-8.181,-1.3538,-1.3863,-1.3811,-1.4708,-1.4338,-1.396,-1.4855,-1.4968,-1.4935,-1.4838,0.0,0.0,0.0,0.0,0.0,0.0,-2.2262,-2.3088,-2.2345,-2.4101,-2.5558,-2.5678,-2.7776,-3.0136,-3.2491,-3.3942,-3.5207,-3.6281,-3.7072,-3.754,-3.7686,-3.8399,-3.908,-3.9483,-3.9667,-4.0032,-4.0435,-4.1212,-4.2124,-4.2835,-4.3668,-4.3538,-4.2799,-4.2044,-4.0268,-3.8045,-3.6269,-3.5336,-3.5003,-3.3455,-3.3293,-3.3822,-3.3265,-3.3085,-3.3261,-3.3393,-3.3656,-3.3934,-3.3934,-3.474,-3.6308,-3.9565,-4.2103,-4.4435,-4.7601,-5.0294,-5.2591,-5.4557,-5.7279,-6.0125,-6.1365,-6.3152,-6.4895,-6.6202,-6.7207,-6.8198,-6.9441,-6.9943,-7.0829,-7.2517,-7.3139,-7.363,-7.4147,-7.4627,-7.4897,-7.4897,-7.4897,-7.4897,-7.4897,-7.4897,-7.4897,-7.4897,-7.5539,-7.6085,-7.6621,-7.8205,-7.9497,-8.0006,-8.1131,-8.181,-8.181,-8.181,-8.181,-8.181,-8.181,-8.181,-8.181,-8.181,-8.181,-8.181,-8.181,-8.181,-1.334,-1.3239,-1.3027,-1.4585,-1.422,-1.3548,-1.4716,-1.4927,-1.4862,-1.4732,-1.5808,0.0,0.0,0.0,-2.1241,-2.2506,0.0,-2.3581,-2.2846,-2.3915,-2.4823,-2.4903,-2.7158,-3.0463,-3.4778,-3.5016,-3.5775,-3.8079,-3.7558,-3.7539,-3.8585,-3.864,-3.8768,-3.9061,-3.9171,-3.9535,-4.0335,-4.1301,-4.2269,-4.3068,-4.3575,-4.3098,-4.2006,-4.094,-3.8816,-3.6002,-3.5222,-3.4043,-3.2778,-3.2778,-3.2778,-3.2778,-3.2778,-3.291,-3.3115,-3.3115,-3.3319,-3.3597,-3.4126,-3.5942,-3.8535,-4.1828,-4.3853,-4.584,-4.8877,-5.1752,-5.4396,-5.5984,-5.9023,-6.1816,-6.2413,-6.4436,-6.6651,-6.7069,-6.8198,-6.9441,-7.0206,-7.0699,-7.1601,-7.3139,-7.363,-7.4026,-7.4778,-7.4897,-7.4897,-7.4897,-7.4897,-7.4897,-7.4897,-7.4897,-7.4984,-7.5306,-7.6085,-7.6813,-7.7479,-7.905,-8.0106,-8.044,-8.1359,-8.181,-8.181,-8.181,-8.181,-8.181,-8.181,-8.181,-8.181,-8.181,-8.181,-8.181,-8.181,-8.181,-0.9983,-1.1474,-1.3027,-1.4585,-1.4976,-1.4976,-1.4968,-1.4838,-1.4716,-1.4708,-1.5597,-1.6894,-1.846,-1.9689,-2.097,-2.2202,-2.2699,0.0,0.0,-2.2726,-2.306,-2.3367,-2.7251,-3.1513,-3.5812,-3.5413,-3.5614,-3.7338,-3.6714,-3.6952,-3.8566,-3.864,-3.8658,-3.8658,-3.9025,-3.9406,-3.9925,-4.1197,-4.2315,-4.3068,-4.2515,-4.2197,-4.2024,-3.8658,-3.6833,-3.5842,-3.4097,-3.3056,-3.2778,-3.2778,-3.2778,-3.2778,-3.2778,-3.2778,-3.2793,-3.2793,-3.2983,-3.3426,-3.5342,-3.8534,-4.2024,-4.2543,-4.5072,-4.8191,-4.9839,-5.2574,-5.5573,-5.6574,-5.9203,-6.2115,-6.3711,-6.5324,-6.693,-6.8392,-6.9574,-7.0206,-7.0337,-7.1855,-7.3262,-7.3385,-7.4147,-7.4897,-7.4897,-7.4897,-7.4897,-7.4897,-7.4897,-7.4897,-7.4897,-7.4897,-7.5337,-7.6395,-7.6621,-7.7446,-7.9702,-8.0006,-8.0474,-8.1681,-8.181,-8.181,-8.181,-8.181,-8.181,-8.181,-8.181,-8.181,-8.181,-8.181,-8.181,-8.181,-8.181,-8.181,-1.1629,-1.1872,-1.2069,-1.4677,-1.454,-1.3909,-1.4621,-1.4749,-1.4935,-1.5709,-1.6991,-1.8407,-1.9667,-2.1106,-2.2271,-2.2726,-2.2792,-2.2819,0.0,-2.3596,-2.5125,-2.7343,-2.9675,-3.2096,-3.4792,-3.5504,-3.6256,-3.7338,-3.7173,-3.7484,-3.8585,-3.864,-3.864,-3.864,-3.8768,-3.916,-3.9971,-3.9535,-3.9813,-4.0857,-3.9974,-3.9098,-3.7958,-3.7095,-3.5887,-3.4427,-3.3514,-3.3188,-3.3071,-3.2851,-3.2778,-3.2778,-3.2778,-3.3455,-3.4494,-3.3293,-3.3706,-3.5175,-3.8271,-4.0422,-4.2289,-4.4956,-4.7155,-4.9097,-5.2171,-5.4147,-5.5781,-5.8379,-6.078,-6.3145,-6.4717,-6.6452,-6.8363,-6.9574,-7.0075,-7.0699,-7.2109,-7.2891,-7.363,-7.4268,-7.4627,-7.4897,-7.4897,-7.4897,-7.4897,-7.4897,-7.4897,-7.4897,-7.4897,-7.4897,-7.4984,-7.5423,-7.6813,-7.8023,-7.8841,-8.0274,-8.1359,-8.181,-8.181,-8.181,-8.181,-8.181,-8.181,-8.181,-8.181,-8.181,-8.181,-8.181,-8.181,-8.181,-8.181,-8.181,-1.1879,-1.2143,-1.2507,-1.5023,-1.4883,-1.4364,-1.4764,-1.4846,-1.5127,-1.6122,-1.7531,-1.8997,-2.0376,-2.1885,-2.2859,-2.2859,-2.2859,-2.3133,0.0,-2.4873,-2.6682,-2.9325,-3.0651,-3.2071,-3.4189,-3.4972,-3.5815,-3.6916,-3.6989,-3.7356,-3.8163,-3.8475,-3.864,-3.864,-3.8163,-3.8304,-3.8938,-3.7882,-3.7696,-3.8561,-3.7809,-3.6822,-3.5844,-3.5638,-3.497,-3.3715,-3.3393,-3.3246,-3.3217,-3.2895,-3.3117,-3.3807,-3.3807,-3.4828,-3.6205,-3.4494,-3.5352,-3.774,-4.0144,-4.2143,-4.3857,-4.6658,-4.879,-5.0813,-5.3717,-5.5637,-5.715,-5.9247,-6.164,-6.3914,-6.4663,-6.665,-6.8748,-6.9719,-7.042,-7.1345,-7.3015,-7.363,-7.4147,-7.4778,-7.4897,-7.4897,-7.4897,-7.4897,-7.4897,-7.4897,-7.4897,-7.4897,-7.4897,-7.4897,-7.522,-7.597,-7.7479,-7.8664,-7.9531,-8.0936,-8.181,-8.181,-8.181,-8.181,-8.181,-8.181,-8.1672,-8.1397,-8.1672,-8.1672,-8.1397,-8.1672,-8.181,-8.181,-8.181,-8.181]},{"header":{"parameterUnit":"m.s-1","parameterCategory":1,"la1":30.6,"la2":29.2853,"lo1":-89.7004,"lo2":-87.6739,"dy":0.0162,"dx":0.0183,"nx":112,"ny":82,"refTime":"2023-03-12T06:00:00:Z","depth":0,"parameterNumber":3,"parameterNumberName":"V-component_of_WINDS"},"data":[0.0,0.0,0.0,0.0,0.0,0.0,0.0,0.0,0.0,0.0,0.0,0.0,0.0,0.0,0.0,0.0,0.0,0.0,0.0,0.0,0.0,0.0,0.0,0.0,0.0,0.0,0.0,0.0,0.0,0.0,0.0,0.0,0.0,0.0,0.0,0.0,0.0,0.0,0.0,0.0,0.0,0.0,0.0,0.0,0.0,0.0,0.0,0.0,0.0,0.0,0.0,0.0,0.0,0.0,0.0,0.0,0.0,0.0,0.0,0.0,0.0,0.0,0.0,0.0,0.0,0.0,0.0,0.0,0.0,0.0,0.0,0.0,0.0,0.0,0.0,0.0,0.0,0.0,0.0,0.0,0.0,0.0,0.0,0.0,0.0,0.0,0.0,0.0,0.0,0.0,-5.6105,-5.6,-5.5498,-5.5099,-5.5099,-5.5099,-5.5099,-5.5099,0.0,0.0,0.0,0.0,0.0,0.0,0.0,0.0,0.0,0.0,0.0,0.0,0.0,0.0,0.0,0.0,0.0,0.0,0.0,0.0,0.0,0.0,0.0,0.0,0.0,0.0,0.0,0.0,0.0,0.0,0.0,0.0,0.0,0.0,0.0,0.0,0.0,0.0,0.0,0.0,0.0,0.0,0.0,0.0,0.0,0.0,0.0,0.0,0.0,0.0,0.0,0.0,0.0,0.0,0.0,0.0,0.0,0.0,0.0,0.0,0.0,0.0,0.0,0.0,0.0,0.0,0.0,0.0,0.0,0.0,0.0,0.0,0.0,0.0,0.0,0.0,0.0,0.0,0.0,0.0,0.0,0.0,0.0,0.0,0.0,0.0,0.0,0.0,0.0,0.0,0.0,0.0,0.0,0.0,0.0,0.0,0.0,0.0,0.0,0.0,0.0,0.0,0.0,0.0,-5.6497,-5.5365,-5.5099,-5.5099,-5.5099,-5.5099,-5.5099,-5.5099,0.0,0.0,0.0,0.0,0.0,0.0,0.0,0.0,0.0,0.0,0.0,0.0,0.0,0.0,0.0,0.0,0.0,0.0,0.0,0.0,0.0,0.0,0.0,0.0,0.0,0.0,0.0,0.0,0.0,0.0,0.0,0.0,0.0,0.0,0.0,0.0,0.0,0.0,0.0,0.0,0.0,0.0,0.0,0.0,0.0,0.0,0.0,0.0,0.0,0.0,0.0,0.0,0.0,0.0,0.0,0.0,0.0,0.0,0.0,0.0,0.0,0.0,0.0,0.0,0.0,0.0,0.0,0.0,0.0,0.0,0.0,0.0,0.0,0.0,0.0,0.0,0.0,0.0,0.0,0.0,0.0,0.0,0.0,0.0,0.0,0.0,0.0,0.0,0.0,0.0,0.0,0.0,0.0,0.0,0.0,0.0,0.0,0.0,0.0,0.0,0.0,0.0,0.0,-5.6861,-5.6601,-5.5232,-5.5099,-5.5099,-5.5099,-5.5099,-5.5099,-5.5099,-5.5099,0.0,0.0,0.0,0.0,0.0,0.0,0.0,0.0,0.0,0.0,0.0,0.0,0.0,0.0,0.0,0.0,0.0,0.0,0.0,0.0,0.0,0.0,0.0,0.0,0.0,0.0,0.0,0.0,0.0,0.0,0.0,0.0,0.0,0.0,0.0,0.0,0.0,0.0,0.0,0.0,0.0,0.0,0.0,0.0,0.0,0.0,0.0,0.0,0.0,0.0,0.0,0.0,0.0,0.0,0.0,0.0,0.0,0.0,0.0,0.0,0.0,0.0,0.0,0.0,0.0,0.0,0.0,0.0,0.0,0.0,0.0,0.0,0.0,0.0,0.0,0.0,0.0,0.0,0.0,0.0,0.0,0.0,0.0,0.0,0.0,0.0,0.0,0.0,0.0,0.0,0.0,0.0,0.0,0.0,0.0,0.0,0.0,0.0,0.0,0.0,0.0,0.0,-5.6471,-5.6209,-5.5232,-5.5099,-5.5099,-5.5099,-5.5099,-5.5099,-5.5099,-5.5099,0.0,0.0,0.0,0.0,0.0,0.0,0.0,0.0,0.0,0.0,0.0,0.0,0.0,0.0,0.0,0.0,0.0,0.0,0.0,0.0,0.0,0.0,0.0,0.0,0.0,0.0,0.0,0.0,0.0,0.0,0.0,0.0,0.0,0.0,0.0,0.0,0.0,0.0,0.0,0.0,0.0,0.0,0.0,0.0,0.0,0.0,0.0,0.0,0.0,0.0,0.0,0.0,0.0,0.0,0.0,0.0,0.0,0.0,0.0,0.0,0.0,0.0,0.0,0.0,0.0,0.0,0.0,0.0,0.0,0.0,0.0,0.0,0.0,0.0,0.0,0.0,0.0,0.0,0.0,0.0,0.0,0.0,0.0,0.0,0.0,0.0,0.0,0.0,0.0,0.0,0.0,0.0,0.0,0.0,0.0,0.0,0.0,0.0,0.0,0.0,0.0,0.0,-5.6,-5.5232,-5.5099,-5.5099,-5.5099,-5.5099,-5.5099,-5.5099,-5.5099,-5.5099,0.0,0.0,0.0,0.0,0.0,0.0,0.0,0.0,0.0,0.0,0.0,0.0,0.0,0.0,0.0,0.0,0.0,0.0,0.0,0.0,0.0,0.0,0.0,0.0,0.0,0.0,0.0,0.0,0.0,0.0,0.0,0.0,0.0,0.0,0.0,0.0,0.0,0.0,0.0,0.0,0.0,0.0,0.0,0.0,0.0,0.0,0.0,0.0,0.0,0.0,0.0,0.0,0.0,0.0,0.0,0.0,0.0,0.0,0.0,0.0,0.0,0.0,0.0,0.0,0.0,0.0,0.0,0.0,0.0,0.0,0.0,0.0,0.0,0.0,0.0,0.0,0.0,0.0,0.0,0.0,0.0,0.0,0.0,0.0,0.0,0.0,0.0,0.0,0.0,0.0,0.0,0.0,0.0,0.0,0.0,0.0,0.0,0.0,0.0,0.0,0.0,0.0,-5.7092,-5.5973,-5.5232,-5.5099,-5.5099,-5.5099,-5.5099,-5.5099,-5.5099,0.0,0.0,0.0,0.0,0.0,0.0,0.0,0.0,0.0,0.0,0.0,0.0,0.0,0.0,0.0,0.0,0.0,0.0,0.0,0.0,0.0,0.0,0.0,0.0,0.0,0.0,0.0,0.0,0.0,0.0,0.0,0.0,0.0,0.0,0.0,0.0,0.0,0.0,0.0,0.0,0.0,0.0,0.0,0.0,0.0,0.0,0.0,0.0,0.0,0.0,0.0,0.0,0.0,0.0,0.0,0.0,0.0,0.0,0.0,0.0,0.0,0.0,0.0,0.0,0.0,0.0,0.0,0.0,0.0,0.0,0.0,0.0,0.0,0.0,0.0,0.0,0.0,0.0,0.0,0.0,0.0,0.0,0.0,0.0,0.0,0.0,0.0,0.0,0.0,0.0,0.0,0.0,0.0,0.0,0.0,0.0,0.0,0.0,0.0,0.0,0.0,0.0,-5.8815,-5.7706,-5.6601,-5.5232,-5.5099,-5.5099,-5.5099,-5.5099,-5.5099,-5.5099,0.0,0.0,0.0,0.0,0.0,0.0,0.0,0.0,0.0,0.0,0.0,0.0,0.0,0.0,0.0,0.0,0.0,0.0,0.0,0.0,0.0,0.0,0.0,0.0,0.0,0.0,0.0,0.0,0.0,0.0,0.0,0.0,0.0,0.0,0.0,0.0,0.0,0.0,0.0,0.0,0.0,0.0,0.0,0.0,0.0,0.0,0.0,0.0,0.0,0.0,0.0,0.0,0.0,0.0,0.0,0.0,0.0,0.0,0.0,0.0,0.0,0.0,0.0,0.0,0.0,0.0,0.0,0.0,0.0,0.0,0.0,0.0,0.0,0.0,0.0,0.0,0.0,0.0,0.0,0.0,0.0,0.0,0.0,0.0,0.0,0.0,0.0,0.0,0.0,0.0,0.0,0.0,0.0,0.0,0.0,0.0,0.0,0.0,0.0,0.0,0.0,0.0,-5.8815,-5.7706,-5.6601,-5.5232,-5.5099,-5.5099,-5.5099,-5.5099,-5.5099,0.0,0.0,0.0,0.0,0.0,0.0,0.0,0.0,0.0,0.0,0.0,0.0,0.0,0.0,0.0,0.0,0.0,0.0,0.0,0.0,0.0,0.0,0.0,0.0,0.0,0.0,0.0,0.0,0.0,0.0,0.0,0.0,0.0,0.0,0.0,0.0,0.0,0.0,0.0,0.0,0.0,0.0,0.0,0.0,0.0,0.0,0.0,0.0,0.0,0.0,0.0,0.0,0.0,0.0,0.0,0.0,0.0,0.0,0.0,0.0,0.0,0.0,0.0,0.0,0.0,0.0,0.0,0.0,0.0,0.0,0.0,0.0,0.0,0.0,0.0,0.0,0.0,0.0,0.0,0.0,0.0,0.0,0.0,0.0,0.0,0.0,0.0,0.0,0.0,0.0,0.0,0.0,0.0,0.0,0.0,0.0,0.0,0.0,0.0,0.0,0.0,0.0,0.0,-5.9626,-5.7322,-5.5604,-5.5099,-5.5099,-5.5099,-5.5099,-5.5099,-5.5099,-5.5099,0.0,0.0,0.0,0.0,0.0,0.0,0.0,0.0,0.0,0.0,0.0,0.0,0.0,0.0,0.0,0.0,0.0,0.0,0.0,0.0,0.0,0.0,0.0,0.0,0.0,0.0,0.0,0.0,0.0,0.0,0.0,0.0,0.0,0.0,0.0,0.0,0.0,0.0,0.0,0.0,0.0,0.0,0.0,0.0,0.0,0.0,0.0,0.0,0.0,0.0,0.0,0.0,0.0,0.0,0.0,0.0,0.0,0.0,0.0,0.0,0.0,0.0,0.0,0.0,0.0,0.0,0.0,0.0,0.0,0.0,0.0,0.0,0.0,0.0,0.0,0.0,0.0,0.0,0.0,0.0,0.0,0.0,0.0,0.0,0.0,0.0,0.0,0.0,0.0,0.0,0.0,0.0,0.0,0.0,0.0,0.0,0.0,0.0,0.0,0.0,0.0,0.0,-6.0116,-5.8537,-5.6861,-5.5232,-5.5604,-5.5736,-5.5099,-5.5099,-5.5099,-5.5099,0.0,0.0,0.0,0.0,0.0,0.0,0.0,0.0,0.0,0.0,0.0,0.0,0.0,0.0,0.0,0.0,0.0,0.0,0.0,0.0,0.0,0.0,0.0,0.0,0.0,0.0,0.0,0.0,0.0,0.0,0.0,0.0,0.0,0.0,0.0,0.0,0.0,0.0,0.0,0.0,0.0,0.0,0.0,0.0,0.0,0.0,0.0,0.0,0.0,0.0,0.0,0.0,0.0,0.0,0.0,0.0,0.0,0.0,0.0,0.0,0.0,0.0,0.0,0.0,0.0,0.0,0.0,0.0,0.0,0.0,0.0,0.0,0.0,0.0,0.0,0.0,0.0,0.0,0.0,0.0,0.0,0.0,0.0,0.0,0.0,0.0,0.0,0.0,0.0,0.0,0.0,0.0,0.0,0.0,0.0,0.0,0.0,0.0,0.0,0.0,0.0,0.0,-6.048,-6.0537,-5.9341,-5.5736,-5.6209,-5.6471,-5.5232,-5.5099,-5.5099,-5.5099,0.0,0.0,0.0,0.0,0.0,0.0,0.0,0.0,0.0,0.0,0.0,0.0,0.0,0.0,0.0,0.0,0.0,0.0,0.0,0.0,0.0,0.0,0.0,0.0,0.0,0.0,0.0,0.0,0.0,0.0,0.0,0.0,0.0,0.0,0.0,0.0,0.0,0.0,0.0,0.0,0.0,0.0,0.0,0.0,0.0,0.0,0.0,0.0,0.0,0.0,0.0,0.0,0.0,0.0,0.0,0.0,0.0,0.0,0.0,0.0,-6.3262,-6.2854,0.0,0.0,0.0,0.0,0.0,0.0,0.0,0.0,0.0,0.0,0.0,0.0,0.0,0.0,0.0,0.0,0.0,0.0,0.0,0.0,0.0,0.0,0.0,0.0,0.0,0.0,0.0,0.0,0.0,0.0,0.0,0.0,0.0,0.0,0.0,0.0,0.0,0.0,0.0,0.0,-6.1615,-5.9436,-5.7578,-5.6704,-5.5973,-5.5339,-5.5099,-5.5099,-5.5099,-5.5099,-5.5099,0.0,0.0,0.0,0.0,0.0,0.0,0.0,0.0,0.0,0.0,0.0,0.0,0.0,0.0,0.0,0.0,0.0,0.0,0.0,0.0,0.0,0.0,0.0,0.0,0.0,0.0,0.0,0.0,0.0,0.0,0.0,0.0,0.0,0.0,0.0,0.0,0.0,0.0,0.0,0.0,0.0,0.0,0.0,0.0,0.0,0.0,0.0,0.0,0.0,0.0,0.0,0.0,0.0,0.0,0.0,0.0,0.0,0.0,0.0,-6.5091,-6.4478,0.0,0.0,0.0,0.0,0.0,0.0,0.0,0.0,0.0,0.0,0.0,0.0,0.0,0.0,0.0,0.0,0.0,0.0,0.0,0.0,0.0,0.0,0.0,0.0,0.0,0.0,0.0,0.0,0.0,0.0,0.0,0.0,0.0,0.0,0.0,0.0,0.0,0.0,0.0,0.0,-6.2116,-6.0295,-5.8592,-5.7221,-5.6471,-5.5842,-5.5099,-5.5099,-5.5099,-5.5099,-5.5099,0.0,0.0,0.0,0.0,0.0,0.0,0.0,0.0,0.0,0.0,0.0,0.0,0.0,0.0,0.0,0.0,0.0,0.0,0.0,0.0,0.0,0.0,0.0,0.0,0.0,0.0,0.0,0.0,0.0,0.0,0.0,0.0,0.0,0.0,0.0,0.0,0.0,0.0,0.0,0.0,0.0,0.0,0.0,0.0,0.0,0.0,0.0,0.0,0.0,0.0,0.0,0.0,0.0,-6.688,-6.7015,-6.7015,-6.7421,-6.7337,-6.6928,-6.7404,-6.6609,-6.5169,-6.7112,0.0,0.0,0.0,0.0,0.0,0.0,0.0,0.0,0.0,0.0,0.0,0.0,0.0,0.0,0.0,0.0,0.0,0.0,0.0,0.0,0.0,0.0,-6.301,-6.4549,-6.4888,-6.4918,-6.5042,0.0,0.0,0.0,0.0,0.0,0.0,0.0,0.0,0.0,0.0,0.0,-6.2496,-6.1673,-6.0202,-5.7706,-5.7194,-5.6601,-5.5232,-5.5099,-5.5099,-5.5099,-5.5099,-5.5099,0.0,0.0,0.0,0.0,0.0,0.0,0.0,0.0,0.0,0.0,0.0,0.0,0.0,0.0,0.0,0.0,0.0,0.0,0.0,0.0,0.0,0.0,0.0,0.0,0.0,0.0,0.0,0.0,0.0,0.0,0.0,0.0,-6.3688,-6.3056,0.0,0.0,0.0,0.0,0.0,0.0,0.0,0.0,0.0,0.0,0.0,0.0,0.0,-6.6321,-6.6237,-6.5865,-6.573,-6.5865,-6.7151,-6.776,-6.7827,-6.9823,-7.1042,-7.1557,-7.0988,0.0,-6.6576,-6.7506,0.0,0.0,0.0,0.0,0.0,0.0,0.0,0.0,0.0,0.0,0.0,0.0,0.0,0.0,0.0,0.0,0.0,0.0,0.0,0.0,0.0,0.0,-6.2425,-6.4426,-6.4888,-6.5072,-6.5657,-6.5319,-6.4888,-6.4888,-6.4888,-6.4888,0.0,0.0,0.0,0.0,0.0,0.0,-6.3736,-6.2379,-6.0779,-5.9064,-5.7834,-5.6601,-5.5232,-5.5099,-5.5099,-5.5099,-5.5099,-5.5099,-5.5099,-5.4106,0.0,0.0,0.0,0.0,0.0,0.0,0.0,0.0,0.0,0.0,0.0,0.0,0.0,0.0,0.0,0.0,0.0,0.0,0.0,0.0,0.0,0.0,0.0,0.0,0.0,0.0,0.0,0.0,0.0,-6.3342,-6.3624,-6.3371,-6.3946,-6.426,0.0,0.0,0.0,0.0,0.0,0.0,0.0,0.0,0.0,-6.5834,-6.7638,-6.8334,-6.7421,-6.8368,-6.8842,-6.8876,-6.9519,-6.9823,-6.9857,-7.0838,-7.1776,-7.2448,-7.2142,-7.1472,-7.0695,-7.0591,-7.0234,-6.982,0.0,0.0,0.0,0.0,-6.7894,-6.7557,-6.7252,-6.7117,-6.7032,-6.6657,0.0,0.0,0.0,0.0,0.0,0.0,0.0,-6.1225,-6.2579,-6.3533,-6.4426,-6.5719,-6.6027,-6.6119,-6.6396,-6.6242,-6.5903,-6.5534,-6.5472,-6.5349,-6.4949,-6.4888,0.0,0.0,0.0,-6.4075,-6.3993,-6.2409,-6.0687,-5.9313,-5.7961,-5.6601,-5.5232,-5.5099,-5.5099,-5.5099,-5.5099,-5.5099,-5.5099,-5.3971,-5.2829,0.0,0.0,0.0,0.0,0.0,0.0,0.0,0.0,0.0,0.0,0.0,0.0,0.0,0.0,0.0,0.0,0.0,0.0,0.0,0.0,0.0,0.0,0.0,0.0,0.0,0.0,0.0,0.0,-6.3676,-6.4049,-6.4017,-6.4427,-6.4805,0.0,0.0,0.0,0.0,0.0,0.0,-6.7082,-6.8508,-6.8717,-6.741,-6.9399,-6.9919,-6.8774,-7.0466,-7.1401,-7.16,-7.16,-7.1688,-7.1951,-7.1951,-7.2398,-7.316,-7.2914,-7.3322,-7.404,-7.3034,-7.2092,-7.122,-7.1663,-7.1441,-7.0784,-6.979,-6.9339,-6.9084,-6.8658,-6.8504,-6.8504,-6.8504,-6.8774,-6.8695,-6.6511,0.0,0.0,0.0,0.0,-6.2579,-6.3779,-6.4888,-6.5873,-6.6704,-6.6919,-6.6981,-6.7135,-6.7165,-6.6981,-6.6304,-6.615,-6.5996,-6.5503,-6.5411,0.0,-6.5195,-6.4799,-6.4401,-6.4106,-6.2758,-6.1316,-5.9929,-5.8439,-5.7092,-5.5736,-5.5365,-5.5099,-5.5099,-5.5099,-5.5099,-5.5099,-5.37,-5.2554,-5.1722,0.0,0.0,0.0,0.0,0.0,0.0,0.0,0.0,0.0,0.0,0.0,0.0,0.0,0.0,0.0,0.0,0.0,0.0,0.0,0.0,0.0,0.0,0.0,0.0,0.0,0.0,0.0,0.0,0.0,-6.5654,-6.5569,0.0,0.0,0.0,0.0,-6.8705,-6.8807,-6.8578,-6.7876,-6.9279,-6.981,-6.8996,-7.0487,-7.1176,-7.1142,-7.1244,-7.1688,-7.2448,-7.2448,-7.2832,-7.3641,-7.3641,-7.4111,-7.4935,-7.4111,-7.4187,-7.4937,-7.33,-7.3098,-7.369,-7.2977,-7.2691,-7.2513,-7.0899,-6.9861,-6.9003,-6.7486,-6.6948,-6.6948,-6.6948,-6.7929,-6.8695,-6.6511,-6.671,0.0,0.0,-6.3687,-6.3903,-6.4641,-6.4888,-6.5288,-6.6611,-6.6919,-6.7104,-6.772,-6.7873,-6.7658,-6.6981,-6.6858,-6.6858,-6.6827,0.0,-6.6581,-6.5965,-6.5842,-6.5484,-6.4473,-6.4075,-6.3249,-6.1496,-5.9929,-5.8439,-5.7092,-5.5842,-5.5099,-5.5099,-5.5099,-5.5099,-5.5099,-5.2991,-5.1722,-5.1722,-4.9652,0.0,0.0,0.0,0.0,0.0,0.0,0.0,0.0,0.0,0.0,0.0,0.0,0.0,0.0,0.0,0.0,0.0,0.0,0.0,0.0,0.0,0.0,0.0,0.0,0.0,0.0,0.0,0.0,-6.6985,-6.7503,0.0,-6.8173,-6.7765,-6.7704,-6.8223,-6.8785,-6.8959,-6.8659,-7.0089,-7.1045,-7.1268,-7.1782,-7.2313,-7.2866,-7.2949,-7.3031,-7.3322,-7.3322,-7.3482,-7.3799,-7.3799,-7.4299,-7.5082,-7.4752,-7.5155,-7.5829,-7.5226,-7.487,-7.4654,-7.4368,-7.4261,-7.4153,-7.2982,-7.2021,-7.1256,-7.0683,-7.0447,-7.05,-7.0939,-7.0993,-7.0637,-6.898,-6.7849,-6.6823,-6.5356,-6.511,-6.5319,-6.6027,-6.6827,-6.7596,-6.8058,-6.8181,-6.8243,-6.8489,-6.8551,-6.8458,-6.8212,-6.7843,-6.7442,-6.6981,-6.6919,-6.6827,-6.6581,-6.6292,-6.6086,-6.5696,-6.5102,-6.3617,-6.1113,-6.0005,-5.8439,-5.5973,-5.5339,-5.5099,-5.5099,-5.5099,-5.5099,-5.5099,-5.2854,-5.1722,-5.1722,-4.9509,-4.84,0.0,0.0,0.0,0.0,0.0,0.0,0.0,0.0,0.0,0.0,0.0,0.0,0.0,0.0,0.0,0.0,0.0,0.0,0.0,0.0,0.0,0.0,0.0,0.0,0.0,-6.6458,-6.7125,-6.8928,-6.9328,-6.9722,-7.0229,-6.9596,-6.9341,-6.9862,-7.0416,-7.0702,-7.0702,-7.1628,-7.2398,-7.2914,-7.2914,-7.3241,-7.3799,-7.3799,-7.3956,-7.4187,-7.4187,-7.434,-7.4642,-7.4642,-7.4973,-7.5513,-7.5513,-7.5829,-7.6275,-7.6275,-7.6003,-7.5513,-7.5513,-7.5513,-7.5371,-7.4527,-7.3878,-7.3357,-7.2977,-7.2859,-7.2834,-7.3341,-7.3144,-7.2538,-7.1283,-7.0041,-6.8917,-6.8052,-6.7666,-6.766,-6.7982,-6.8559,-6.8889,-6.8889,-6.8889,-6.8889,-6.8889,-6.8889,-6.8889,-6.8889,-6.8551,-6.812,-6.7658,-6.7566,-6.7504,-6.7289,-6.6997,-6.679,-6.6545,-6.5918,-6.4657,-6.2754,-6.1126,-5.9403,-5.7428,-5.6107,-5.536,-5.536,-5.5203,-5.4965,-5.4537,-5.2717,-5.1583,-5.1163,-4.9529,-4.863,-4.863,0.0,0.0,0.0,0.0,0.0,0.0,0.0,0.0,0.0,0.0,0.0,0.0,0.0,0.0,0.0,0.0,0.0,0.0,0.0,0.0,0.0,0.0,0.0,-6.7957,-6.9412,-7.0714,-7.1476,-7.0948,-7.1152,-7.2585,-7.2112,-7.2261,-7.3694,-7.3799,-7.3799,-7.3799,-7.3799,-7.3799,-7.3799,-7.3799,-7.3878,-7.3878,-7.3878,-7.4264,-7.5155,-7.5155,-7.5549,-7.6275,-7.6275,-7.6275,-7.6275,-7.6275,-7.6275,-7.6275,-7.6275,-7.6275,-7.6275,-7.6275,-7.6275,-7.6208,-7.5407,-7.5153,-7.5039,-7.4052,-7.368,-7.3603,-7.3544,-7.4052,-7.4438,-7.3275,-7.3442,-7.3803,-7.2632,-7.1452,-7.0599,-7.0599,-6.9724,-6.8889,-6.8889,-6.8889,-6.8889,-6.8889,-6.8889,-6.8889,-6.8889,-6.8889,-6.8889,-6.8889,-6.8889,-6.8674,-6.8058,-6.7966,0.0,-6.7073,-6.669,-6.643,-6.643,-6.3398,-6.1373,-6.1373,-5.8022,-5.5935,-5.5935,-5.5438,-5.4588,-5.3452,-5.2327,-5.1211,-5.0104,-4.9468,-4.9135,-4.8987,0.0,0.0,0.0,0.0,0.0,0.0,0.0,0.0,0.0,0.0,0.0,0.0,0.0,0.0,0.0,0.0,0.0,0.0,0.0,0.0,0.0,-7.0251,-7.1096,-7.0668,-7.0557,-7.0908,-7.2186,-7.27,-7.3034,-7.3476,-7.3322,-7.3343,-7.3764,-7.3799,-7.3799,-7.3799,-7.3799,-7.4111,-7.4752,-7.4752,-7.4973,-7.5584,-7.5584,-7.576,-7.5967,-7.5967,-7.6072,-7.6275,-7.6275,-7.6275,-7.6275,-7.6275,-7.6275,-7.6275,-7.6275,-7.6275,-7.6275,-7.6275,-7.6275,-7.6348,-7.6722,-7.6805,-7.6605,-7.5701,-7.5288,-7.5331,-7.5179,-7.5236,-7.531,-7.5085,-7.4504,-7.3904,-7.3599,-7.21,-7.0599,-7.0599,-6.9724,-6.8889,-6.8889,-6.8889,-6.8889,-6.8889,-6.8889,-6.8889,-6.8889,-6.8889,-6.8889,-6.8889,-6.8889,-6.8828,-6.8643,-6.8612,-6.8551,-6.8366,-6.7819,-6.7016,-6.5862,-6.3784,-6.1753,-6.0088,-5.8321,-5.7082,-5.6562,-5.5555,-5.4898,-5.4594,-5.2617,-5.1052,-4.9924,-4.9766,-4.9065,0.0,0.0,0.0,0.0,0.0,0.0,0.0,0.0,0.0,0.0,0.0,0.0,0.0,0.0,0.0,0.0,0.0,0.0,0.0,0.0,0.0,0.0,-7.1984,-7.3432,-7.3632,-7.2973,-7.287,-7.408,-7.4615,-7.4826,-7.4826,-7.4826,-7.4826,-7.4826,-7.4826,-7.4826,-7.4826,-7.4826,-7.5046,-7.562,-7.562,-7.5829,-7.6311,-7.6275,-7.6275,-7.6275,-7.6275,-7.6275,-7.6275,-7.6275,-7.6275,-7.6275,-7.6275,-7.6275,-7.6275,-7.6275,-7.6275,-7.6275,0.0,0.0,0.0,0.0,-7.7955,-7.7785,-7.6852,-7.6505,-7.6355,-7.5918,-7.5709,-7.5709,-7.5709,-7.5493,-7.5238,-7.5238,-7.4187,-7.2896,-7.2348,-7.1371,-7.0365,-6.9839,-6.972,-6.972,-6.972,-6.972,-6.972,-6.972,-6.9505,0.0,-6.932,-6.9074,-6.8889,-6.8889,-6.8889,-6.8889,-6.8889,-6.8551,-6.7806,-6.6432,-6.4699,-6.2807,-6.0733,-5.913,0.0,0.0,0.0,-5.4628,-5.3632,-5.1919,0.0,0.0,0.0,-4.9412,-4.7684,-4.7082,0.0,0.0,-4.332,-4.2461,0.0,0.0,0.0,0.0,0.0,0.0,0.0,0.0,0.0,0.0,0.0,0.0,0.0,0.0,0.0,0.0,-7.3214,-7.4555,-7.6352,-7.5828,-7.5515,-7.6203,-7.6275,-7.6275,-7.6275,-7.6275,-7.6275,-7.6275,-7.6275,-7.6275,-7.6275,-7.6275,0.0,0.0,0.0,-7.6275,-7.6275,-7.6275,-7.6275,-7.6275,-7.6275,-7.6275,-7.6275,-7.6275,-7.6275,-7.6275,-7.6275,-7.6275,-7.6275,-7.6275,-7.6348,-7.642,-7.642,-7.6963,-7.7869,-7.8557,-7.8855,-7.8722,-7.7742,0.0,0.0,-7.6156,-7.5845,-7.5845,-7.5912,-7.6454,-7.7029,-7.7029,-7.6709,-7.5983,-7.4811,-7.3564,-7.2422,-7.134,-7.1131,-7.1131,-7.1251,-7.1371,-7.122,-7.1131,-7.0637,-7.0235,-6.9997,-6.9382,-6.8889,-6.8889,-6.8889,-6.8889,-6.8889,-6.8889,-6.8505,-6.7548,-6.586,0.0,-6.232,-6.0185,-5.8599,-5.7904,-5.5957,-5.3948,-5.1668,-5.0653,-5.0076,-5.0076,-5.0338,-4.9602,-4.7853,-4.6518,-4.4925,-4.3303,-4.2547,-4.2392,0.0,0.0,0.0,0.0,0.0,0.0,0.0,0.0,0.0,0.0,0.0,0.0,0.0,0.0,0.0,-7.248,-7.4507,-7.6291,-7.67,-7.6366,-7.613,-7.6275,-7.6275,-7.6275,-7.6275,-7.6275,-7.6275,-7.6275,-7.6275,-7.6275,-7.6275,-7.6275,-7.6275,-7.6275,-7.6275,-7.6275,-7.6275,-7.6275,-7.6275,-7.6275,-7.6275,0.0,-7.6275,-7.6275,-7.6275,-7.6275,-7.6275,-7.6275,-7.6275,-7.6275,-7.6674,-7.7253,-7.7253,-7.8159,-7.9462,-7.9607,-8.0116,-8.0368,-7.8761,-7.8175,-7.7996,-7.6957,-7.6657,-7.6792,-7.7367,-7.7638,0.0,-7.7773,-7.7112,-7.5983,-7.4811,-7.3564,-7.2653,-7.2422,-7.2306,-7.2653,-7.3708,-7.3931,-7.3596,-7.2538,-7.2212,-7.1916,-7.0915,-6.969,-6.8889,-6.8889,-6.8889,-6.8889,-6.8889,-6.8889,-6.8505,-6.7548,-6.586,-6.4024,-6.232,-6.0538,-5.9156,-5.834,-5.6182,-5.3932,-5.1569,-5.1286,-5.1133,-5.1133,-4.9763,-4.8352,-4.6581,-4.4885,-4.3156,-4.1546,-4.1379,-4.1361,0.0,0.0,0.0,0.0,0.0,0.0,0.0,0.0,0.0,0.0,0.0,-7.0796,-7.0796,0.0,-7.3978,-7.3765,-7.5605,-7.6993,-7.6801,-7.6672,-7.6475,-7.6275,-7.6275,-7.6275,-7.6275,-7.6275,-7.6275,-7.6275,-7.6275,-7.6275,-7.6275,-7.6275,-7.6275,-7.6275,-7.6275,-7.6275,-7.6275,-7.6275,-7.6275,-7.6275,-7.6275,-7.6275,-7.6275,-7.6275,-7.6275,-7.6275,-7.6275,-7.6275,-7.6311,-7.671,-7.7615,-7.8702,-7.8702,-7.9209,-7.9969,-8.0368,-8.0766,-8.0912,-7.9433,-7.896,-7.8761,-7.7801,-7.7435,-7.7502,-7.7874,-7.8247,-7.8551,-7.8551,-7.8388,-7.7977,-7.6753,-7.5962,-7.5376,-7.4847,-7.4619,-7.4847,-7.5441,-7.5552,-7.5441,-7.4733,-7.3874,-7.3106,-7.2432,-7.103,-6.9905,-6.9905,-6.9597,-6.9382,-6.9382,-6.9105,-6.8268,-6.6786,-6.589,-6.431,-6.1706,-5.9985,-5.8329,-5.6895,-5.5582,-5.3948,-5.1585,-5.1431,-5.1431,-5.1431,-4.9629,-4.8006,-4.6223,-4.4454,-4.2678,-4.106,-4.106,-4.106,0.0,0.0,0.0,0.0,0.0,0.0,0.0,0.0,-7.2498,-7.3474,-7.2997,-7.261,-7.298,-7.4069,-7.4918,-7.4918,-7.6216,-7.7118,-7.6866,-7.6737,-7.6643,-7.6378,-7.6275,-7.6275,-7.6275,-7.6275,-7.6275,-7.6275,-7.6275,-7.6275,-7.6275,-7.6275,-7.6275,-7.6275,-7.6275,-7.6275,-7.6275,-7.6275,-7.6275,-7.6275,-7.6275,-7.6275,-7.6275,-7.6275,-7.6275,-7.6311,-7.6456,-7.6529,-7.6601,-7.7579,-7.8738,-7.9933,-8.0078,-8.0151,-8.0223,-8.0875,-8.1201,-8.1165,-7.9928,-7.9578,-7.9565,-7.8552,-7.8213,-7.8247,-7.8382,-7.8855,-7.9329,-7.9329,-7.9735,-7.9972,-7.873,-7.8411,-7.8164,-7.718,-7.6958,-7.7069,-7.7291,-7.7291,-7.7291,-7.6958,-7.5684,-7.4614,-7.4383,-7.2801,-7.144,-7.0952,-7.0428,-7.009,-7.009,-6.9628,-6.8483,-6.6346,-6.5941,-6.4483,-6.0838,-5.9202,-5.7498,-5.514,-5.4992,-5.3948,-5.1585,-5.1431,-5.1431,-5.1431,-4.9315,-4.7528,-4.6223,-4.4126,-4.2345,-4.106,-4.106,-4.106,-7.2043,-7.2623,-7.3688,-7.322,-7.442,-7.5424,0.0,0.0,-7.3801,-7.3013,-7.263,-7.2496,-7.2553,-7.3876,-7.4918,-7.4918,-7.6155,-7.7029,-7.6801,-7.6708,-7.6512,-7.6311,-7.6275,-7.6275,-7.6275,-7.6275,-7.6275,-7.6275,-7.6275,-7.6275,-7.6275,-7.6275,-7.6275,-7.6275,-7.6275,-7.6275,-7.6275,-7.6275,-7.6275,-7.6275,-7.6275,-7.6275,-7.6275,-7.6275,-7.6275,-7.6348,-7.7036,-7.7362,-7.747,-7.9028,-7.9752,-7.9969,-8.0694,-8.0984,-8.0984,-8.1092,-8.1563,-8.1924,-8.0105,-8.0014,-8.0369,-7.9337,-7.8991,-7.9092,-7.9769,-8.0006,-8.0073,-8.0073,-8.0141,-7.9972,-7.873,-7.8411,-7.8411,-7.8197,-7.8197,-7.8518,-7.9528,-7.9768,-7.9528,-7.8411,-7.799,-7.749,-7.6491,-7.5168,-7.3547,-7.1196,-7.0828,-7.0798,-7.0798,-7.0736,-6.9702,-6.7086,-6.6177,-6.4102,-6.0039,-5.892,-5.7498,-5.514,-5.4992,-5.3948,-5.1585,-5.1431,-5.1431,-5.1431,-4.8187,-4.6384,-4.6223,-4.301,-4.121,-4.106,-4.106,-4.106,-7.5774,-7.5771,-7.6024,-7.674,-7.7193,-7.7329,-7.6797,-7.6192,-7.5718,-7.5807,-7.5543,-7.5322,-7.5322,-7.5873,-7.6313,-7.6313,-7.6803,-7.7155,-7.6801,-7.6773,-7.6643,-7.6342,-7.6275,-7.6275,-7.6275,-7.6275,-7.6275,-7.6275,-7.6275,-7.6275,-7.6275,-7.6275,-7.6275,-7.6275,-7.6275,-7.6275,-7.6275,-7.6275,-7.6475,-7.6793,-7.6793,-7.6793,-7.6793,-7.6793,-7.689,-7.7036,-7.7833,-7.8448,-7.8955,-7.9607,-8.0187,-8.0621,-8.0984,-8.1382,-8.178,-8.178,-8.1998,-8.214,-8.1166,-8.1102,-8.1138,-8.0122,-7.9735,-7.9803,-8.0107,-8.0209,-8.0209,-8.0209,-8.0209,-8.0074,-7.9528,-7.9425,-7.9425,-7.9425,-7.9425,-7.9632,-8.0074,-8.0209,-8.0074,-7.9528,-7.8869,-7.8304,-7.773,-7.6021,-7.4463,-7.3302,-7.2207,-7.1536,-7.1536,-7.1167,-7.0037,-6.7737,-6.5307,-6.3169,-6.148,-6.0207,-5.8474,-5.6076,-5.5926,-5.4865,-5.2437,-5.2281,-5.2281,-5.2281,-4.8844,-4.703,-4.703,-4.3572,-4.1776,-4.1776,-4.1776,-4.1776,-7.7124,-7.7302,-7.7494,-7.9045,-7.9323,-7.9198,-7.9171,-7.8394,-7.7756,-7.8312,-7.796,-7.751,-7.751,-7.7426,-7.7304,-7.7304,-7.7304,-7.7181,-7.6866,-7.6801,-7.6672,-7.6342,-7.6475,-7.6505,-7.6505,-7.6505,-7.6505,-7.6505,-7.6505,-7.6505,-7.6505,-7.6409,-7.6275,-7.6275,-7.6275,-7.6275,-7.6275,-7.6475,-7.6728,-7.7194,-7.7597,-7.7707,-7.7561,-7.7594,-7.7684,-7.7869,-7.8666,-7.9354,-7.9933,-8.0151,-8.0585,-8.1128,-8.1346,-8.178,-8.2324,-8.2794,-8.2939,-8.2863,-8.205,-8.198,-8.1907,-8.0633,-8.0209,-8.0209,-8.0209,-8.0209,-8.0209,-8.0209,-8.0209,-8.0209,-8.0209,-8.0209,-8.0209,-8.0209,-8.0209,-8.0209,-8.0209,-8.0209,-8.0209,-8.0209,-7.9528,-7.8869,-7.8869,-7.7148,-7.5675,-7.5359,-7.3797,-7.2703,-7.2367,-7.1107,-6.9782,-6.8289,-6.474,-6.2492,-6.2492,-6.1065,-5.9168,-5.6742,-5.6614,-5.5516,-5.3059,-5.2901,-5.2901,-5.2901,-4.9424,-4.761,-4.761,-4.4109,-4.2271,-4.2271,-4.2271,-4.2344,0.0,0.0,-7.6524,-7.816,-7.9785,-8.0882,-8.0427,-8.0124,-7.9765,-7.9366,-7.8639,-7.8072,-7.8072,-7.7651,-7.7304,-7.7304,-7.7304,-7.7181,-7.6866,-7.6801,-7.6672,-7.6342,-7.6793,-7.7194,-7.7194,-7.7194,-7.7194,-7.7194,-7.7194,-7.7194,-7.7194,-7.6636,-7.6275,-7.6275,-7.6275,-7.6275,-7.6275,-7.6856,-7.7194,-7.7194,-7.8586,-7.8935,-7.8343,-7.8571,-7.8629,-7.8702,-7.9499,-7.9897,-7.9969,-8.0766,-8.1092,-8.1201,-8.1961,-8.2251,-8.2468,-8.4026,-8.4605,-8.4344,-8.2439,-8.2331,-8.2641,-8.0804,-8.0209,-8.0209,-8.0209,-8.0209,-8.0209,-8.0209,-8.0209,-8.0209,-8.0209,-8.0209,-8.0209,-8.0209,-8.0209,-8.0209,-8.0209,-8.0209,-8.0209,-8.0209,-8.0209,-8.0209,-8.0209,-7.9079,-7.7839,-7.6734,-7.5443,-7.4294,-7.3077,-7.0645,-6.8938,-6.8838,-6.4993,-6.2492,-6.2492,-6.1065,-5.9168,-5.6742,-5.6614,-5.5516,-5.3059,-5.2901,-5.2901,-5.2901,-4.9424,-4.761,-4.761,-4.4109,-4.2271,-4.2271,-4.2271,-4.2472,0.0,0.0,-7.8199,-7.9815,-8.0669,-8.1061,-8.0788,-8.0353,-7.9923,-7.9751,-7.822,-7.698,-7.698,-7.6547,-7.6178,-7.6178,-7.681,-7.7181,-7.6866,-7.7144,-7.7231,-7.692,-7.7436,-7.7809,-7.7809,-7.7809,-7.7809,-7.7809,-7.7809,-7.7809,-7.7809,-7.7577,-7.7496,-7.7496,-7.7496,-7.7496,-7.7496,-7.8248,-7.8758,-7.9183,-7.9837,-7.9982,-7.9786,-7.9609,-7.9499,-7.9535,-8.0368,-8.0694,-8.073,-8.0984,-8.1128,-8.1201,-8.1998,-8.2613,-8.3229,-8.4279,-8.504,-8.5323,-8.3957,-8.3309,-8.282,-8.1509,-8.074,-8.0209,-8.0209,-8.0209,-8.0209,-8.0209,-8.0209,-8.0209,-8.0209,-8.0209,-8.0209,-8.0209,-8.0209,-8.0209,-8.0209,-8.0209,-8.0209,-8.0209,-8.0209,-8.0209,-8.0209,-7.9184,-7.773,-7.5707,-7.4325,-7.3447,-7.3107,-7.0938,-6.9486,-6.9486,-6.6005,-6.3686,-6.3686,-6.2259,-6.0298,-5.7826,-5.7671,-5.6577,-5.405,-5.3911,-5.3911,-5.3911,-5.0348,-4.85,-4.85,-4.4952,-4.3096,-4.3096,-4.3096,-4.3151,0.0,-7.7896,-7.9103,-8.07,-8.1093,-8.1093,-8.0991,-8.0611,-8.0278,-8.02,-7.8339,-7.6685,-7.6685,-7.5658,-7.4821,-7.4979,-7.5477,-7.6022,-7.6516,-7.6901,-7.7293,-7.7562,-7.8108,-7.8469,-7.8416,-7.8611,-7.8663,-7.8453,-7.8416,-7.8416,-7.8416,-7.8238,-7.809,-7.809,-7.8388,-7.8536,-7.8536,-7.9538,-8.0511,-8.1441,-8.1082,-8.11,-8.1376,-8.0692,-8.0332,-8.0368,-8.0875,-8.1128,-8.1128,-8.1128,-8.1273,-8.1599,-8.2396,-8.3193,-8.4026,-8.4823,-8.5251,-8.5225,-8.4231,-8.3521,-8.282,-8.1509,-8.074,-8.0209,-8.0209,-8.0209,-8.0209,-8.0209,-8.0209,-8.0209,-8.0209,-8.0209,-8.0209,-8.0209,-8.0209,-8.0209,-8.0209,-8.0209,-8.0209,-8.0209,-8.0209,-8.0209,-8.0209,-7.8836,-7.7291,-7.5707,-7.3995,-7.2983,-7.2983,-7.1148,-6.9678,-6.9353,-6.637,-6.4165,-6.3873,-6.2693,-6.0863,-5.8369,-5.8212,-5.7107,-5.4579,-5.4416,-5.4416,-5.4416,-5.0821,-4.8935,-4.8935,-4.5373,-4.3499,-4.3499,-4.3499,-4.3499,-7.7884,-7.8783,-7.9191,-8.07,-8.1093,-8.1093,-8.1093,-8.0926,-8.0792,-8.0677,-7.879,-7.7097,0.0,0.0,-7.3415,-7.3821,-7.3628,-7.4145,-7.6032,-7.6356,-7.6867,-7.8176,-7.8791,-7.9123,-7.9015,-7.9554,-7.9645,-7.9102,-7.9053,-7.9053,-7.9053,-7.8544,-7.8275,-7.8275,-7.9056,-7.9465,-7.9465,-8.0863,-8.2271,-8.365,-8.2366,-8.2214,-8.2935,-8.1715,-8.1128,-8.1128,-8.1128,-8.1128,-8.1128,-8.1128,-8.1563,-8.236,-8.3193,-8.399,-8.4786,-8.5583,-8.5261,-8.4231,-8.3348,-8.2998,-8.2641,-8.0804,-8.0209,-8.0209,-8.0209,-8.0209,-8.0209,-8.0209,-8.0209,-8.0209,-8.0209,-8.0209,-8.0209,-8.0209,-8.0209,-8.0209,-8.0209,-8.0209,-8.0209,-8.0209,-8.0209,-8.0209,-8.0209,-7.8197,-7.6621,-7.6621,-7.4564,-7.2983,-7.2983,-7.1148,-6.9516,-6.8625,-6.6061,-6.4019,-6.3111,-6.2396,-6.0863,-5.8369,-5.8212,-5.7107,-5.4579,-5.4416,-5.4416,-5.4416,-5.08,-4.8914,-4.8914,-4.5197,-4.3499,-4.3499,-4.3499,-4.3499,-7.854,-7.9671,-8.0723,-8.1008,-8.1093,-8.1093,-8.1093,-8.0926,-8.0447,-7.9182,-7.7367,-7.5548,0.0,0.0,0.0,-7.3869,-7.5581,0.0,-7.7422,-7.8179,0.0,-7.8902,0.0,-7.974,-7.9645,-7.9816,-7.9854,-7.9683,-7.9683,-7.9683,-7.9683,-8.0075,-8.033,-8.033,-8.116,-8.1613,-8.1613,-8.2586,-8.3596,-8.456,-8.3264,-8.2771,-8.2935,-8.1715,-8.1128,-8.1128,-8.1128,-8.1128,-8.1128,-8.1128,-8.1563,-8.236,-8.3193,-8.399,-8.4786,-8.5583,-8.5261,-8.4231,-8.3348,-8.2551,-8.1851,-8.1448,-8.0706,-8.0209,-8.0209,-8.0209,-8.0209,-8.0209,-8.0209,-8.0209,-8.0209,-8.0209,-8.0209,-8.0209,-8.0209,-8.0209,-8.0209,-8.0209,-8.0209,-8.0209,-8.0209,-8.0209,-8.0209,-7.8197,-7.6621,-7.6621,-7.4564,-7.2983,-7.2983,-7.1148,-6.9516,-6.8625,-6.6061,-6.4019,-6.3111,-6.2396,-6.0863,-5.8369,-5.8212,-5.7107,-5.4579,-5.4416,-5.4416,-5.4416,-5.0821,-4.8935,-4.8935,-4.5373,-4.3499,-4.3499,-4.3499,-4.3499,-7.9698,-8.0558,-8.1263,-8.1124,-8.1093,-8.09,-8.0131,-7.9851,-7.922,-7.7495,-7.5676,-7.4125,-7.317,-7.2917,0.0,0.0,0.0,0.0,-7.7479,-7.83,-7.8993,0.0,-7.9827,0.0,-7.9898,-7.9898,-8.0049,-8.039,-8.0087,-8.0049,-8.039,-8.0845,-8.1262,-8.1641,-8.2475,-8.3119,-8.3498,-8.3953,-8.4277,-8.4454,-8.349,-8.2816,-8.2511,-8.151,-8.1128,-8.1128,-8.1128,-8.1128,-8.1128,-8.1491,-8.2106,-8.2903,-8.37,-8.4497,-8.5182,-8.5273,-8.4595,-8.3606,-8.2731,-8.1792,-8.1,-8.1,-8.0641,-8.0209,-8.0209,-8.0209,-8.0209,-8.0209,-8.0209,-8.0209,-8.0209,-8.0209,-8.0209,-8.0209,-8.0209,-8.0209,-8.0209,-8.0209,-8.0209,-8.0209,-8.0209,-8.0209,-8.0209,-7.8197,-7.6621,-7.6621,-7.4564,-7.2983,-7.2983,-7.1533,-6.9884,-6.8325,-6.6314,-6.4374,-6.2667,-6.2246,-6.0863,-5.8369,-5.8212,-5.7107,-5.4579,-5.4416,-5.4416,-5.4416,-5.1682,-4.9786,-4.8935,-4.6036,-4.4352,-4.3499,-4.3499,-4.3499,-8.0933,-8.1291,-8.1263,-8.1124,-8.1093,-8.0631,-7.89,-7.8391,-7.7725,-7.5769,0.0,-7.2941,-7.2711,-7.2088,-7.182,-7.2425,0.0,-7.5141,-7.7235,-7.7872,-7.8675,-8.0083,-8.0113,-8.003,-7.9941,-7.9973,-8.0352,-8.1035,-8.0542,-8.0542,-8.1224,-8.1376,-8.1831,-8.2702,-8.3385,-8.4143,-8.4901,-8.4901,-8.4541,-8.3922,-8.3284,-8.2634,-8.1974,-8.1408,-8.1128,-8.1128,-8.1128,-8.1128,-8.1165,-8.1961,-8.2758,-8.3555,-8.4388,-8.511,-8.5608,-8.4676,-8.3692,-8.2641,-8.1851,-8.1,-8.0209,-8.0209,-8.0209,-8.0209,-8.0209,-8.0209,-8.0209,-8.0209,-8.0209,-8.0209,-8.0209,-8.0209,-8.0209,-8.0209,-8.0209,-8.0209,-8.0209,-8.0209,-8.0209,-8.0209,-8.0209,-8.0209,-8.0209,-7.8304,-7.6846,-7.6621,-7.4684,-7.32,-7.2983,-7.1916,-7.0117,-6.7753,-6.6258,-6.4635,-6.2246,-6.1973,-6.0863,-5.8369,-5.8212,-5.7107,-5.4579,-5.4416,-5.4416,-5.4416,-5.2702,-5.0821,-4.9276,-4.7215,-4.5354,-4.3837,-4.3678,-4.3499,-8.1242,-8.1291,-8.1263,-8.1124,-8.1093,-8.06,-7.8807,-7.8327,0.0,0.0,-7.3237,-7.2559,-7.1107,-7.1521,-7.2535,-7.4058,0.0,-7.7273,-7.9026,-7.9702,-8.0087,0.0,-8.0235,-8.0113,-7.9992,-8.051,-8.0959,-8.1073,-8.1641,-8.202,-8.2172,-8.2816,-8.3574,-8.4446,-8.4597,-8.4749,-8.4901,-8.4901,-8.4541,-8.3922,-8.3284,-8.2634,-8.1974,-8.1408,-8.1128,-8.1128,-8.1128,-8.1128,-8.1165,-8.1961,-8.2758,-8.3555,-8.4388,-8.4732,-8.4595,-8.4513,-8.3261,-8.1792,-8.1698,-8.1,-8.0209,-8.0209,-8.0209,-8.0209,-8.0209,-8.0209,-8.0209,-8.0209,-8.0209,-8.0209,-8.0209,-8.0209,-8.0209,-8.0209,-8.0209,-8.0209,-8.0209,-8.0209,-8.0209,-8.0209,-8.0209,-8.0209,-8.0209,-7.9079,-7.773,-7.6734,-7.5359,-7.4116,-7.3107,-7.0669,-6.8759,-6.7616,-6.5154,-6.3111,-6.2123,-6.1973,-6.0863,-5.8369,-5.8212,-5.7107,-5.4579,-5.4416,-5.4416,-5.4416,-5.2702,-5.1514,-5.1157,-4.7905,-4.6017,-4.5686,-4.4174,-4.3499,-8.1319,-8.1291,-8.1263,-8.1124,-8.1093,-8.0369,-7.7731,0.0,0.0,0.0,-7.1707,-7.1374,-7.0572,-7.1406,0.0,-7.33,-7.5535,0.0,-7.8306,-7.9586,0.0,-8.0392,-8.0195,-8.0224,-8.0638,-8.1013,-8.1539,-8.2323,-8.2823,-8.3133,-8.3006,-8.3802,-8.4484,-8.4901,-8.4901,-8.4901,-8.4901,-8.4541,-8.4064,-8.3396,-8.2816,-8.2169,-8.151,-8.1234,-8.1128,-8.1128,-8.1128,-8.1128,-8.1201,-8.2396,-8.312,-8.3591,-8.4859,-8.4901,-8.4314,-8.3897,-8.282,-8.1509,-8.1097,-8.0542,-8.0209,-8.0209,-8.0209,-8.0209,-8.0209,-8.0209,-8.0209,-8.0209,-8.0209,-8.0209,-8.0209,-8.0209,-8.0209,-8.0209,-8.0209,-8.0209,-8.0209,-8.0209,-8.0209,-8.0209,-8.0209,-8.0209,-8.0209,-7.8624,-7.7291,-7.6734,-7.5039,-7.3661,-7.3107,-7.0088,-6.7918,-6.7479,-6.6118,-6.4346,-6.2097,-6.1973,-6.0863,-5.8369,-5.8212,-5.7107,-5.4579,-5.4416,-5.4416,-5.4416,-5.355,-5.2702,-5.1682,-4.8935,-4.7215,-4.6191,-4.4333,-4.3499,-8.1242,-8.1263,-8.1234,-8.1124,-8.1093,-8.0177,-7.6663,-7.5833,0.0,-7.1274,-7.0451,-7.0419,-7.0419,0.0,-7.194,0.0,-7.4598,-7.6534,0.0,-7.8826,-8.0011,0.0,-8.0347,0.0,-8.1292,-8.1668,-8.2342,-8.3544,-8.3899,-8.4012,-8.3877,-8.4522,-8.4901,-8.4901,-8.4901,-8.4901,-8.4947,-8.4268,-8.3618,-8.3016,-8.2386,-8.1745,-8.1128,-8.1128,-8.1128,-8.1128,-8.1128,-8.1128,-8.1237,-8.2831,-8.3483,-8.3664,-8.4994,-8.4988,-8.3981,-8.2998,-8.213,-8.116,-8.0476,-8.0209,-8.0209,-8.0209,-8.0209,-8.0209,-8.0209,-8.0209,-8.0209,-8.0209,-8.0209,-8.0209,-8.0209,-8.0209,-8.0209,-8.0209,-8.0209,-8.0209,-8.0209,-8.0209,-8.0209,-8.0209,-8.0209,-8.0209,-8.0209,-7.8411,-7.6958,-7.6621,-7.4802,-7.3324,-7.2983,-6.9956,-6.7753,-6.7479,-6.6538,-6.4895,-6.2246,-6.1973,-6.0863,-5.8369,-5.8212,-5.7107,-5.4579,-5.4416,-5.4416,-5.4416,-5.4416,-5.3715,-5.2182,-5.0146,-4.8249,-4.6714,-4.451,-4.3499,-8.0933,-8.1273,-8.1214,-8.1124,-8.1093,-8.0177,-7.66,0.0,-7.4779,-7.1139,-7.0419,-7.0419,-7.0419,-7.0501,-7.1078,-7.2643,0.0,-7.4437,0.0,0.0,0.0,-8.0315,0.0,0.0,-8.1534,-8.2779,-8.3639,-8.3791,-8.4474,-8.4886,-8.4787,-8.4863,-8.4901,-8.4901,-8.4901,-8.4947,-8.5006,-8.4454,-8.3779,-8.3057,-8.2536,-8.1879,-8.1128,-8.1128,-8.1128,-8.1128,-8.1128,-8.1128,-8.1237,-8.2831,-8.3483,-8.3554,-8.4263,-8.3981,-8.2998,-8.2037,-8.116,-8.0276,-8.0209,-8.0209,-8.0209,-8.0209,-8.0209,-8.0209,-8.0209,-8.0209,-8.0209,-8.0209,-8.0209,-8.0209,-8.0209,-8.0209,-8.0209,-8.0209,-8.0209,-8.0209,-8.0209,-8.0209,-8.0209,-8.0209,-8.0209,-8.0209,-8.0209,-7.9079,-7.7839,-7.6734,-7.5475,-7.4085,-7.2703,-7.0799,-6.8894,-6.7232,-6.4319,-6.2396,-6.1973,-6.1973,-6.0863,-5.8369,-5.8212,-5.7107,-5.4579,-5.4416,-5.4416,-5.4416,-5.4416,-5.4252,-5.4066,-5.0653,-4.8935,-4.8613,-4.5197,-4.3499,-8.0856,-8.1234,-8.1184,-8.1124,-8.0323,-7.8869,-7.637,0.0,-7.3514,-7.091,-7.0419,-7.0419,-7.0419,-7.0419,-7.0648,-7.1336,-7.2329,0.0,-7.4813,0.0,0.0,-7.9513,-7.9934,0.0,0.0,-8.3628,-8.4196,-8.4729,-8.4986,-8.5132,-8.5089,-8.4999,-8.4954,-8.4954,-8.4954,-8.4871,-8.4647,-8.4027,-8.3359,-8.2597,-8.2039,-8.1547,-8.1128,-8.1128,-8.1128,-8.1128,-8.1128,-8.1128,-8.1237,-8.2831,-8.3149,-8.2763,-8.3987,-8.3434,-8.213,-8.1792,-8.1,-8.0209,-8.0209,-8.0209,-8.0209,-8.0209,-8.0479,-8.0851,-8.0851,-8.0851,-8.0953,-8.1393,-8.1528,-8.1528,-8.1528,-8.119,-8.0851,-8.0851,-8.0513,-8.0209,-8.0209,-8.0209,-8.0209,-8.0209,-8.0209,-7.9972,-7.9184,-7.8089,-7.6958,-7.5707,-7.4445,-7.3416,-7.2578,-7.0117,-6.8054,-6.7094,-6.4752,-6.2937,-6.2123,-6.1344,-6.0074,-5.8369,-5.7424,-5.631,-5.4416,-5.4416,-5.4416,-5.4416,-5.4416,-5.4416,-5.4416,-5.0821,-4.8955,-4.8955,-4.5197,-4.3499,-8.0067,-8.082,-8.1154,-8.1093,-7.9785,-7.8023,0.0,0.0,-7.2671,-7.0795,-7.0419,-7.0419,-7.0419,-7.0419,-7.0419,-7.0419,0.0,-7.2406,-7.2941,-7.401,0.0,0.0,0.0,-7.9591,-8.272,-8.39,-8.478,-8.5352,-8.5346,-8.5262,-8.5262,-8.5138,-8.5094,-8.5051,-8.5051,-8.4833,-8.4417,-8.3832,-8.3132,-8.2323,-8.1782,-8.1305,-8.1128,-8.1128,-8.1128,-8.1128,-8.1128,-8.1237,-8.1563,-8.2903,-8.3106,-8.2495,-8.3567,-8.2998,-8.1603,-8.1256,-8.0706,-8.0209,-8.0209,-8.0209,-8.0209,-8.0209,-8.0682,-8.1325,-8.1562,-8.1629,-8.1731,-8.2272,-8.2408,-8.2408,-8.2408,-8.2002,-8.1562,-8.1325,-8.0885,-8.0445,-8.0242,-8.0209,-8.0209,-8.0209,-8.0209,-7.987,-7.8624,-7.7401,-7.6167,-7.5007,-7.363,-7.2578,-7.1759,-6.9132,-6.7065,-6.6258,-6.4608,-6.3085,-6.2123,-6.0863,-5.9612,-5.8212,-5.6949,-5.5668,-5.4416,-5.4416,-5.4416,-5.4416,-5.4416,-5.4066,-5.355,-5.0484,-4.8764,-4.8077,-4.5021,-4.3499,-7.8171,-7.9845,-8.1093,-8.1093,-7.9785,-7.8023,0.0,0.0,-7.2671,-7.0795,-7.0419,-7.0419,-7.0419,-7.0419,-7.0419,-7.0419,-7.0419,0.0,-7.275,-7.3017,0.0,0.0,0.0,-7.7683,-8.0277,-8.3484,-8.5429,-8.5511,-8.5469,-8.5388,-8.5388,-8.5388,-8.5346,-8.5219,-8.5219,-8.4968,-8.4524,-8.3975,-8.3284,-8.2511,-8.1879,-8.1408,-8.1128,-8.1128,-8.1128,-8.1128,-8.1128,-8.1563,-8.2324,-8.3157,-8.3394,-8.3208,-8.3066,-8.2405,-8.1509,-8.0542,-8.0209,-8.0209,-8.0209,-8.0209,-8.0209,-8.0209,-8.0682,-8.1426,-8.2171,-8.2408,-8.2408,-8.2408,-8.2408,-8.2408,-8.2408,-8.2408,-8.2205,-8.146,-8.1291,-8.1088,-8.0344,-8.0209,-8.0209,-8.0209,-8.0209,-7.987,-7.8624,-7.7401,-7.6167,-7.5007,-7.3508,-7.1759,-6.9986,-6.819,-6.6258,-6.4491,-6.2964,-6.1973,-6.1973,-6.0863,-5.9612,-5.8212,-5.6949,-5.5668,-5.4416,-5.4416,-5.4416,-5.4416,-5.4416,-5.355,-5.1682,-4.9977,-4.8077,-4.6191,-4.4333,-4.3499,-7.6437,-7.7227,-7.7592,-7.7592,-7.6293,-7.4781,-7.4152,0.0,-7.1236,-7.0566,-7.0419,-7.0419,-7.0419,-7.0419,-7.0419,-7.0419,-7.0419,0.0,0.0,0.0,0.0,-7.6953,-8.043,-8.3027,-8.383,-8.486,-8.5471,-8.5511,-8.5471,-8.5471,-8.5471,-8.5471,-8.5429,-8.5346,-8.4968,-8.4524,-8.4092,-8.3508,-8.2756,-8.1879,-8.1715,-8.1408,-8.1128,-8.1128,-8.1128,-8.1128,-8.1128,-8.1563,-8.236,-8.3157,-8.2972,-8.2255,-8.2805,-8.2037,-8.0641,-8.0276,-8.0209,-8.0209,-8.0209,-8.0209,-8.0276,-8.0784,-8.1426,-8.2205,-8.2915,-8.3152,-8.3253,-8.3795,-8.393,-8.393,-8.393,-8.3524,-8.3084,-8.2847,-8.2002,-8.1224,-8.0987,-8.0547,-8.0209,-8.0209,-8.0209,-7.9528,-7.7511,-7.6846,-7.5791,-7.363,-7.2828,-7.1789,-6.959,-6.7947,-6.6258,-6.4346,-6.2815,-6.1973,-6.1973,-6.0074,-5.8681,-5.8212,-5.615,-5.4882,-5.4416,-5.4416,-5.4416,-5.4416,-5.4416,-5.355,-5.1682,-4.9786,-4.7408,-4.4333,-4.3837,-4.3499,0.0,-7.5543,-7.6015,-7.5985,-7.4619,0.0,0.0,0.0,0.0,-7.0419,-7.0419,-7.0419,-7.0419,-7.0419,-7.0419,-7.0419,-7.0419,0.0,0.0,0.0,0.0,-7.7717,0.0,0.0,-8.4098,-8.4938,-8.5511,-8.5511,-8.5511,-8.5511,-8.5511,-8.5511,-8.5471,-8.5469,-8.4886,-8.4341,-8.3885,-8.3284,-8.2548,-8.1751,-8.1683,-8.1478,-8.1163,-8.1092,-8.1128,-8.1128,-8.1128,-8.1744,0.0,-8.3265,-8.2994,-8.2331,-8.2822,-8.1851,-8.0209,-8.0209,-8.0209,-8.0209,-8.0209,-8.0209,-8.031,-8.1054,-8.1968,-8.2949,-8.3693,-8.393,-8.4031,-8.4505,-8.464,-8.464,-8.464,-8.4268,-8.3862,-8.3558,-8.2577,-8.1629,-8.1359,-8.0716,-8.0209,-8.0209,-7.987,-7.8869,-7.6958,-7.6281,-7.5125,-7.2828,-7.2357,-7.1375,-6.8759,-6.7398,-6.5864,-6.3646,-6.2545,-6.1823,-6.1318,-5.9458,-5.8212,-5.8212,-5.5829,-5.4416,-5.4416,-5.4416,-5.4416,-5.4416,-5.4416,-5.3221,-5.0653,-4.8077,-4.5705,-4.3499,-4.3499,-4.3499,0.0,0.0,-7.5601,-7.5541,-7.432,-7.307,0.0,0.0,0.0,0.0,0.0,-7.0419,-7.0419,-7.0419,-7.0419,-7.0419,-7.0419,0.0,0.0,-7.4507,0.0,0.0,-8.0621,-8.2073,-8.2073,-8.4136,-8.5511,-8.5511,-8.5511,-8.5511,-8.5511,-8.5511,-8.5511,-8.5433,-8.4892,-8.439,-8.3885,-8.3284,-8.2548,-8.1885,-8.1683,-8.1547,-8.1375,-8.1163,-8.1128,-8.1128,-8.1128,-8.1998,-8.3483,-8.3409,-8.328,-8.2998,-8.2909,-8.1792,-8.0209,-8.0209,-8.0209,-8.0209,-8.0209,-8.0209,-8.031,-8.1122,-8.2374,-8.3693,-8.4403,-8.464,-8.464,-8.464,-8.464,-8.464,-8.464,-8.464,-8.4437,-8.3727,-8.2983,-8.2205,-8.1528,-8.075,-8.0209,-8.0209,-7.9184,-7.8056,-7.6846,-7.5592,-7.4325,-7.2703,-7.2104,-7.0599,-6.737,-6.6566,-6.5182,-6.2246,-6.1973,-6.1495,-6.0227,-5.8993,-5.8212,-5.8055,-5.5691,-5.4416,-5.4416,-5.4416,-5.4416,-5.4416,-5.4066,-5.2348,-4.8955,-4.5373,-4.3499,-4.3499,-4.3499,-4.3499,-7.1398,0.0,-7.2063,-7.2006,-7.1679,-7.1283,0.0,0.0,0.0,0.0,0.0,0.0,0.0,0.0,0.0,-7.0419,0.0,0.0,-7.3858,0.0,0.0,-8.3448,-8.4289,-8.4632,-8.4632,-8.5167,-8.5511,-8.5511,-8.5511,-8.5511,-8.5511,-8.5511,-8.5311,-8.4892,-8.439,-8.4041,-8.3885,-8.2853,-8.2215,-8.1885,-8.1683,-8.1547,-8.1375,-8.1163,-8.1128,-8.1128,-8.1128,-8.1998,-8.3409,-8.2732,-8.2678,-8.2909,-8.2222,-8.1256,-8.0209,-8.0209,-8.0209,-8.0209,-8.0209,-8.0209,-8.0412,-8.1731,-8.3152,-8.4403,-8.4573,-8.464,-8.464,-8.464,-8.464,-8.464,-8.464,-8.464,-8.4573,-8.4403,-8.3355,-8.2374,-8.2171,-8.1122,-8.0209,-8.0209,-7.9184,-7.8056,-7.6846,-7.5592,-7.4205,-7.2357,-7.0988,-6.9324,-6.6845,-6.5467,-6.4083,-6.2246,-6.1973,-6.1495,-6.0227,-5.8993,-5.774,-5.6789,-5.5206,-5.4416,-5.4416,-5.4416,-5.4416,-5.4416,-5.1682,-4.9807,-4.8955,-4.5373,-4.3499,-4.3499,-4.3499,-4.3499,-7.0871,-7.0843,-7.0843,-7.0758,-7.0708,-7.0616,-7.0554,0.0,0.0,0.0,0.0,0.0,0.0,0.0,0.0,0.0,-7.1642,0.0,0.0,0.0,-8.1003,-8.3486,-8.3792,-8.425,-8.5397,-8.5511,-8.5511,-8.5511,-8.5511,-8.5511,-8.5511,-8.5511,-8.5232,-8.4711,-8.4193,-8.3779,-8.3508,-8.2622,-8.2121,-8.2055,-8.1751,-8.1547,-8.1478,-8.1234,-8.1128,-8.1128,-8.1128,-8.1779,-8.2809,-8.2306,-8.2178,-8.2313,-8.1792,-8.1,-8.0209,-8.0209,-8.0209,-8.0209,-8.0209,-8.0648,-8.1359,-8.2137,-8.3422,-8.464,-8.464,-8.464,-8.464,-8.464,-8.464,-8.464,-8.464,-8.464,-8.464,-8.464,-8.3761,-8.2813,-8.2475,-8.1494,-8.0581,-8.0276,-7.873,-7.7401,-7.6734,-7.5125,-7.3539,-7.2231,-7.0699,-6.8894,-6.6706,-6.5039,-6.3646,-6.2123,-6.1973,-6.1193,-5.9458,-5.8525,-5.7582,-5.631,-5.5044,-5.4416,-5.4416,-5.4416,-5.4066,-5.3221,-5.0484,-4.8613,-4.7733,-4.4864,-4.3499,-4.3499,-4.3499,-4.3499,-7.0815,-7.0979,-7.1103,-7.0746,-7.0647,-7.0554,-7.0419,0.0,0.0,0.0,0.0,0.0,0.0,-7.0419,0.0,0.0,0.0,0.0,-7.8252,-7.8901,-7.9971,-8.2111,-8.2378,-8.3181,-8.532,-8.5511,-8.5511,-8.5511,-8.5511,-8.5511,-8.5511,-8.5511,-8.519,-8.458,-8.4142,-8.3563,-8.2913,-8.2471,-8.2186,-8.2186,-8.1818,-8.1683,-8.1647,-8.1305,-8.12,-8.1092,-8.1092,-8.1521,-8.2112,-8.1952,-8.1715,-8.1603,-8.1413,-8.0902,-8.0209,-8.0209,-8.0209,-8.0209,-8.031,-8.1257,-8.2441,-8.2543,-8.349,-8.464,-8.464,-8.464,-8.464,-8.464,-8.464,-8.464,-8.464,-8.464,-8.464,-8.464,-8.4065,-8.3287,-8.2577,-8.1832,-8.1054,-8.0107,-7.8056,-7.6508,-7.6395,-7.4445,-7.2734,-7.2134,-7.0439,-6.8625,-6.6706,-6.4895,-6.3379,-6.2123,-6.1823,-6.0711,-5.8369,-5.8055,-5.7424,-5.615,-5.5044,-5.4416,-5.4416,-5.4416,-5.3715,-5.2182,-5.0146,-4.827,-4.6714,-4.451,-4.3499,-4.3499,-4.3499,-4.3499,-7.0815,-7.1803,-7.2472,-7.0999,-7.0623,-7.0554,-7.0419,0.0,0.0,0.0,0.0,0.0,0.0,-7.0419,-7.0686,0.0,0.0,-7.913,0.0,-8.3028,-8.448,-8.49,-8.4938,-8.5091,-8.5473,-8.5511,-8.5511,-8.5511,-8.5511,-8.5511,-8.5511,-8.5511,-8.5062,-8.4041,-8.3937,-8.3396,-8.2343,-8.2251,-8.2186,-8.2186,-8.1952,-8.1818,-8.1818,-8.1514,-8.1375,-8.1305,-8.1163,-8.1521,-8.2032,-8.1224,-8.1155,-8.1509,-8.074,-8.0276,-8.0209,-8.0209,-8.0209,-8.0276,-8.0885,-8.1697,-8.2509,-8.3118,-8.393,-8.464,-8.464,-8.464,-8.464,-8.464,-8.464,-8.464,-8.464,-8.464,-8.464,-8.464,-8.4065,-8.3287,-8.2577,-8.1832,-8.0713,-7.9002,-7.7511,-7.6281,-7.5242,-7.363,-7.2483,-7.2134,-6.9324,-6.7094,-6.6426,-6.4083,-6.2246,-6.1973,-6.1015,-5.9766,-5.8369,-5.7266,-5.599,-5.4719,-5.4579,-5.4416,-5.4416,-5.4416,-5.4252,-5.4066,-5.0653,-4.8784,-4.8613,-4.5197,-4.3499,-4.3499,-4.3499,-4.3499,-7.0643,-7.1283,-7.1803,-7.186,-7.2587,-7.3237,-7.317,0.0,0.0,0.0,0.0,0.0,0.0,0.0,-7.2826,-7.5959,0.0,-7.9895,-8.1576,-8.1614,-8.1958,-8.3333,-8.3486,-8.4021,-8.5358,-8.5511,-8.5511,-8.5511,-8.5511,-8.5511,-8.5511,-8.5511,-8.5018,-8.3937,-8.3885,-8.334,-8.2186,-8.2186,-8.2186,-8.2186,-8.1989,-8.1885,-8.1885,-8.1583,-8.1375,-8.1375,-8.1163,-8.1148,-8.1224,-8.0766,-8.0741,-8.0804,-8.0376,-8.0209,-8.0209,-8.0209,-8.0209,-8.031,-8.1021,-8.1765,-8.2543,-8.3253,-8.3998,-8.464,-8.464,-8.464,-8.464,-8.464,-8.464,-8.464,-8.464,-8.464,-8.464,-8.464,-8.437,-8.3795,-8.2644,-8.2137,-8.1218,-7.8857,-7.7401,-7.6167,-7.4771,-7.3385,-7.2073,-7.0729,-6.849,-6.6538,-6.5324,-6.3379,-6.1796,-6.1015,-6.038,-5.9278,-5.7424,-5.663,-5.5691,-5.4416,-5.4416,-5.4416,-5.4416,-5.4416,-5.355,-5.1514,-4.9807,-4.8098,-4.6056,-4.4352,-4.3499,-4.3499,-4.3499,-4.3499,-7.0478,-7.0954,-7.1472,-7.2707,0.0,0.0,0.0,0.0,0.0,0.0,0.0,0.0,0.0,-7.2253,0.0,-7.9207,-7.9895,-8.0544,-8.2416,-8.1003,-8.0468,-8.2416,-8.2684,-8.341,-8.532,-8.5511,-8.5511,-8.5511,-8.5511,-8.5511,-8.5511,-8.5393,-8.4892,-8.3937,-8.3779,-8.3206,-8.2186,-8.2186,-8.2186,-8.2186,-8.2055,-8.1952,-8.1952,-8.1652,-8.1514,-8.1445,-8.1234,-8.1071,-8.0936,-8.0681,-8.0558,-8.0476,-8.0276,-8.0209,-8.0209,-8.0209,-8.0209,-8.031,-8.1224,-8.1934,-8.2543,-8.3456,-8.4167,-8.464,-8.464,-8.464,-8.464,-8.464,-8.464,-8.464,-8.464,-8.464,-8.464,-8.464,-8.464,-8.4234,-8.2746,-8.2408,-8.1518,-7.8569,-7.7291,-7.6053,-7.4205,-7.3046,-7.1661,-6.9457,-6.781,-6.6286,-6.4491,-6.2964,-6.1495,-6.0227,-5.9766,-5.8656,-5.599,-5.5829,-5.5368,-5.4416,-5.4416,-5.4416,-5.4416,-5.4416,-5.2868,-4.9637,-4.9297,-4.7408,-4.4174,-4.3659,-4.3499,-4.3499,-4.3499,-4.3499,-7.0386,-7.1733,-7.2926,-7.3012,-7.1871,0.0,-7.4775,-7.4278,-7.359,-7.5004,-7.531,-7.4813,0.0,-7.3514,-7.5004,-7.7755,-8.0124,-8.2455,-8.49,-8.5091,-8.5053,-8.5206,-8.5244,-8.532,-8.5473,-8.5511,-8.5511,-8.5511,-8.5511,-8.5511,-8.5511,-8.5062,-8.4486,-8.3937,-8.334,-8.283,-8.2186,-8.2186,-8.2186,-8.2186,-8.2186,-8.2186,-8.2186,-8.1952,-8.1751,-8.1615,-8.1445,-8.1633,-8.1952,-8.0936,-8.1011,-8.1413,-8.0542,-8.0209,-8.0209,-8.0209,-8.0209,-8.0412,-8.1832,-8.2374,-8.2644,-8.4065,-8.4573,-8.464,-8.464,-8.464,-8.464,-8.464,-8.464,-8.464,-8.464,-8.464,-8.464,-8.464,-8.464,-8.4234,-8.2746,-8.2408,-8.1274,-7.7441,-7.6621,-7.5707,-7.3046,-7.2357,-7.1435,-6.9457,-6.7673,-6.5892,-6.4346,-6.2964,-6.1495,-6.0227,-5.8993,-5.7266,-5.4719,-5.4579,-5.4579,-5.4416,-5.4416,-5.4416,-5.4416,-5.4416,-5.355,-5.1514,-4.9807,-4.8077,-4.6017,-4.4333,-4.3499,-4.3499,-4.3499,-4.3499,-6.9582,-7.1395,-7.3012,-7.2979,-7.2482,0.0,0.0,-7.657,-7.6303,-7.6914,-7.7067,-7.6532,-7.4851,0.0,-7.7831,-7.9321,-8.169,-8.3868,-8.532,-8.5511,-8.5511,-8.5511,-8.5511,-8.5511,-8.5511,-8.5511,-8.5511,-8.5511,-8.519,-8.498,-8.498,-8.4486,-8.3937,-8.334,-8.3111,-8.2769,-8.2186,-8.2186,-8.2186,-8.2186,-8.2186,-8.2186,-8.2186,-8.1952,-8.1818,-8.1579,-8.1445,-8.1633,-8.2032,-8.1021,-8.1011,-8.1509,-8.0542,-8.0209,-8.0209,-8.0209,-8.0209,-8.0344,-8.1359,-8.2035,-8.2577,-8.3592,-8.4234,-8.464,-8.464,-8.464,-8.464,-8.464,-8.464,-8.464,-8.464,-8.464,-8.464,-8.464,-8.4268,-8.3659,-8.2644,-8.2035,-8.0737,-7.7265,-7.6621,-7.5707,-7.2703,-7.2104,-7.1018,-6.7947,-6.6845,-6.5609,-6.3085,-6.2396,-6.1193,-5.9148,-5.7107,-5.553,-5.4416,-5.4416,-5.4416,-5.4416,-5.4416,-5.4416,-5.4416,-5.4416,-5.3033,-5.0146,-4.9297,-4.7581,-4.451,-4.3837,-4.3499,-4.3499,-4.3499,-4.3499,-6.9061,-7.0681,-7.2291,-7.2864,0.0,0.0,-7.7258,-7.7602,-7.7526,-7.8557,-7.8366,-7.764,-7.6494,-7.7717,-7.9245,-8.0315,-8.2416,-8.425,-8.5358,-8.5511,-8.5511,-8.5511,-8.5511,-8.5511,-8.5511,-8.5511,-8.5433,-8.527,-8.4892,-8.4665,-8.4438,-8.3937,-8.3452,-8.2994,-8.2853,-8.256,-8.2186,-8.2186,-8.2186,-8.2186,-8.2186,-8.2186,-8.2186,-8.2055,-8.1818,-8.1579,-8.1478,-8.1853,-8.2464,-8.114,-8.0831,-8.1063,-8.0476,-8.0209,-8.0209,-8.0209,-8.0209,-8.031,-8.1021,-8.1765,-8.2543,-8.3253,-8.3998,-8.464,-8.464,-8.464,-8.464,-8.464,-8.4819,-8.4995,-8.4713,-8.464,-8.464,-8.464,-8.4065,-8.3287,-8.2577,-8.1832,-8.0401,-7.7199,-7.6621,-7.5592,-7.2578,-7.1564,-7.0177,-6.6845,-6.6005,-6.4752,-6.2246,-6.1973,-6.1041,-5.8525,-5.599,-5.4416,-5.4416,-5.4416,-5.4416,-5.4416,-5.4416,-5.4416,-5.4416,-5.4416,-5.2702,-4.9126,-4.8955,-4.7255,-4.3499,-4.3499,-4.3499,-4.3499,-4.3499,-4.3499,-6.896,-6.9807,-7.0877,0.0,0.0,0.0,-7.7258,-7.6723,-7.6456,-7.9818,-7.9169,-7.8022,-7.8022,-7.8022,-7.8557,-8.0238,-8.192,-8.3601,-8.5282,-8.5511,-8.5511,-8.5511,-8.5511,-8.5511,-8.5511,-8.5511,-8.5311,-8.4757,-8.4711,-8.4438,-8.3937,-8.334,-8.2994,-8.2994,-8.2497,-8.2186,-8.2186,-8.2186,-8.2186,-8.2186,-8.2186,-8.2186,-8.2186,-8.2186,-8.1952,-8.1579,-8.1579,-8.2318,-8.3298,-8.1391,-8.0501,-8.0209,-8.0209,-8.0209,-8.0209,-8.0209,-8.0209,-8.031,-8.1021,-8.1765,-8.2543,-8.3253,-8.3998,-8.464,-8.464,-8.464,-8.464,-8.4606,-8.5378,-8.582,-8.489,-8.4606,-8.4606,-8.4606,-8.4031,-8.3287,-8.2543,-8.1799,-8.0368,-7.7199,-7.6621,-7.5592,-7.2578,-7.0699,-6.8894,-6.6706,-6.5182,-6.3646,-6.2097,-6.1973,-6.1015,-5.8525,-5.5829,-5.4416,-5.4416,-5.4416,-5.4416,-5.4416,-5.4416,-5.4416,-5.4416,-5.4416,-5.2702,-4.9126,-4.8955,-4.7255,-4.3499,-4.3499,-4.3499,-4.3499,-4.3499,-4.3499,-6.8234,-7.1068,0.0,-7.317,0.0,0.0,0.0,-7.764,0.0,-8.0047,-8.0086,-7.9398,-7.8213,-7.8978,-7.9933,-8.043,-8.192,-8.3601,-8.5282,-8.5511,-8.5511,-8.5511,-8.5511,-8.5511,-8.5511,-8.5511,-8.5433,-8.527,-8.4533,-8.4092,-8.3885,-8.2972,-8.2471,-8.2471,-8.2316,-8.2186,-8.2186,-8.2186,-8.2186,-8.2186,-8.2186,-8.2186,-8.2186,-8.2186,-8.2055,-8.1818,-8.1683,-8.2033,-8.2542,-8.1699,-8.0844,-8.0209,-8.0209,-8.0209,-8.0209,-8.0209,-8.0209,-8.0242,-8.0445,-8.1359,-8.2441,-8.2678,-8.3592,-8.464,-8.464,-8.464,-8.4713,-8.5447,-8.582,-8.6022,-8.5719,-8.5274,-8.466,-8.4005,-8.3253,-8.2509,-8.1765,-8.0368,-7.8783,-7.699,-7.5938,-7.4652,-7.2357,-7.0699,-6.8894,-6.6706,-6.5182,-6.3326,-6.0989,-5.992,-5.8681,-5.7107,-5.5368,-5.4416,-5.4416,-5.4416,-5.4416,-5.4416,-5.4416,-5.4416,-5.4416,-5.4416,-5.2702,-4.9126,-4.8955,-4.7255,-4.3499,-4.3499,-4.3499,-4.3499,-4.3499,-4.3499,-6.9152,0.0,0.0,-7.4889,-7.6494,-7.8175,-7.8825,0.0,0.0,-8.0277,-8.0506,-8.02,-7.9169,-7.9818,-8.0735,-8.1385,-8.234,-8.3601,-8.5282,-8.5511,-8.5511,-8.5511,-8.5511,-8.5511,-8.5511,-8.5511,-8.5311,-8.4892,-8.4242,-8.3726,-8.3264,-8.256,-8.2186,-8.2186,-8.2186,-8.2186,-8.2186,-8.2186,-8.2186,-8.2186,-8.2186,-8.2186,-8.2186,-8.2186,-8.2121,-8.1922,-8.2272,-8.2138,-8.1626,-8.2012,-8.1352,-8.0209,-8.0209,-8.0209,-8.0209,-8.0209,-8.0209,-8.0209,-8.0209,-8.0987,-8.2002,-8.2306,-8.3219,-8.4234,-8.4539,-8.464,-8.4713,-8.5378,-8.6122,-8.6414,-8.5376,-8.5328,-8.5277,-8.3874,-8.2712,-8.1832,-8.1393,-7.979,-7.7948,-7.6701,-7.5443,-7.3964,-7.2073,-7.0015,-6.8054,-6.6566,-6.4635,-6.2466,-6.038,-5.8993,-5.774,-5.647,-5.5206,-5.4416,-5.4416,-5.4416,-5.4416,-5.4416,-5.4416,-5.4416,-5.4416,-5.4416,-5.2702,-4.9126,-4.8955,-4.7255,-4.3499,-4.3499,-4.3499,-4.3499,-4.3499,-4.3499,-7.0954,0.0,0.0,-7.7258,-7.8099,0.0,-8.0162,-8.0506,-8.0506,-8.0506,-8.0506,-8.0506,-8.0506,-8.0506,-8.1041,-8.2722,-8.299,-8.3601,-8.5282,-8.5511,-8.5511,-8.5511,-8.5511,-8.5511,-8.5511,-8.5511,-8.5105,-8.4041,-8.3937,-8.3396,-8.2343,-8.2251,-8.2186,-8.2186,-8.2186,-8.2186,-8.2186,-8.2186,-8.2186,-8.2186,-8.2186,-8.2186,-8.2186,-8.2186,-8.2055,-8.1928,-8.3082,-8.2434,-8.07,-8.2278,-8.1792,-8.0209,-8.0209,-8.0209,-8.0209,-8.0209,-8.0209,-8.0209,-8.0209,-8.0682,-8.1393,-8.2172,-8.2884,-8.3734,-8.448,-8.4788,-8.4788,-8.4893,-8.6182,-8.7036,-8.4319,-8.5007,-8.5799,-8.3773,-8.2272,-8.1257,-8.119,-7.9652,-7.7839,-7.633,-7.5093,-7.3477,-7.1503,-6.8894,-6.6817,-6.6146,-6.3792,-6.1495,-6.0074,-5.8993,-5.774,-5.631,-5.5044,-5.4416,-5.4416,-5.4416,-5.4416,-5.4416,-5.4416,-5.4416,-5.4416,-5.4416,-5.2702,-4.9126,-4.8955,-4.7255,-4.3499,-4.3499,-4.3499,-4.3499,-4.3499,-4.3499,0.0,0.0,0.0,0.0,-7.8978,-8.0047,-8.043,-8.0506,-8.0506,-8.0506,-8.0506,-8.0506,-8.0506,-8.0506,-8.1041,-8.2722,-8.299,-8.3601,-8.5282,-8.5511,-8.5511,-8.5511,-8.5511,-8.5511,-8.5511,-8.5511,-8.5232,-8.458,-8.4142,-8.3563,-8.2853,-8.2471,-8.2186,-8.2186,-8.2186,-8.2186,-8.2186,-8.2186,-8.2186,-8.2186,-8.2186,-8.2186,-8.2186,-8.2186,-8.1952,-8.1688,-8.2467,-8.2005,-8.07,-8.1596,-8.1256,-8.0209,-8.0209,-8.0209,-8.0209,-8.0209,-8.0209,-8.0209,-8.0209,-8.0682,-8.1495,-8.2364,-8.311,-8.4063,-8.5568,-8.5968,-8.6158,-8.6994,-8.7533,-8.7356,-8.5368,-8.4831,-8.4227,-8.2207,-8.1528,-8.1122,-8.0547,-7.8617,-7.6813,-7.6217,-7.4414,-7.2139,-7.0015,-6.8219,-6.6146,-6.3379,-6.2396,-6.1193,-5.8837,-5.8369,-5.7266,-5.5044,-5.4579,-5.4416,-5.4416,-5.4416,-5.4416,-5.4416,-5.4416,-5.4416,-5.4416,-5.4416,-5.2702,-4.9126,-4.8955,-4.7255,-4.3499,-4.3499,-4.3499,-4.3499,-4.3499,-4.3499,0.0,0.0,0.0,0.0,0.0,-8.0506,-8.0506,-8.0506,-8.0506,-8.0506,-8.0506,-8.0506,-8.0506,-8.0506,-8.0926,-8.2225,-8.276,-8.3448,-8.4747,-8.5282,-8.5511,-8.5511,-8.5511,-8.5511,-8.5511,-8.5511,-8.5148,-8.439,-8.4041,-8.3508,-8.2647,-8.2343,-8.2186,-8.2186,-8.2186,-8.2186,-8.2186,-8.2186,-8.2186,-8.2186,-8.2186,-8.2186,-8.2186,-8.2186,-8.2055,-8.1824,-8.2794,-8.232,-8.0786,-8.1833,-8.1413,-8.0209,-8.0209,-8.0209,-8.0209,-8.0209,-8.0209,-8.0276,-8.0706,-8.1141,-8.1615,-8.2949,-8.3612,-8.4158,-8.5518,-8.5855,-8.5947,-8.6488,-8.7015,-8.6802,-8.4564,-8.411,-8.3634,-8.1288,-8.075,-8.0547,-7.9492,-7.7839,-7.6249,-7.5178,-7.3477,-7.1533,-6.9353,-6.7122,-6.4895,-6.2396,-6.1495,-6.0406,-5.8525,-5.774,-5.663,-5.4579,-5.4416,-5.4416,-5.4416,-5.4416,-5.4416,-5.4416,-5.4416,-5.4416,-5.4416,-5.4416,-5.2702,-4.9126,-4.8955,-4.7255,-4.3499,-4.3499,-4.3499,-4.3499,-4.3499,-4.3499,0.0,0.0,0.0,0.0,0.0,0.0,-8.0506,-8.0506,-8.0506,-8.0506,-8.0506,-8.0506,-8.0506,-8.0506,-8.0773,-8.1652,-8.234,-8.3142,-8.4174,-8.4862,-8.5358,-8.5473,-8.5511,-8.5511,-8.5511,-8.5393,-8.4937,-8.3989,-8.3832,-8.3284,-8.2251,-8.2186,-8.2186,-8.2186,-8.2186,-8.2186,-8.2186,-8.2186,-8.2186,-8.2186,-8.2186,-8.2186,-8.2186,-8.2186,-8.2121,-8.1995,-8.3399,-8.2818,-8.1007,-8.2453,-8.1851,-8.0209,-8.0209,-8.0209,-8.0209,-8.0209,-8.0276,-8.0542,-8.1352,-8.1698,-8.2048,-8.3646,-8.4124,-8.4353,-8.5287,-8.5623,-8.5623,-8.5623,-8.6111,-8.6154,-8.3427,-8.3346,-8.3354,-8.0777,-8.0209,-7.987,-7.8624,-7.7401,-7.6021,-7.4142,-7.2361,-7.0337,-6.8248,-6.5609,-6.3379,-6.2097,-6.0863,-5.9612,-5.8369,-5.7107,-5.5829,-5.4579,-5.4416,-5.4416,-5.4416,-5.4416,-5.4416,-5.4416,-5.4416,-5.4416,-5.4416,-5.4066,-5.237,-4.9126,-4.8955,-4.7255,-4.3499,-4.3499,-4.3499,-4.3499,-4.3499,-4.3499,0.0,0.0,0.0,0.0,0.0,0.0,0.0,0.0,-8.0506,0.0,-8.0506,-8.0506,-8.0506,-8.0506,-8.0773,-8.1652,-8.1881,-8.2493,-8.4059,-8.4403,-8.4709,-8.5435,-8.5511,-8.5511,-8.5511,-8.5105,-8.4533,-8.3937,-8.3396,-8.2853,-8.2251,-8.2186,-8.2186,-8.2186,-8.2186,-8.2186,-8.2186,-8.2186,-8.2186,-8.2186,-8.2186,-8.2186,-8.2186,-8.2186,-8.2121,-8.1995,-8.3399,-8.2818,-8.1007,-8.2453,-8.1851,-8.0209,-8.0209,-8.0209,-8.0209,-8.0209,-8.0706,-8.1413,-8.1509,-8.213,-8.3033,-8.4003,-8.4373,-8.4634,-8.6305,-8.6751,-8.6751,-8.6751,-8.683,-8.6377,-8.3613,-8.3085,-8.2691,-8.0675,-8.0209,-7.987,-7.8624,-7.7258,-7.5643,-7.4142,-7.0129,-6.6706,-6.5039,-6.3379,-6.2246,-6.1973,-6.0863,-5.9612,-5.8369,-5.7107,-5.5829,-5.4579,-5.4416,-5.4416,-5.4416,-5.4416,-5.4416,-5.4416,-5.4416,-5.4416,-5.4416,-5.2868,-5.1157,-4.9126,-4.8955,-4.7255,-4.3499,-4.3499,-4.3499,-4.3499,-4.3499,-4.3499,0.0,0.0,0.0,0.0,0.0,0.0,0.0,0.0,-8.0506,-8.0506,-8.0506,-8.0506,-8.0506,-8.0506,-8.0621,-8.1003,-8.1499,-8.2225,-8.341,-8.3983,-8.4594,-8.5397,-8.5511,-8.5393,-8.5105,-8.4848,-8.4341,-8.3452,-8.3169,-8.2769,-8.2251,-8.2186,-8.2186,-8.2186,-8.2186,-8.2186,-8.2186,-8.2186,-8.2186,-8.2186,-8.2186,-8.2186,-8.2186,-8.2186,-8.2121,-8.2128,-8.3045,-8.2512,-8.1176,-8.2012,-8.1543,-8.0209,-8.0209,-8.0542,-8.1,-8.1,-8.1603,-8.2496,-8.2998,-8.3434,-8.3981,-8.4872,-8.5261,-8.5375,-8.6195,-8.638,-8.638,-8.638,-8.6,-8.5105,-8.3454,-8.2551,-8.1851,-8.0542,-7.9632,-7.8836,-7.7369,-7.6556,-7.5115,-7.183,-6.8567,-6.5892,-6.4491,-6.2964,-6.1796,-6.1015,-5.992,-5.8525,-5.7266,-5.599,-5.5044,-5.4416,-5.4416,-5.4416,-5.4416,-5.4416,-5.4416,-5.4416,-5.4416,-5.4416,-5.4416,-5.2702,-5.0821,-4.8935,-4.7905,-4.6211,-4.3499,-4.3499,-4.3499,-4.3499,-4.3499,-4.3499,0.0,0.0,0.0,0.0,0.0,0.0,0.0,0.0,-8.0506,0.0,-8.0506,-8.0506,-8.0506,-8.0506,-8.0506,-8.0506,-8.1041,-8.1767,-8.2569,-8.3257,-8.4059,-8.5091,-8.5206,-8.5082,-8.4719,-8.458,-8.4054,-8.3053,-8.2853,-8.2585,-8.2251,-8.2186,-8.2186,-8.2186,-8.2186,-8.2186,-8.2186,-8.2186,-8.2186,-8.2186,-8.2186,-8.2186,-8.2186,-8.2186,-8.2121,-8.1892,-8.265,-8.2356,-8.1259,-8.1778,-8.129,-8.0175,-8.0476,-8.1,-8.1603,-8.1886,-8.2551,-8.3434,-8.4148,-8.4595,-8.4872,-8.5644,-8.5909,-8.5909,-8.5909,-8.5909,-8.5797,-8.5608,-8.4952,-8.4148,-8.2909,-8.213,-8.1318,-8.004,-7.9079,-7.7839,-7.5988,-7.5178,-7.3655,-6.9369,-6.7398,-6.5892,-6.3938,-6.2667,-6.1495,-6.0227,-5.8993,-5.774,-5.647,-5.5206,-5.4416,-5.4416,-5.4416,-5.4416,-5.4416,-5.4416,-5.4416,-5.4416,-5.4416,-5.423,-5.3738,-5.2015,-5.0125,-4.8229,-4.6366,-4.4845,-4.3499,-4.3499,-4.3499,-4.3499,-4.3499,-4.3499,0.0,0.0,0.0,0.0,0.0,0.0,0.0,0.0,-8.0506,-8.0506,-8.0506,-8.0506,-8.0506,-8.0506,-8.0506,-8.0506,-8.0544,-8.085,-8.1729,-8.192,-8.2531,-8.4174,-8.4365,-8.4472,-8.4681,-8.4242,-8.3672,-8.3053,-8.256,-8.2251,-8.2186,-8.2186,-8.2186,-8.2186,-8.2186,-8.2186,-8.2186,-8.2186,-8.2186,-8.2186,-8.2186,-8.2186,-8.2186,-8.2186,-8.1782,-8.1055,-8.2429,-8.2356,-8.1259,-8.1778,-8.129,-8.0276,-8.116,-8.1509,-8.1698,-8.2551,-8.3521,-8.4314,-8.4396,-8.5032,-8.5797,-8.5873,-8.5909,-8.5909,-8.5909,-8.5909,-8.5721,-8.4792,-8.4396,-8.3981,-8.213,-8.1603,-8.1091,-7.9012,-7.8411,-7.7588,-7.4589,-7.2736,-7.0699,-6.726,-6.6426,-6.5467,-6.2667,-6.2123,-6.1495,-6.0227,-5.8993,-5.774,-5.647,-5.5206,-5.4416,-5.4416,-5.4416,-5.4416,-5.4416,-5.4416,-5.4416,-5.4416,-5.4416,-5.355,-5.1849,-5.0146,-4.8249,-4.6366,-4.451,-4.3659,-4.3499,-4.3499,-4.3499,-4.3499,-4.3499,-4.3499,0.0,0.0,0.0,0.0,0.0,0.0,0.0,-7.9742,-8.0506,-8.0506,-8.0506,-8.0506,-8.0506,-8.0506,-8.0506,-8.0506,-8.0506,-8.0812,-8.169,-8.1805,-8.2225,-8.3333,-8.3628,-8.3581,-8.3413,-8.3335,-8.309,-8.256,-8.2279,-8.2186,-8.2186,-8.2186,-8.2186,-8.2186,-8.2186,-8.2186,-8.2186,-8.2186,-8.2186,-8.2186,-8.2186,-8.1885,-8.1405,-8.1405,-8.0911,-8.0139,-8.0394,-8.0479,-8.0439,-8.1111,-8.0872,-8.0276,-8.1256,-8.1944,-8.2641,-8.3521,-8.4513,-8.5339,-8.5339,-8.5608,-8.5909,-8.5909,-8.5909,-8.5909,-8.5909,-8.5909,-8.5721,-8.4676,-8.3981,-8.3174,-8.1944,-8.116,-8.0073,-7.7555,-7.6217,-7.4557,-7.145,-7.0248,-6.9086,-6.6845,-6.5609,-6.4346,-6.2396,-6.1344,-6.038,-5.9148,-5.774,-5.647,-5.5206,-5.4719,-5.4416,-5.4416,-5.4416,-5.4416,-5.4416,-5.4416,-5.4416,-5.4416,-5.4416,-5.355,-5.1849,-4.9955,-4.8077,-4.6191,-4.4333,-4.3499,-4.3499,-4.3499,-4.3499,-4.3499,-4.3499,-4.3499,-7.1603,0.0,0.0,0.0,0.0,0.0,0.0,0.0,-7.9818,-8.0391,-8.0506,-8.0506,-8.0506,-8.0506,-8.0506,-8.0506,-8.0506,-8.0697,-8.127,-8.1347,-8.1652,-8.2493,-8.2627,-8.2633,-8.2571,-8.2594,-8.2534,-8.2215,-8.2186,-8.2186,-8.2186,-8.2186,-8.2186,-8.2186,-8.2186,-8.2186,-8.2186,-8.1885,-8.1782,-8.1782,-8.1474,-8.1089,-8.055,-8.055,-7.9992,-7.917,-7.9206,-7.9461,-7.9907,-8.0337,-8.0569,-8.0706,-8.1698,-8.2641,-8.3642,-8.4513,-8.5339,-8.5909,-8.5909,-8.5909,-8.5909,-8.5909,-8.5909,-8.5909,-8.5909,-8.5608,-8.5147,-8.4231,-8.3261,-8.2313,-8.1352,-7.9939,-7.8271,-7.5874,-7.4142,-7.2299,-6.9722,-6.8923,-6.8112,-6.6033,-6.4895,-6.3792,-6.2246,-6.1015,-5.9612,-5.8369,-5.7107,-5.5829,-5.4579,-5.4416,-5.4416,-5.4416,-5.4416,-5.4416,-5.4416,-5.4416,-5.4416,-5.4416,-5.3902,-5.2702,-5.0821,-4.8935,-4.7215,-4.5354,-4.4174,-4.3499,-4.3499,-4.3499,-4.3499,-4.3499,-4.3499,-4.3499,0.0,0.0,0.0,0.0,0.0,0.0,-7.7105,0.0,-7.8404,-8.0086,-8.043,-8.043,-8.0506,-8.0506,-8.0506,-8.0506,-8.0506,-8.0506,-8.0506,-8.0506,-8.0812,-8.1614,-8.1254,-8.1339,-8.2383,-8.2035,-8.1844,-8.2141,-8.215,-8.215,-8.2186,-8.2186,-8.2186,-8.2186,-8.2186,-8.2186,-8.2186,-8.1299,-8.0911,-8.0911,-8.0068,-7.9721,-7.9608,-7.9608,-7.9054,-7.8132,-7.878,-7.9339,-7.9838,-7.9597,-8.035,-8.1698,-8.2641,-8.3521,-8.4513,-8.5531,-8.5909,-8.5909,-8.5909,-8.5909,-8.5909,-8.5909,-8.5909,-8.5909,-8.5909,-8.5147,-8.4231,-8.3261,-8.2313,-8.1318,-8.0376,-7.8131,-7.5759,-7.4142,-7.2486,-7.0859,-6.9457,-6.8788,-6.7702,-6.4779,-6.4201,-6.3646,-6.2246,-6.0863,-5.9612,-5.8369,-5.7107,-5.5852,-5.4579,-5.4416,-5.4416,-5.4416,-5.4416,-5.4416,-5.4416,-5.4416,-5.4416,-5.4416,-5.2702,-5.0821,-4.9105,-4.7215,-4.5354,-4.3499,-4.3499,-4.3499,-4.3499,-4.3499,-4.3499,-4.3499,-4.3499,-4.3499,-7.0342,0.0,0.0,0.0,0.0,0.0,0.0,0.0,-7.6647,-7.8366,-7.871,-7.9054,-8.0277,-8.0506,-8.0506,-8.0506,-8.0506,-8.0506,-8.0506,-8.0159,-7.9992,-8.022,-7.9989,-7.9904,-8.0189,-8.0326,-8.0614,-8.1269,-8.1342,-8.1599,-8.215,-8.2186,-8.2186,-8.2186,-8.2186,-8.2186,-8.2186,-8.1299,-8.0911,-8.0911,-8.0068,-7.9294,-7.8565,-7.8565,-7.7926,-7.6884,-7.6908,-7.733,-7.8024,-7.9041,-8.035,-8.1698,-8.2641,-8.3521,-8.4513,-8.5531,-8.5909,-8.5909,-8.5909,-8.5909,-8.5909,-8.5909,-8.5909,-8.5909,-8.5909,-8.5147,-8.4231,-8.3261,-8.2313,-8.1091,-7.9083,-7.7336,-7.5643,-7.387,-7.1637,-6.9324,-6.7536,-6.6286,-6.5182,-6.4346,-6.3379,-6.222,-6.0837,-5.9612,-5.8369,-5.6949,-5.5668,-5.4719,-5.4416,-5.4416,-5.4416,-5.4416,-5.4416,-5.4416,-5.4416,-5.4416,-5.4416,-5.4416,-5.2702,-5.0821,-4.9105,-4.7215,-4.5354,-4.3499,-4.3499,-4.3499,-4.3499,-4.3499,-4.3499,-4.3499,-4.3499,-4.3499,-7.0419,-7.0419,-7.0419,-7.0419,0.0,0.0,-7.3705,-7.4775,-7.615,-7.8557,-7.9054,-7.936,-8.0315,-8.0506,-8.043,-8.0199,-8.0159,-8.0159,-8.0159,-7.9916,-7.9621,-7.9403,-7.9037,-7.8945,-7.9279,-7.9289,-7.9617,-8.0424,-8.0498,-8.0699,-8.1099,-8.1835,-8.1885,-8.1196,-8.1474,-8.1474,-8.1196,-8.0328,-7.9916,-7.9839,-7.9089,-7.8266,-7.7528,-7.7528,-7.712,-7.6309,-7.6216,-7.6435,-7.7216,-7.845,-8.0003,-8.1861,-8.3068,-8.4148,-8.5067,-8.5721,-8.5909,-8.5909,-8.5909,-8.5909,-8.5909,-8.5909,-8.5909,-8.5797,-8.5417,-8.4595,-8.3606,-8.2641,-8.131,-7.9532,-7.727,-7.581,-7.4288,-7.1956,-7.0219,-6.8383,-6.6005,-6.4779,-6.4083,-6.3379,-6.2194,-6.1015,-6.0227,-5.8656,-5.7107,-5.647,-5.5206,-5.4416,-5.4416,-5.4416,-5.4416,-5.4416,-5.4416,-5.4416,-5.4416,-5.4416,-5.4066,-5.3386,-5.1514,-4.9807,-4.7905,-4.6036,-4.451,-4.3499,-4.3499,-4.3499,-4.3499,-4.3499,-4.3499,-4.3499,-4.3499,-4.3499,-7.0457,-7.0419,-7.0419,-7.0419,-7.0419,0.0,-7.424,-7.4927,-7.5806,-7.9016,-7.9665,-7.9704,-7.9895,-7.9933,-7.9782,-7.9191,-7.9296,-7.9437,-7.9583,-7.9538,-7.9358,-7.8841,-7.8363,-7.8276,-7.9018,-7.8675,-7.8772,-7.9517,-7.9499,-7.9603,-7.968,-8.1032,-8.1157,-7.9762,-8.0366,-8.044,-7.9721,-7.8882,-7.8504,-7.8504,-7.7632,-7.7009,-7.6828,-7.6702,-7.6461,-7.6028,-7.6216,-7.6401,-7.6855,-7.8007,-7.9826,-8.1926,-8.3638,-8.4844,-8.5764,-8.5873,-8.5909,-8.5909,-8.5909,-8.5909,-8.5909,-8.5909,-8.5797,-8.5531,-8.4676,-8.3692,-8.2641,-8.1474,-7.9532,-7.7446,-7.5464,-7.4048,-7.2458,-6.9428,-6.8548,-6.7702,-6.4752,-6.4056,-6.3499,-6.2097,-6.0863,-6.0074,-5.992,-5.7873,-5.631,-5.615,-5.5206,-5.4416,-5.4416,-5.4416,-5.4416,-5.4416,-5.4416,-5.4416,-5.4416,-5.4252,-5.3386,-5.1849,-4.9807,-4.7926,-4.6191,-4.451,-4.3499,-4.3499,-4.3499,-4.3499,-4.3499,-4.3499,-4.3499,-4.3499,-4.3499,-4.3499,-7.0828,-7.0419,-7.0419,-7.0419,-7.0419,0.0,-7.1259,-7.1412,-7.1985,-7.4049,-7.4469,-7.4889,-7.6227,-7.6456,-7.6191,-7.5394,-7.6614,-7.8025,-7.8897,-7.869,-7.8363,-7.8255,-7.7768,-7.7524,-7.7671,-7.7623,-7.7605,-7.785,-7.788,-7.8351,-7.9609,-7.9468,-7.9458,-7.9685,-7.9839,-7.9839,-7.9721,-7.8882,-7.8504,-7.8504,-7.7421,-7.6736,-7.6587,-7.6309,-7.6088,-7.5805,-7.6576,-7.6495,-7.6137,-7.9107,-8.0588,-8.1118,-8.2821,-8.4019,-8.5004,-8.5656,-8.5909,-8.5909,-8.5909,-8.5909,-8.5909,-8.5909,-8.5339,-8.4676,-8.4513,-8.3174,-8.1474,-7.9224,-7.8097,-7.7004,-7.4319,-7.3506,-7.2519,-6.9428,-6.7702,-6.6286,-6.4635,-6.3232,-6.207,-6.0685,-6.0227,-5.9741,-5.8681,-5.7266,-5.599,-5.4882,-5.4579,-5.4416,-5.4416,-5.4416,-5.4416,-5.4416,-5.4416,-5.4416,-5.4416,-5.3033,-5.2015,-5.1682,-4.8613,-4.656,-4.6191,-4.451,-4.3499,-4.3499,-4.3499,-4.3499,-4.3499,-4.3499,-4.3499,-4.3499,-4.3499,-4.3499,-7.0936,-7.0419,-7.0419,-7.0419,-7.0419,0.0,0.0,-7.1718,-7.2176,-7.3896,-7.424,-7.432,-7.4522,-7.4523,-7.4106,-7.2797,-7.4418,-7.5555,-7.4629,-7.6567,-7.8016,-7.771,-7.745,-7.7304,-7.7304,-7.6993,-7.6584,-7.6228,-7.6589,-7.6937,-7.733,-7.7723,-7.7944,-7.7872,-7.8282,-7.8458,-7.8469,-7.8501,-7.8363,-7.8275,-7.765,-7.7227,-7.6854,-7.6292,-7.6182,-7.6392,-7.694,-7.7085,-7.7229,-7.9398,-8.0305,-8.0481,-8.2571,-8.3867,-8.475,-8.5149,-8.5547,-8.5909,-8.5909,-8.5909,-8.5909,-8.5909,-8.5261,-8.4314,-8.3861,-8.1806,-7.943,-7.8097,-7.6524,-7.5029,-7.3506,-7.2017,-7.045,-6.8083,-6.6426,-6.4895,-6.3379,-6.2518,-6.1646,-6.038,-5.9612,-5.8681,-5.7424,-5.615,-5.5206,-5.4579,-5.4416,-5.4416,-5.4416,-5.4416,-5.4416,-5.4416,-5.4416,-5.4416,-5.4416,-5.2702,-5.1325,-5.0294,-4.7753,-4.5881,-4.4845,-4.3997,-4.3499,-4.3499,-4.3499,-4.3499,-4.3499,-4.3499,-4.3499,-4.3499,-4.3499,-4.3499,-7.1107,-7.0413,-7.0419,-7.0419,-7.0419,-7.0763,0.0,0.0,0.0,-7.424,-7.4393,-7.3944,0.0,0.0,-7.1776,-6.9883,-7.169,-7.2362,-6.9667,-7.348,-7.6494,-7.619,-7.6704,-7.7009,-7.6679,-7.5798,-7.5224,-7.4975,-7.5075,-7.5012,-7.4993,-7.6109,-7.6418,-7.5844,-7.664,-7.7074,-7.7016,-7.7685,-7.8076,-7.8029,-7.7902,-7.7588,-7.7176,-7.6658,-7.6748,-7.7085,-7.744,-7.7926,-7.8482,-7.9565,-7.9911,-8.0012,-8.2355,-8.3664,-8.4243,-8.4388,-8.4968,-8.5656,-8.5656,-8.5764,-8.5909,-8.5685,-8.4792,-8.3727,-8.2641,-8.0304,-7.7665,-7.7226,-7.5147,-7.3046,-7.2174,-7.0349,-6.8248,-6.6426,-6.5039,-6.3792,-6.2246,-6.1823,-6.1344,-5.992,-5.8681,-5.7582,-5.647,-5.5206,-5.4416,-5.4416,-5.4416,-5.4416,-5.4416,-5.4416,-5.4416,-5.4416,-5.4416,-5.4252,-5.3902,-5.2182,-5.0294,-4.8592,-4.6714,-4.5002,-4.3499,-4.3499,-4.3499,-4.3499,-4.3499,-4.3499,-4.3499,-4.3499,-4.3499,-4.3499,-4.3499,-4.3499,-7.1722,-7.0563,-7.0419,-7.0419,-7.0419,-7.0457,-7.0648,0.0,-7.0763,-7.0954,0.0,-6.9747,-6.9169,0.0,0.0,-6.5264,-6.7307,-6.8468,-6.6627,-6.9052,-7.1231,-7.1908,-7.4551,-7.5792,-7.4312,-7.2941,-7.2965,-7.483,-7.2563,-7.2255,-7.4888,-7.4482,-7.4479,-7.505,-7.5828,-7.6242,-7.6258,-7.6768,-7.7308,-7.8029,-7.7528,-7.7305,-7.721,-7.7697,-7.765,-7.7175,-7.8764,-7.9089,-7.8565,-8.025,-8.051,-7.9977,-8.1741,-8.2468,-8.265,-8.3374,-8.4135,-8.4823,-8.4823,-8.5293,-8.5721,-8.4872,-8.3348,-8.1698,-8.0508,-7.8941,-7.7226,-7.581,-7.42,-7.2299,-6.9825,-6.8923,-6.7975,-6.5182,-6.4346,-6.3792,-6.2246,-6.1167,-5.992,-5.8681,-5.7424,-5.647,-5.631,-5.5206,-5.4416,-5.4416,-5.4416,-5.4416,-5.4416,-5.4416,-5.4416,-5.4416,-5.4416,-5.3738,-5.2182,-5.0315,-4.8421,-4.6714,-4.4845,-4.3659,-4.3499,-4.3499,-4.3499,-4.3499,-4.3499,-4.3499,-4.3499,-4.3499,-4.3499,-4.3499,-4.3499,-4.3499,-7.1304,-7.1321,-7.1888,-7.0713,-7.1267,-7.182,-7.0642,-7.0419,-7.0266,-6.9807,0.0,0.0,0.0,0.0,0.0,0.0,-6.5582,-6.6579,-6.4439,-6.7589,-7.022,-7.055,-7.1891,-7.2755,-7.2549,-7.1968,-7.2184,-7.3571,-7.1596,-7.1352,-7.3565,-7.3372,-7.3498,-7.4257,-7.4602,-7.4894,-7.5254,-7.63,-7.6782,-7.688,-7.7577,-7.8142,-7.8417,-7.8248,-7.8606,-7.9316,-7.9586,-7.9834,-8.0023,-8.0767,-8.0876,-8.0656,-8.131,-8.1889,-8.2324,-8.265,-8.3301,-8.399,-8.399,-8.3871,-8.3502,-8.2486,-8.1748,-8.0994,-7.9221,-7.7446,-7.581,-7.4407,-7.2333,-7.0088,-6.9057,-6.7427,-6.5751,-6.4491,-6.3499,-6.2492,-6.1167,-6.0533,-5.9433,-5.7424,-5.663,-5.599,-5.5368,-5.4719,-5.4416,-5.4416,-5.4416,-5.4416,-5.4416,-5.4416,-5.4416,-5.4416,-5.3386,-5.2536,-5.1682,-4.9105,-4.7061,-4.6191,-4.451,-4.3499,-4.3499,-4.3499,-4.3499,-4.3499,-4.3499,-4.3499,-4.3499,-4.3499,-4.3499,-4.3499,-4.3499,-4.3499,-7.1977,-7.2313,-7.2947,-7.0898,-7.149,-7.2217,-7.0751,-7.0228,-6.9922,-6.9311,-6.8472,0.0,0.0,0.0,-6.3947,-6.2684,0.0,-6.4787,-6.2768,-6.5705,-6.8201,-6.8421,-6.8945,-6.9644,-7.0523,-7.0231,-7.0593,-7.1995,-7.0636,-7.0601,-7.2567,-7.2671,-7.2912,-7.3464,-7.3671,-7.3964,-7.4287,-7.5674,-7.6256,-7.6122,-7.7809,-7.8965,-7.9419,-7.949,-8.0028,-8.0863,-8.0524,-8.069,-8.1128,-8.1128,-8.1128,-8.1128,-8.1128,-8.1454,-8.1961,-8.1961,-8.2468,-8.3157,-8.2899,-8.217,-8.1246,-8.0351,-7.9933,-7.9397,-7.7841,-7.6007,-7.4186,-7.329,-7.0968,-6.8654,-6.8112,-6.6146,-6.4083,-6.3646,-6.2492,-6.1167,-6.0227,-5.9587,-5.85,-5.663,-5.599,-5.553,-5.4579,-5.4416,-5.4416,-5.4416,-5.4416,-5.4416,-5.4416,-5.4416,-5.423,-5.3715,-5.2536,-5.1325,-5.0315,-4.7733,-4.6017,-4.5511,-4.4174,-4.3499,-4.3499,-4.3499,-4.3499,-4.3499,-4.3499,-4.3499,-4.3499,-4.3499,-4.3499,-4.3499,-4.3499,-4.3499,-7.4569,-7.3484,-7.2947,-7.0898,-7.0457,-7.0457,-7.0419,-6.9807,-6.9234,-6.9196,-6.7559,-6.5916,-6.5454,-6.4401,-6.3132,-6.1838,-6.2365,0.0,0.0,-6.2438,-6.3356,-6.42,-6.579,-6.7196,-6.8068,-6.6954,-6.7333,-7.0222,-6.9049,-6.9497,-7.2533,-7.2671,-7.2705,-7.2705,-7.3395,-7.3723,-7.3532,-7.4706,-7.5559,-7.6122,-7.8304,-7.9362,-7.9453,-8.1966,-8.2246,-8.0977,-8.1812,-8.1817,-8.1128,-8.1128,-8.1128,-8.1128,-8.1128,-8.1128,-8.1165,-8.1165,-8.1635,-8.2215,-8.1281,-8.0338,-7.9453,-7.9177,-7.7675,-7.601,-7.6017,-7.4391,-7.2424,-7.2737,-7.0869,-6.8383,-6.6845,-6.5324,-6.3792,-6.2396,-6.1015,-6.0227,-6.0074,-5.8187,-5.647,-5.631,-5.5368,-5.4416,-5.4416,-5.4416,-5.4416,-5.4416,-5.4416,-5.4416,-5.4416,-5.4416,-5.3738,-5.2015,-5.1682,-5.0294,-4.6714,-4.6191,-4.553,-4.3659,-4.3499,-4.3499,-4.3499,-4.3499,-4.3499,-4.3499,-4.3499,-4.3499,-4.3499,-4.3499,-4.3499,-4.3499,-4.3499,-4.3499,-7.5555,-7.6032,-7.6198,-7.2952,-7.3099,-7.3261,-7.0292,-6.9387,-6.8788,-6.7372,-6.6295,-6.5266,-6.4326,-6.3539,-6.2892,-6.2438,-6.2622,-6.2695,0.0,-6.2281,-6.2186,-6.2141,-6.4002,-6.5444,-6.578,-6.6773,-6.8187,-7.0222,-6.9911,-7.0498,-7.2567,-7.2671,-7.2671,-7.2671,-7.2912,-7.288,-7.2482,-7.3964,-7.4878,-7.5249,-7.7615,-7.9282,-8.0482,-8.1871,-8.2535,-8.2605,-8.2432,-8.2143,-8.1853,-8.1309,-8.1128,-8.1128,-8.1128,-8.0767,-8.0286,-8.0876,-8.0874,-8.0417,-7.8904,-7.8483,-7.8293,-7.6702,-7.5831,-7.5242,-7.348,-7.2183,-7.1076,-6.9265,-6.7799,-6.6251,-6.4717,-6.3614,-6.2369,-6.1015,-6.038,-5.9587,-5.7873,-5.6949,-5.599,-5.5206,-5.4719,-5.4416,-5.4416,-5.4416,-5.4416,-5.4416,-5.4416,-5.4416,-5.4416,-5.4416,-5.423,-5.355,-5.1325,-4.9467,-4.8077,-4.5881,-4.4174,-4.3499,-4.3499,-4.3499,-4.3499,-4.3499,-4.3499,-4.3499,-4.3499,-4.3499,-4.3499,-4.3499,-4.3499,-4.3499,-4.3499,-4.3499,-7.7177,-7.7768,-7.7869,-7.4675,-7.4823,-7.4765,-7.0981,-6.9846,-6.8946,-6.6511,-6.5426,-6.4649,-6.3654,-6.311,-6.2805,-6.2805,-6.2805,-6.2705,0.0,-6.1951,-6.1364,-6.0797,-6.2498,-6.3974,-6.464,-6.5773,-6.7359,-6.9428,-6.9566,-7.0256,-7.1774,-7.236,-7.2671,-7.2671,-7.2922,-7.2804,-7.2467,-7.3947,-7.4787,-7.4872,-7.7521,-7.9418,-8.0506,-8.1962,-8.2886,-8.3446,-8.265,-8.2287,-8.2215,-8.1418,-8.0948,-8.062,-8.062,-8.0099,-7.9444,-8.0286,-7.987,-7.8682,-7.7528,-7.6816,-7.6347,-7.4668,-7.3714,-7.2907,-7.1284,-6.9945,-6.8715,-6.6967,-6.5525,-6.4193,-6.2992,-6.2152,-6.136,-6.0074,-5.9615,-5.8812,-5.6789,-5.599,-5.5368,-5.4579,-5.4416,-5.4416,-5.4416,-5.4416,-5.4416,-5.4416,-5.4416,-5.4416,-5.4416,-5.4416,-5.3902,-5.2702,-5.0315,-4.8442,-4.7081,-4.4864,-4.3499,-4.3499,-4.3499,-4.3499,-4.3499,-4.3499,-4.3426,-4.3279,-4.3426,-4.3426,-4.3279,-4.3426,-4.3499,-4.3499,-4.3499,-4.3499]}]]